Wetterdaten: Mittwoch, 15.08.2018
Datum Zeit Temp. A. Feuchte A. Luftdruck Regen Wind Richtung Richtung Sonnenschein ET UV Solar Taupunkt Windchill Windböen
15.08.2018 00:00 14,5 °C 89 % 1017,1 hPa 0,0 mm 0,5 km/h (0 Bft) S-SW 205 ° 0 min 0,000 mm 0,0 UV-I 0 W/m² 12,7 °C 14,5 °C 1,6 km/h (1 Bft)
15.08.2018 00:01 14,5 °C 89 % 1017,2 hPa 0,0 mm 0,4 km/h (0 Bft) S-SW 205 ° 0 min 0,000 mm 0,0 UV-I 0 W/m² 12,7 °C 14,5 °C 1,6 km/h (1 Bft)
15.08.2018 00:02 14,4 °C 89 % 1017,2 hPa 0,0 mm 0,8 km/h (0 Bft) S-SW 205 ° 0 min 0,000 mm 0,0 UV-I 0 W/m² 12,6 °C 14,4 °C 1,6 km/h (1 Bft)
15.08.2018 00:03 14,4 °C 89 % 1017,2 hPa 0,0 mm 0,9 km/h (0 Bft) S-SW 205 ° 0 min 0,000 mm 0,0 UV-I 0 W/m² 12,6 °C 14,4 °C 3,2 km/h (1 Bft)
15.08.2018 00:04 14,4 °C 89 % 1017,2 hPa 0,0 mm 2,0 km/h (1 Bft) SO 146 ° 0 min 0,000 mm 0,0 UV-I 0 W/m² 12,6 °C 14,4 °C 3,2 km/h (1 Bft)
15.08.2018 00:05 14,5 °C 89 % 1017,2 hPa 0,0 mm 0,9 km/h (0 Bft) SO 146 ° 0 min 0,000 mm 0,0 UV-I 0 W/m² 12,7 °C 14,5 °C 1,6 km/h (1 Bft)
15.08.2018 00:06 14,5 °C 89 % 1017,1 hPa 0,0 mm 1,4 km/h (1 Bft) SO 146 ° 0 min 0,000 mm 0,0 UV-I 0 W/m² 12,7 °C 14,5 °C 3,2 km/h (1 Bft)
15.08.2018 00:07 14,5 °C 89 % 1017,2 hPa 0,0 mm 0,6 km/h (0 Bft) SO 146 ° 0 min 0,000 mm 0,0 UV-I 0 W/m² 12,7 °C 14,5 °C 3,2 km/h (1 Bft)
15.08.2018 00:08 14,5 °C 89 % 1017,2 hPa 0,0 mm 0,0 km/h (0 Bft) SO 146 ° 0 min 0,000 mm 0,0 UV-I 0 W/m² 12,7 °C 14,5 °C 0,0 km/h (0 Bft)
15.08.2018 00:09 14,6 °C 89 % 1017,2 hPa 0,0 mm 0,0 km/h (0 Bft) SO 146 ° 0 min 0,000 mm 0,0 UV-I 0 W/m² 12,8 °C 14,6 °C 0,0 km/h (0 Bft)
15.08.2018 00:10 14,5 °C 89 % 1017,2 hPa 0,0 mm 0,0 km/h (0 Bft) SO 146 ° 0 min 0,000 mm 0,0 UV-I 0 W/m² 12,7 °C 14,5 °C 0,0 km/h (0 Bft)
15.08.2018 00:11 14,5 °C 89 % 1017,2 hPa 0,0 mm 0,0 km/h (0 Bft) SO 146 ° 0 min 0,000 mm 0,0 UV-I 0 W/m² 12,7 °C 14,5 °C 0,0 km/h (0 Bft)
15.08.2018 00:12 14,4 °C 89 % 1017,1 hPa 0,0 mm 0,0 km/h (0 Bft) SO 146 ° 0 min 0,000 mm 0,0 UV-I 0 W/m² 12,6 °C 14,4 °C 0,0 km/h (0 Bft)
15.08.2018 00:13 14,4 °C 89 % 1017,1 hPa 0,0 mm 0,0 km/h (0 Bft) SO 146 ° 0 min 0,000 mm 0,0 UV-I 0 W/m² 12,6 °C 14,4 °C 0,0 km/h (0 Bft)
15.08.2018 00:14 14,4 °C 90 % 1017,1 hPa 0,0 mm 0,0 km/h (0 Bft) SO 146 ° 0 min 0,000 mm 0,0 UV-I 0 W/m² 12,8 °C 14,4 °C 0,0 km/h (0 Bft)
15.08.2018 00:15 14,4 °C 90 % 1017,1 hPa 0,0 mm 0,0 km/h (0 Bft) SO 146 ° 0 min 0,000 mm 0,0 UV-I 0 W/m² 12,8 °C 14,4 °C 0,0 km/h (0 Bft)
15.08.2018 00:16 14,4 °C 90 % 1017,2 hPa 0,0 mm 0,0 km/h (0 Bft) SO 146 ° 0 min 0,000 mm 0,0 UV-I 0 W/m² 12,8 °C 14,4 °C 0,0 km/h (0 Bft)
15.08.2018 00:17 14,4 °C 90 % 1017,2 hPa 0,0 mm 0,0 km/h (0 Bft) SO 146 ° 0 min 0,000 mm 0,0 UV-I 0 W/m² 12,8 °C 14,4 °C 0,0 km/h (0 Bft)
15.08.2018 00:18 14,4 °C 90 % 1017,1 hPa 0,0 mm 0,0 km/h (0 Bft) SO 146 ° 0 min 0,000 mm 0,0 UV-I 0 W/m² 12,8 °C 14,4 °C 0,0 km/h (0 Bft)
15.08.2018 00:19 14,3 °C 90 % 1017,2 hPa 0,0 mm 0,0 km/h (0 Bft) SO 146 ° 0 min 0,000 mm 0,0 UV-I 0 W/m² 12,7 °C 14,3 °C 0,0 km/h (0 Bft)
15.08.2018 00:20 14,3 °C 90 % 1017,2 hPa 0,0 mm 0,0 km/h (0 Bft) SO 146 ° 0 min 0,000 mm 0,0 UV-I 0 W/m² 12,7 °C 14,3 °C 0,0 km/h (0 Bft)
15.08.2018 00:21 14,3 °C 90 % 1017,2 hPa 0,0 mm 0,0 km/h (0 Bft) SO 146 ° 0 min 0,000 mm 0,0 UV-I 0 W/m² 12,7 °C 14,3 °C 0,0 km/h (0 Bft)
15.08.2018 00:22 14,3 °C 90 % 1017,2 hPa 0,0 mm 0,0 km/h (0 Bft) SO 146 ° 0 min 0,000 mm 0,0 UV-I 0 W/m² 12,7 °C 14,3 °C 0,0 km/h (0 Bft)
15.08.2018 00:23 14,3 °C 90 % 1017,2 hPa 0,0 mm 0,0 km/h (0 Bft) SO 146 ° 0 min 0,000 mm 0,0 UV-I 0 W/m² 12,7 °C 14,3 °C 0,0 km/h (0 Bft)
15.08.2018 00:24 14,3 °C 90 % 1017,2 hPa 0,0 mm 1,2 km/h (1 Bft) SO 146 ° 0 min 0,000 mm 0,0 UV-I 0 W/m² 12,7 °C 14,3 °C 3,2 km/h (1 Bft)
15.08.2018 00:25 14,3 °C 90 % 1017,2 hPa 0,0 mm 3,1 km/h (1 Bft) SO 146 ° 0 min 0,000 mm 0,0 UV-I 0 W/m² 12,7 °C 14,3 °C 3,2 km/h (1 Bft)
15.08.2018 00:26 14,3 °C 90 % 1017,2 hPa 0,0 mm 2,7 km/h (1 Bft) SO 146 ° 0 min 0,000 mm 0,0 UV-I 0 W/m² 12,7 °C 14,3 °C 3,2 km/h (1 Bft)
15.08.2018 00:27 14,3 °C 90 % 1017,2 hPa 0,2 mm 3,2 km/h (1 Bft) SO 146 ° 0 min 0,000 mm 0,0 UV-I 0 W/m² 12,7 °C 14,3 °C 4,8 km/h (1 Bft)
15.08.2018 00:28 14,3 °C 90 % 1017,2 hPa 0,0 mm 2,8 km/h (1 Bft) SO 146 ° 0 min 0,000 mm 0,0 UV-I 0 W/m² 12,7 °C 14,3 °C 3,2 km/h (1 Bft)
15.08.2018 00:29 14,3 °C 91 % 1017,2 hPa 0,0 mm 1,5 km/h (1 Bft) SO 146 ° 0 min 0,000 mm 0,0 UV-I 0 W/m² 12,8 °C 14,3 °C 3,2 km/h (1 Bft)
15.08.2018 00:30 14,3 °C 91 % 1017,2 hPa 0,0 mm 1,6 km/h (1 Bft) SO 146 ° 0 min 0,000 mm 0,0 UV-I 0 W/m² 12,8 °C 14,3 °C 3,2 km/h (1 Bft)
15.08.2018 00:31 14,2 °C 91 % 1017,2 hPa 0,0 mm 1,7 km/h (1 Bft) SO 146 ° 0 min 0,000 mm 0,0 UV-I 0 W/m² 12,8 °C 14,2 °C 3,2 km/h (1 Bft)
15.08.2018 00:32 14,2 °C 91 % 1017,2 hPa 0,0 mm 1,3 km/h (1 Bft) SO 146 ° 0 min 0,000 mm 0,0 UV-I 0 W/m² 12,8 °C 14,2 °C 1,6 km/h (1 Bft)
15.08.2018 00:33 14,2 °C 91 % 1017,2 hPa 0,0 mm 0,1 km/h (0 Bft) SO 146 ° 0 min 0,000 mm 0,0 UV-I 0 W/m² 12,8 °C 14,2 °C 1,6 km/h (1 Bft)
15.08.2018 00:34 14,2 °C 91 % 1017,2 hPa 0,0 mm 1,3 km/h (1 Bft) SO 146 ° 0 min 0,000 mm 0,0 UV-I 0 W/m² 12,8 °C 14,2 °C 3,2 km/h (1 Bft)
15.08.2018 00:35 14,2 °C 91 % 1017,2 hPa 0,0 mm 1,4 km/h (1 Bft) SO 146 ° 0 min 0,000 mm 0,0 UV-I 0 W/m² 12,8 °C 14,2 °C 3,2 km/h (1 Bft)
15.08.2018 00:36 14,2 °C 91 % 1017,2 hPa 0,0 mm 1,7 km/h (1 Bft) SO 146 ° 0 min 0,000 mm 0,0 UV-I 0 W/m² 12,8 °C 14,2 °C 3,2 km/h (1 Bft)
15.08.2018 00:37 14,2 °C 91 % 1017,2 hPa 0,0 mm 2,2 km/h (1 Bft) S-SO 148 ° 0 min 0,000 mm 0,0 UV-I 0 W/m² 12,8 °C 14,2 °C 4,8 km/h (1 Bft)
15.08.2018 00:38 14,2 °C 91 % 1017,2 hPa 0,0 mm 7,4 km/h (2 Bft) S-SO 165 ° 0 min 0,000 mm 0,0 UV-I 0 W/m² 12,8 °C 14,2 °C 8,0 km/h (2 Bft)
15.08.2018 00:39 14,3 °C 91 % 1017,3 hPa 0,0 mm 7,4 km/h (2 Bft) S-SO 165 ° 0 min 0,000 mm 0,0 UV-I 0 W/m² 12,8 °C 14,3 °C 8,0 km/h (2 Bft)
15.08.2018 00:40 14,3 °C 91 % 1017,2 hPa 0,0 mm 7,1 km/h (2 Bft) S-SO 165 ° 0 min 0,000 mm 0,0 UV-I 0 W/m² 12,8 °C 14,3 °C 8,0 km/h (2 Bft)
15.08.2018 00:41 14,3 °C 91 % 1017,2 hPa 0,0 mm 4,4 km/h (1 Bft) S-SO 165 ° 0 min 0,000 mm 0,0 UV-I 0 W/m² 12,8 °C 14,3 °C 8,0 km/h (2 Bft)
15.08.2018 00:42 14,3 °C 91 % 1017,2 hPa 0,0 mm 1,7 km/h (1 Bft) S-SO 165 ° 0 min 0,000 mm 0,0 UV-I 0 W/m² 12,8 °C 14,3 °C 3,2 km/h (1 Bft)
15.08.2018 00:43 14,3 °C 91 % 1017,1 hPa 0,0 mm 1,2 km/h (1 Bft) S-SO 165 ° 0 min 0,000 mm 0,0 UV-I 0 W/m² 12,8 °C 14,3 °C 3,2 km/h (1 Bft)
15.08.2018 00:44 14,3 °C 91 % 1017,1 hPa 0,0 mm 0,1 km/h (0 Bft) S-SO 165 ° 0 min 0,000 mm 0,0 UV-I 0 W/m² 12,8 °C 14,3 °C 1,6 km/h (1 Bft)
15.08.2018 00:45 14,3 °C 91 % 1017,2 hPa 0,0 mm 2,1 km/h (1 Bft) S-SO 165 ° 0 min 0,000 mm 0,0 UV-I 0 W/m² 12,8 °C 14,3 °C 3,2 km/h (1 Bft)
15.08.2018 00:46 14,3 °C 91 % 1017,3 hPa 0,0 mm 1,6 km/h (1 Bft) S-SO 165 ° 0 min 0,000 mm 0,0 UV-I 0 W/m² 12,8 °C 14,3 °C 3,2 km/h (1 Bft)
15.08.2018 00:47 14,3 °C 91 % 1017,2 hPa 0,0 mm 0,1 km/h (0 Bft) S-SO 165 ° 0 min 0,000 mm 0,0 UV-I 0 W/m² 12,8 °C 14,3 °C 1,6 km/h (1 Bft)
15.08.2018 00:48 14,2 °C 91 % 1017,2 hPa 0,0 mm 0,0 km/h (0 Bft) S-SO 165 ° 0 min 0,000 mm 0,0 UV-I 0 W/m² 12,8 °C 14,2 °C 0,0 km/h (0 Bft)
15.08.2018 00:49 14,2 °C 91 % 1017,2 hPa 0,0 mm 1,7 km/h (1 Bft) S-SO 165 ° 0 min 0,000 mm 0,0 UV-I 0 W/m² 12,8 °C 14,2 °C 3,2 km/h (1 Bft)
15.08.2018 00:50 14,2 °C 91 % 1017,2 hPa 0,0 mm 0,1 km/h (0 Bft) S-SO 165 ° 0 min 0,000 mm 0,0 UV-I 0 W/m² 12,8 °C 14,2 °C 1,6 km/h (1 Bft)
15.08.2018 00:51 14,2 °C 91 % 1017,3 hPa 0,0 mm 0,0 km/h (0 Bft) S-SO 165 ° 0 min 0,000 mm 0,0 UV-I 0 W/m² 12,8 °C 14,2 °C 0,0 km/h (0 Bft)
15.08.2018 00:52 14,1 °C 91 % 1017,3 hPa 0,0 mm 0,0 km/h (0 Bft) S-SO 165 ° 0 min 0,000 mm 0,0 UV-I 0 W/m² 12,7 °C 14,1 °C 0,0 km/h (0 Bft)
15.08.2018 00:53 14,1 °C 92 % 1017,2 hPa 0,0 mm 0,0 km/h (0 Bft) S-SO 165 ° 0 min 0,000 mm 0,0 UV-I 0 W/m² 12,8 °C 14,1 °C 0,0 km/h (0 Bft)
15.08.2018 00:54 14,1 °C 92 % 1017,3 hPa 0,0 mm 0,4 km/h (0 Bft) S-SO 165 ° 0 min 0,000 mm 0,0 UV-I 0 W/m² 12,8 °C 14,1 °C 1,6 km/h (1 Bft)
15.08.2018 00:55 14,1 °C 91 % 1017,3 hPa 0,0 mm 0,0 km/h (0 Bft) S-SO 165 ° 0 min 0,000 mm 0,0 UV-I 0 W/m² 12,7 °C 14,1 °C 0,0 km/h (0 Bft)
15.08.2018 00:56 14,1 °C 91 % 1017,2 hPa 0,0 mm 0,0 km/h (0 Bft) S-SO 165 ° 0 min 0,000 mm 0,0 UV-I 0 W/m² 12,7 °C 14,1 °C 0,0 km/h (0 Bft)
15.08.2018 00:57 14,0 °C 91 % 1017,2 hPa 0,0 mm 1,7 km/h (1 Bft) S 190 ° 0 min 0,000 mm 0,0 UV-I 0 W/m² 12,6 °C 14,0 °C 6,4 km/h (2 Bft)
15.08.2018 00:58 14,0 °C 92 % 1017,2 hPa 0,0 mm 2,8 km/h (1 Bft) S 190 ° 0 min 0,000 mm 0,0 UV-I 0 W/m² 12,7 °C 14,0 °C 4,8 km/h (1 Bft)
15.08.2018 00:59 14,0 °C 92 % 1017,2 hPa 0,0 mm 0,3 km/h (0 Bft) S 190 ° 0 min 0,000 mm 0,0 UV-I 0 W/m² 12,7 °C 14,0 °C 1,6 km/h (1 Bft)
15.08.2018 01:00 14,0 °C 92 % 1017,2 hPa 0,0 mm 0,0 km/h (0 Bft) S 190 ° 0 min 0,000 mm 0,0 UV-I 0 W/m² 12,7 °C 14,0 °C 0,0 km/h (0 Bft)
15.08.2018 01:01 13,9 °C 92 % 1017,2 hPa 0,0 mm 0,0 km/h (0 Bft) S 190 ° 0 min 0,000 mm 0,0 UV-I 0 W/m² 12,6 °C 13,9 °C 0,0 km/h (0 Bft)
15.08.2018 01:02 13,9 °C 92 % 1017,2 hPa 0,0 mm 0,0 km/h (0 Bft) S 190 ° 0 min 0,000 mm 0,0 UV-I 0 W/m² 12,6 °C 13,9 °C 0,0 km/h (0 Bft)
15.08.2018 01:03 13,9 °C 92 % 1017,2 hPa 0,0 mm 0,0 km/h (0 Bft) S 190 ° 0 min 0,000 mm 0,0 UV-I 0 W/m² 12,6 °C 13,9 °C 0,0 km/h (0 Bft)
15.08.2018 01:04 13,9 °C 92 % 1017,2 hPa 0,0 mm 0,0 km/h (0 Bft) S 190 ° 0 min 0,000 mm 0,0 UV-I 0 W/m² 12,6 °C 13,9 °C 0,0 km/h (0 Bft)
15.08.2018 01:05 13,8 °C 92 % 1017,2 hPa 0,0 mm 0,0 km/h (0 Bft) S 190 ° 0 min 0,000 mm 0,0 UV-I 0 W/m² 12,5 °C 13,8 °C 0,0 km/h (0 Bft)
15.08.2018 01:06 13,8 °C 92 % 1017,2 hPa 0,0 mm 2,2 km/h (1 Bft) S 190 ° 0 min 0,000 mm 0,0 UV-I 0 W/m² 12,5 °C 13,8 °C 4,8 km/h (1 Bft)
15.08.2018 01:07 13,8 °C 92 % 1017,2 hPa 0,0 mm 2,4 km/h (1 Bft) S 190 ° 0 min 0,000 mm 0,0 UV-I 0 W/m² 12,5 °C 13,8 °C 3,2 km/h (1 Bft)
15.08.2018 01:08 13,8 °C 92 % 1017,2 hPa 0,0 mm 2,3 km/h (1 Bft) S 190 ° 0 min 0,000 mm 0,0 UV-I 0 W/m² 12,5 °C 13,8 °C 3,2 km/h (1 Bft)
15.08.2018 01:09 13,8 °C 92 % 1017,2 hPa 0,0 mm 0,3 km/h (0 Bft) S 190 ° 0 min 0,000 mm 0,0 UV-I 0 W/m² 12,5 °C 13,8 °C 1,6 km/h (1 Bft)
15.08.2018 01:10 13,8 °C 92 % 1017,2 hPa 0,0 mm 0,0 km/h (0 Bft) S 190 ° 0 min 0,000 mm 0,0 UV-I 0 W/m² 12,5 °C 13,8 °C 0,0 km/h (0 Bft)
15.08.2018 01:11 13,7 °C 92 % 1017,2 hPa 0,0 mm 0,1 km/h (0 Bft) S 190 ° 0 min 0,000 mm 0,0 UV-I 0 W/m² 12,4 °C 13,7 °C 1,6 km/h (1 Bft)
15.08.2018 01:12 13,7 °C 92 % 1017,2 hPa 0,0 mm 2,6 km/h (1 Bft) S 190 ° 0 min 0,000 mm 0,0 UV-I 0 W/m² 12,4 °C 13,7 °C 4,8 km/h (1 Bft)
15.08.2018 01:13 13,7 °C 92 % 1017,2 hPa 0,0 mm 1,9 km/h (1 Bft) S 190 ° 0 min 0,000 mm 0,0 UV-I 0 W/m² 12,4 °C 13,7 °C 3,2 km/h (1 Bft)
15.08.2018 01:14 13,7 °C 92 % 1017,2 hPa 0,0 mm 2,7 km/h (1 Bft) S 189 ° 0 min 0,000 mm 0,0 UV-I 0 W/m² 12,4 °C 13,7 °C 4,8 km/h (1 Bft)
15.08.2018 01:15 13,7 °C 92 % 1017,2 hPa 0,0 mm 2,4 km/h (1 Bft) S 189 ° 0 min 0,000 mm 0,0 UV-I 0 W/m² 12,4 °C 13,7 °C 3,2 km/h (1 Bft)
15.08.2018 01:16 13,7 °C 92 % 1017,2 hPa 0,0 mm 2,5 km/h (1 Bft) S 189 ° 0 min 0,000 mm 0,0 UV-I 0 W/m² 12,4 °C 13,7 °C 4,8 km/h (1 Bft)
15.08.2018 01:17 13,7 °C 92 % 1017,2 hPa 0,0 mm 2,2 km/h (1 Bft) S 189 ° 0 min 0,000 mm 0,0 UV-I 0 W/m² 12,4 °C 13,7 °C 4,8 km/h (1 Bft)
15.08.2018 01:18 13,7 °C 92 % 1017,2 hPa 0,0 mm 2,0 km/h (1 Bft) S 189 ° 0 min 0,000 mm 0,0 UV-I 0 W/m² 12,4 °C 13,7 °C 3,2 km/h (1 Bft)
15.08.2018 01:19 13,7 °C 92 % 1017,2 hPa 0,0 mm 1,6 km/h (1 Bft) S 189 ° 0 min 0,000 mm 0,0 UV-I 0 W/m² 12,4 °C 13,7 °C 3,2 km/h (1 Bft)
15.08.2018 01:20 13,7 °C 92 % 1017,2 hPa 0,0 mm 4,5 km/h (1 Bft) S 188 ° 0 min 0,000 mm 0,0 UV-I 0 W/m² 12,4 °C 13,7 °C 8,0 km/h (2 Bft)
15.08.2018 01:21 13,6 °C 92 % 1017,3 hPa 0,0 mm 2,0 km/h (1 Bft) S 188 ° 0 min 0,000 mm 0,0 UV-I 0 W/m² 12,3 °C 13,6 °C 4,8 km/h (1 Bft)
15.08.2018 01:22 13,7 °C 92 % 1017,2 hPa 0,0 mm 0,0 km/h (0 Bft) S 188 ° 0 min 0,000 mm 0,0 UV-I 0 W/m² 12,4 °C 13,7 °C 0,0 km/h (0 Bft)
15.08.2018 01:23 13,7 °C 92 % 1017,3 hPa 0,0 mm 1,4 km/h (1 Bft) S 188 ° 0 min 0,000 mm 0,0 UV-I 0 W/m² 12,4 °C 13,7 °C 4,8 km/h (1 Bft)
15.08.2018 01:24 13,7 °C 92 % 1017,3 hPa 0,0 mm 1,0 km/h (0 Bft) S 188 ° 0 min 0,000 mm 0,0 UV-I 0 W/m² 12,4 °C 13,7 °C 1,6 km/h (1 Bft)
15.08.2018 01:25 13,7 °C 92 % 1017,3 hPa 0,0 mm 0,0 km/h (0 Bft) S 188 ° 0 min 0,000 mm 0,0 UV-I 0 W/m² 12,4 °C 13,7 °C 0,0 km/h (0 Bft)
15.08.2018 01:26 13,7 °C 92 % 1017,3 hPa 0,0 mm 0,0 km/h (0 Bft) S 188 ° 0 min 0,000 mm 0,0 UV-I 0 W/m² 12,4 °C 13,7 °C 0,0 km/h (0 Bft)
15.08.2018 01:27 13,7 °C 92 % 1017,3 hPa 0,0 mm 0,0 km/h (0 Bft) S 188 ° 0 min 0,000 mm 0,0 UV-I 0 W/m² 12,4 °C 13,7 °C 0,0 km/h (0 Bft)
15.08.2018 01:28 13,7 °C 92 % 1017,3 hPa 0,0 mm 0,0 km/h (0 Bft) S 188 ° 0 min 0,000 mm 0,0 UV-I 0 W/m² 12,4 °C 13,7 °C 0,0 km/h (0 Bft)
15.08.2018 01:29 13,7 °C 92 % 1017,3 hPa 0,0 mm 0,0 km/h (0 Bft) S 188 ° 0 min 0,000 mm 0,0 UV-I 0 W/m² 12,4 °C 13,7 °C 0,0 km/h (0 Bft)
15.08.2018 01:30 13,7 °C 92 % 1017,3 hPa 0,0 mm 0,0 km/h (0 Bft) S 188 ° 0 min 0,000 mm 0,0 UV-I 0 W/m² 12,4 °C 13,7 °C 0,0 km/h (0 Bft)
15.08.2018 01:31 13,7 °C 92 % 1017,3 hPa 0,0 mm 0,0 km/h (0 Bft) S 188 ° 0 min 0,000 mm 0,0 UV-I 0 W/m² 12,4 °C 13,7 °C 0,0 km/h (0 Bft)
15.08.2018 01:32 13,7 °C 92 % 1017,3 hPa 0,0 mm 0,0 km/h (0 Bft) S 188 ° 0 min 0,000 mm 0,0 UV-I 0 W/m² 12,4 °C 13,7 °C 0,0 km/h (0 Bft)
15.08.2018 01:33 13,8 °C 92 % 1017,3 hPa 0,0 mm 1,9 km/h (1 Bft) S 188 ° 0 min 0,000 mm 0,0 UV-I 0 W/m² 12,5 °C 13,8 °C 4,8 km/h (1 Bft)
15.08.2018 01:34 13,8 °C 92 % 1017,3 hPa 0,0 mm 2,0 km/h (1 Bft) S 188 ° 0 min 0,000 mm 0,0 UV-I 0 W/m² 12,5 °C 13,8 °C 3,2 km/h (1 Bft)
15.08.2018 01:35 13,8 °C 92 % 1017,3 hPa 0,0 mm 2,1 km/h (1 Bft) S 188 ° 0 min 0,000 mm 0,0 UV-I 0 W/m² 12,5 °C 13,8 °C 3,2 km/h (1 Bft)
15.08.2018 01:36 13,8 °C 92 % 1017,3 hPa 0,0 mm 0,1 km/h (0 Bft) S 188 ° 0 min 0,000 mm 0,0 UV-I 0 W/m² 12,5 °C 13,8 °C 1,6 km/h (1 Bft)
15.08.2018 01:37 13,8 °C 92 % 1017,3 hPa 0,0 mm 0,0 km/h (0 Bft) S 188 ° 0 min 0,000 mm 0,0 UV-I 0 W/m² 12,5 °C 13,8 °C 0,0 km/h (0 Bft)
15.08.2018 01:38 13,9 °C 92 % 1017,3 hPa 0,0 mm 0,0 km/h (0 Bft) S 188 ° 0 min 0,000 mm 0,0 UV-I 0 W/m² 12,6 °C 13,9 °C 0,0 km/h (0 Bft)
15.08.2018 01:39 13,9 °C 92 % 1017,3 hPa 0,0 mm 0,1 km/h (0 Bft) S 188 ° 0 min 0,000 mm 0,0 UV-I 0 W/m² 12,6 °C 13,9 °C 1,6 km/h (1 Bft)
15.08.2018 01:40 13,9 °C 92 % 1017,3 hPa 0,0 mm 0,7 km/h (0 Bft) S 188 ° 0 min 0,000 mm 0,0 UV-I 0 W/m² 12,6 °C 13,9 °C 3,2 km/h (1 Bft)
15.08.2018 01:41 13,9 °C 92 % 1017,3 hPa 0,0 mm 1,4 km/h (1 Bft) S 188 ° 0 min 0,000 mm 0,0 UV-I 0 W/m² 12,6 °C 13,9 °C 3,2 km/h (1 Bft)
15.08.2018 01:42 13,9 °C 92 % 1017,3 hPa 0,0 mm 1,0 km/h (0 Bft) S-SO 149 ° 0 min 0,000 mm 0,0 UV-I 0 W/m² 12,6 °C 13,9 °C 3,2 km/h (1 Bft)
15.08.2018 01:43 14,0 °C 92 % 1017,2 hPa 0,0 mm 1,3 km/h (1 Bft) S-SO 150 ° 0 min 0,000 mm 0,0 UV-I 0 W/m² 12,7 °C 14,0 °C 3,2 km/h (1 Bft)
15.08.2018 01:44 13,9 °C 92 % 1017,2 hPa 0,0 mm 1,2 km/h (1 Bft) S 182 ° 0 min 0,000 mm 0,0 UV-I 0 W/m² 12,6 °C 13,9 °C 4,8 km/h (1 Bft)
15.08.2018 01:45 14,0 °C 92 % 1017,2 hPa 0,0 mm 2,2 km/h (1 Bft) S 184 ° 0 min 0,000 mm 0,0 UV-I 0 W/m² 12,7 °C 14,0 °C 4,8 km/h (1 Bft)
15.08.2018 01:46 14,0 °C 92 % 1017,2 hPa 0,0 mm 2,3 km/h (1 Bft) S 191 ° 0 min 0,000 mm 0,0 UV-I 0 W/m² 12,7 °C 14,0 °C 6,4 km/h (2 Bft)
15.08.2018 01:47 14,1 °C 92 % 1017,2 hPa 0,0 mm 2,8 km/h (1 Bft) S-SW 193 ° 0 min 0,000 mm 0,0 UV-I 0 W/m² 12,8 °C 14,1 °C 6,4 km/h (2 Bft)
15.08.2018 01:48 14,1 °C 91 % 1017,2 hPa 0,0 mm 3,6 km/h (1 Bft) S 187 ° 0 min 0,000 mm 0,0 UV-I 0 W/m² 12,7 °C 14,1 °C 6,4 km/h (2 Bft)
15.08.2018 01:49 14,1 °C 91 % 1017,2 hPa 0,0 mm 2,7 km/h (1 Bft) S-SW 199 ° 0 min 0,000 mm 0,0 UV-I 0 W/m² 12,7 °C 14,1 °C 6,4 km/h (2 Bft)
15.08.2018 01:50 14,1 °C 91 % 1017,3 hPa 0,0 mm 0,1 km/h (0 Bft) S-SW 199 ° 0 min 0,000 mm 0,0 UV-I 0 W/m² 12,7 °C 14,1 °C 1,6 km/h (1 Bft)
15.08.2018 01:51 14,2 °C 91 % 1017,3 hPa 0,0 mm 2,9 km/h (1 Bft) S-SW 199 ° 0 min 0,000 mm 0,0 UV-I 0 W/m² 12,8 °C 14,2 °C 4,8 km/h (1 Bft)
15.08.2018 01:52 14,2 °C 91 % 1017,3 hPa 0,0 mm 3,1 km/h (1 Bft) S-SW 199 ° 0 min 0,000 mm 0,0 UV-I 0 W/m² 12,8 °C 14,2 °C 4,8 km/h (1 Bft)
15.08.2018 01:53 14,2 °C 91 % 1017,3 hPa 0,0 mm 1,1 km/h (1 Bft) S-SW 199 ° 0 min 0,000 mm 0,0 UV-I 0 W/m² 12,8 °C 14,2 °C 3,2 km/h (1 Bft)
15.08.2018 01:54 14,2 °C 91 % 1017,3 hPa 0,0 mm 4,2 km/h (1 Bft) S-SW 198 ° 0 min 0,000 mm 0,0 UV-I 0 W/m² 12,8 °C 14,2 °C 6,4 km/h (2 Bft)
15.08.2018 01:55 14,2 °C 90 % 1017,3 hPa 0,0 mm 5,7 km/h (1 Bft) S-SW 207 ° 0 min 0,000 mm 0,0 UV-I 0 W/m² 12,6 °C 14,2 °C 8,0 km/h (2 Bft)
15.08.2018 01:56 14,2 °C 90 % 1017,3 hPa 0,0 mm 3,5 km/h (1 Bft) S-SW 207 ° 0 min 0,000 mm 0,0 UV-I 0 W/m² 12,6 °C 14,2 °C 6,4 km/h (2 Bft)
15.08.2018 01:57 14,2 °C 90 % 1017,3 hPa 0,0 mm 1,4 km/h (1 Bft) S-SW 207 ° 0 min 0,000 mm 0,0 UV-I 0 W/m² 12,6 °C 14,2 °C 4,8 km/h (1 Bft)
15.08.2018 01:58 14,2 °C 91 % 1017,3 hPa 0,0 mm 0,0 km/h (0 Bft) S-SW 207 ° 0 min 0,000 mm 0,0 UV-I 0 W/m² 12,8 °C 14,2 °C 0,0 km/h (0 Bft)
15.08.2018 01:59 14,2 °C 90 % 1017,3 hPa 0,0 mm 3,4 km/h (1 Bft) S-SW 205 ° 0 min 0,000 mm 0,0 UV-I 0 W/m² 12,6 °C 14,2 °C 6,4 km/h (2 Bft)
15.08.2018 02:00 14,2 °C 90 % 1017,3 hPa 0,0 mm 3,3 km/h (1 Bft) S-SW 205 ° 0 min 0,000 mm 0,0 UV-I 0 W/m² 12,6 °C 14,2 °C 4,8 km/h (1 Bft)
15.08.2018 02:01 14,2 °C 91 % 1017,3 hPa 0,0 mm 0,8 km/h (0 Bft) S-SW 205 ° 0 min 0,000 mm 0,0 UV-I 0 W/m² 12,8 °C 14,2 °C 1,6 km/h (1 Bft)
15.08.2018 02:02 14,2 °C 91 % 1017,3 hPa 0,0 mm 2,0 km/h (1 Bft) S-SW 205 ° 0 min 0,000 mm 0,0 UV-I 0 W/m² 12,8 °C 14,2 °C 4,8 km/h (1 Bft)
15.08.2018 02:03 14,2 °C 90 % 1017,3 hPa 0,0 mm 0,5 km/h (0 Bft) S-SW 205 ° 0 min 0,000 mm 0,0 UV-I 0 W/m² 12,6 °C 14,2 °C 1,6 km/h (1 Bft)
15.08.2018 02:04 14,2 °C 90 % 1017,3 hPa 0,0 mm 3,7 km/h (1 Bft) S-SW 200 ° 0 min 0,000 mm 0,0 UV-I 0 W/m² 12,6 °C 14,2 °C 6,4 km/h (2 Bft)
15.08.2018 02:05 14,2 °C 90 % 1017,3 hPa 0,0 mm 5,1 km/h (1 Bft) S-SW 194 ° 0 min 0,000 mm 0,0 UV-I 0 W/m² 12,6 °C 14,2 °C 8,0 km/h (2 Bft)
15.08.2018 02:06 14,2 °C 90 % 1017,3 hPa 0,0 mm 1,9 km/h (1 Bft) S 186 ° 0 min 0,000 mm 0,0 UV-I 0 W/m² 12,6 °C 14,2 °C 4,8 km/h (1 Bft)
15.08.2018 02:07 14,3 °C 90 % 1017,3 hPa 0,0 mm 2,1 km/h (1 Bft) S 186 ° 0 min 0,000 mm 0,0 UV-I 0 W/m² 12,7 °C 14,3 °C 3,2 km/h (1 Bft)
15.08.2018 02:08 14,3 °C 90 % 1017,3 hPa 0,0 mm 0,1 km/h (0 Bft) S 186 ° 0 min 0,000 mm 0,0 UV-I 0 W/m² 12,7 °C 14,3 °C 1,6 km/h (1 Bft)
15.08.2018 02:09 14,2 °C 91 % 1017,3 hPa 0,0 mm 0,9 km/h (0 Bft) S 186 ° 0 min 0,000 mm 0,0 UV-I 0 W/m² 12,8 °C 14,2 °C 1,6 km/h (1 Bft)
15.08.2018 02:10 14,2 °C 91 % 1017,3 hPa 0,0 mm 0,3 km/h (0 Bft) S 186 ° 0 min 0,000 mm 0,0 UV-I 0 W/m² 12,8 °C 14,2 °C 1,6 km/h (1 Bft)
15.08.2018 02:11 14,2 °C 91 % 1017,3 hPa 0,0 mm 0,0 km/h (0 Bft) S 186 ° 0 min 0,000 mm 0,0 UV-I 0 W/m² 12,8 °C 14,2 °C 0,0 km/h (0 Bft)
15.08.2018 02:12 14,2 °C 91 % 1017,3 hPa 0,0 mm 0,0 km/h (0 Bft) S 186 ° 0 min 0,000 mm 0,0 UV-I 0 W/m² 12,8 °C 14,2 °C 0,0 km/h (0 Bft)
15.08.2018 02:13 14,2 °C 91 % 1017,3 hPa 0,0 mm 0,8 km/h (0 Bft) S 186 ° 0 min 0,000 mm 0,0 UV-I 0 W/m² 12,8 °C 14,2 °C 3,2 km/h (1 Bft)
15.08.2018 02:14 14,2 °C 91 % 1017,3 hPa 0,0 mm 0,7 km/h (0 Bft) S 186 ° 0 min 0,000 mm 0,0 UV-I 0 W/m² 12,8 °C 14,2 °C 1,6 km/h (1 Bft)
15.08.2018 02:15 14,2 °C 91 % 1017,3 hPa 0,0 mm 1,5 km/h (1 Bft) S 186 ° 0 min 0,000 mm 0,0 UV-I 0 W/m² 12,8 °C 14,2 °C 3,2 km/h (1 Bft)
15.08.2018 02:16 14,2 °C 91 % 1017,3 hPa 0,0 mm 1,3 km/h (1 Bft) S 186 ° 0 min 0,000 mm 0,0 UV-I 0 W/m² 12,8 °C 14,2 °C 3,2 km/h (1 Bft)
15.08.2018 02:17 14,2 °C 91 % 1017,3 hPa 0,0 mm 0,1 km/h (0 Bft) S 186 ° 0 min 0,000 mm 0,0 UV-I 0 W/m² 12,8 °C 14,2 °C 1,6 km/h (1 Bft)
15.08.2018 02:18 14,2 °C 91 % 1017,3 hPa 0,0 mm 0,9 km/h (0 Bft) S 186 ° 0 min 0,000 mm 0,0 UV-I 0 W/m² 12,8 °C 14,2 °C 1,6 km/h (1 Bft)
15.08.2018 02:19 14,2 °C 91 % 1017,3 hPa 0,0 mm 0,9 km/h (0 Bft) S 186 ° 0 min 0,000 mm 0,0 UV-I 0 W/m² 12,8 °C 14,2 °C 1,6 km/h (1 Bft)
15.08.2018 02:20 14,2 °C 91 % 1017,3 hPa 0,0 mm 1,0 km/h (0 Bft) S 186 ° 0 min 0,000 mm 0,0 UV-I 0 W/m² 12,8 °C 14,2 °C 3,2 km/h (1 Bft)
15.08.2018 02:21 14,3 °C 91 % 1017,4 hPa 0,0 mm 4,9 km/h (1 Bft) S-SW 192 ° 0 min 0,000 mm 0,0 UV-I 0 W/m² 12,8 °C 14,3 °C 6,4 km/h (2 Bft)
15.08.2018 02:22 14,2 °C 91 % 1017,4 hPa 0,0 mm 3,5 km/h (1 Bft) S 190 ° 0 min 0,000 mm 0,0 UV-I 0 W/m² 12,8 °C 14,2 °C 4,8 km/h (1 Bft)
15.08.2018 02:23 14,3 °C 90 % 1017,4 hPa 0,0 mm 2,3 km/h (1 Bft) S 190 ° 0 min 0,000 mm 0,0 UV-I 0 W/m² 12,7 °C 14,3 °C 4,8 km/h (1 Bft)
15.08.2018 02:24 14,3 °C 91 % 1017,4 hPa 0,0 mm 1,1 km/h (1 Bft) S 190 ° 0 min 0,000 mm 0,0 UV-I 0 W/m² 12,8 °C 14,3 °C 3,2 km/h (1 Bft)
15.08.2018 02:25 14,3 °C 90 % 1017,4 hPa 0,0 mm 1,6 km/h (1 Bft) S 190 ° 0 min 0,000 mm 0,0 UV-I 0 W/m² 12,7 °C 14,3 °C 3,2 km/h (1 Bft)
15.08.2018 02:26 14,3 °C 90 % 1017,5 hPa 0,0 mm 3,3 km/h (1 Bft) S 190 ° 0 min 0,000 mm 0,0 UV-I 0 W/m² 12,7 °C 14,3 °C 6,4 km/h (2 Bft)
15.08.2018 02:27 14,3 °C 91 % 1017,4 hPa 0,0 mm 4,8 km/h (1 Bft) S-SW 199 ° 0 min 0,000 mm 0,0 UV-I 0 W/m² 12,8 °C 14,3 °C 6,4 km/h (2 Bft)
15.08.2018 02:28 14,4 °C 91 % 1017,4 hPa 0,0 mm 3,6 km/h (1 Bft) S-SW 199 ° 0 min 0,000 mm 0,0 UV-I 0 W/m² 12,9 °C 14,4 °C 4,8 km/h (1 Bft)
15.08.2018 02:29 14,4 °C 90 % 1017,3 hPa 0,0 mm 4,0 km/h (1 Bft) S-SW 199 ° 0 min 0,000 mm 0,0 UV-I 0 W/m² 12,8 °C 14,4 °C 8,0 km/h (2 Bft)
15.08.2018 02:30 14,4 °C 90 % 1017,4 hPa 0,0 mm 4,8 km/h (1 Bft) S-SW 196 ° 0 min 0,000 mm 0,0 UV-I 0 W/m² 12,8 °C 14,4 °C 8,0 km/h (2 Bft)
15.08.2018 02:31 14,4 °C 90 % 1017,3 hPa 0,0 mm 3,2 km/h (1 Bft) S-SW 200 ° 0 min 0,000 mm 0,0 UV-I 0 W/m² 12,8 °C 14,4 °C 4,8 km/h (1 Bft)
15.08.2018 02:32 14,4 °C 90 % 1017,3 hPa 0,0 mm 3,6 km/h (1 Bft) S-SW 200 ° 0 min 0,000 mm 0,0 UV-I 0 W/m² 12,8 °C 14,4 °C 4,8 km/h (1 Bft)
15.08.2018 02:33 14,4 °C 90 % 1017,4 hPa 0,0 mm 5,9 km/h (2 Bft) S 183 ° 0 min 0,000 mm 0,0 UV-I 0 W/m² 12,8 °C 14,4 °C 8,0 km/h (2 Bft)
15.08.2018 02:34 14,4 °C 90 % 1017,4 hPa 0,0 mm 5,3 km/h (1 Bft) S-SW 200 ° 0 min 0,000 mm 0,0 UV-I 0 W/m² 12,8 °C 14,4 °C 8,0 km/h (2 Bft)
15.08.2018 02:35 14,5 °C 90 % 1017,4 hPa 0,0 mm 2,5 km/h (1 Bft) S-SW 200 ° 0 min 0,000 mm 0,0 UV-I 0 W/m² 12,9 °C 14,5 °C 4,8 km/h (1 Bft)
15.08.2018 02:36 14,5 °C 90 % 1017,3 hPa 0,0 mm 3,4 km/h (1 Bft) S-SW 208 ° 0 min 0,000 mm 0,0 UV-I 0 W/m² 12,9 °C 14,5 °C 4,8 km/h (1 Bft)
15.08.2018 02:37 14,5 °C 90 % 1017,4 hPa 0,0 mm 3,6 km/h (1 Bft) S-SW 206 ° 0 min 0,000 mm 0,0 UV-I 0 W/m² 12,9 °C 14,5 °C 4,8 km/h (1 Bft)
15.08.2018 02:38 14,5 °C 90 % 1017,4 hPa 0,0 mm 0,6 km/h (0 Bft) S-SW 206 ° 0 min 0,000 mm 0,0 UV-I 0 W/m² 12,9 °C 14,5 °C 3,2 km/h (1 Bft)
15.08.2018 02:39 14,5 °C 90 % 1017,4 hPa 0,0 mm 0,6 km/h (0 Bft) S-SW 206 ° 0 min 0,000 mm 0,0 UV-I 0 W/m² 12,9 °C 14,5 °C 1,6 km/h (1 Bft)
15.08.2018 02:40 14,5 °C 90 % 1017,4 hPa 0,0 mm 2,3 km/h (1 Bft) S-SW 206 ° 0 min 0,000 mm 0,0 UV-I 0 W/m² 12,9 °C 14,5 °C 4,8 km/h (1 Bft)
15.08.2018 02:41 14,4 °C 90 % 1017,4 hPa 0,0 mm 1,0 km/h (0 Bft) S-SW 206 ° 0 min 0,000 mm 0,0 UV-I 0 W/m² 12,8 °C 14,4 °C 4,8 km/h (1 Bft)
15.08.2018 02:42 14,4 °C 90 % 1017,4 hPa 0,0 mm 4,2 km/h (1 Bft) S 190 ° 0 min 0,000 mm 0,0 UV-I 0 W/m² 12,8 °C 14,4 °C 6,4 km/h (2 Bft)
15.08.2018 02:43 14,4 °C 90 % 1017,4 hPa 0,0 mm 0,6 km/h (0 Bft) S 190 ° 0 min 0,000 mm 0,0 UV-I 0 W/m² 12,8 °C 14,4 °C 3,2 km/h (1 Bft)
15.08.2018 02:44 14,4 °C 90 % 1017,3 hPa 0,0 mm 5,0 km/h (1 Bft) S-SW 197 ° 0 min 0,000 mm 0,0 UV-I 0 W/m² 12,8 °C 14,4 °C 8,0 km/h (2 Bft)
15.08.2018 02:45 14,5 °C 90 % 1017,3 hPa 0,0 mm 3,5 km/h (1 Bft) S-SW 197 ° 0 min 0,000 mm 0,0 UV-I 0 W/m² 12,9 °C 14,5 °C 6,4 km/h (2 Bft)
15.08.2018 02:46 14,4 °C 90 % 1017,4 hPa 0,0 mm 0,3 km/h (0 Bft) S-SW 197 ° 0 min 0,000 mm 0,0 UV-I 0 W/m² 12,8 °C 14,4 °C 1,6 km/h (1 Bft)
15.08.2018 02:47 14,5 °C 90 % 1017,3 hPa 0,0 mm 1,9 km/h (1 Bft) S-SW 197 ° 0 min 0,000 mm 0,0 UV-I 0 W/m² 12,9 °C 14,5 °C 4,8 km/h (1 Bft)
15.08.2018 02:48 14,6 °C 90 % 1017,3 hPa 0,0 mm 2,2 km/h (1 Bft) S-SW 197 ° 0 min 0,000 mm 0,0 UV-I 0 W/m² 13,0 °C 14,6 °C 4,8 km/h (1 Bft)
15.08.2018 02:49 14,6 °C 90 % 1017,4 hPa 0,0 mm 0,0 km/h (0 Bft) S-SW 197 ° 0 min 0,000 mm 0,0 UV-I 0 W/m² 13,0 °C 14,6 °C 0,0 km/h (0 Bft)
15.08.2018 02:50 14,5 °C 90 % 1017,4 hPa 0,0 mm 1,1 km/h (1 Bft) S-SW 197 ° 0 min 0,000 mm 0,0 UV-I 0 W/m² 12,9 °C 14,5 °C 3,2 km/h (1 Bft)
15.08.2018 02:51 14,5 °C 90 % 1017,3 hPa 0,0 mm 1,6 km/h (1 Bft) S-SW 197 ° 0 min 0,000 mm 0,0 UV-I 0 W/m² 12,9 °C 14,5 °C 4,8 km/h (1 Bft)
15.08.2018 02:52 14,6 °C 90 % 1017,3 hPa 0,0 mm 0,9 km/h (0 Bft) S-SW 197 ° 0 min 0,000 mm 0,0 UV-I 0 W/m² 13,0 °C 14,6 °C 3,2 km/h (1 Bft)
15.08.2018 02:53 14,5 °C 90 % 1017,3 hPa 0,0 mm 0,5 km/h (0 Bft) S-SW 197 ° 0 min 0,000 mm 0,0 UV-I 0 W/m² 12,9 °C 14,5 °C 1,6 km/h (1 Bft)
15.08.2018 02:54 14,6 °C 89 % 1017,3 hPa 0,0 mm 0,9 km/h (0 Bft) S-SW 197 ° 0 min 0,000 mm 0,0 UV-I 0 W/m² 12,8 °C 14,6 °C 3,2 km/h (1 Bft)
15.08.2018 02:55 14,6 °C 89 % 1017,4 hPa 0,0 mm 0,1 km/h (0 Bft) S-SW 197 ° 0 min 0,000 mm 0,0 UV-I 0 W/m² 12,8 °C 14,6 °C 1,6 km/h (1 Bft)
15.08.2018 02:56 14,6 °C 89 % 1017,4 hPa 0,0 mm 1,5 km/h (1 Bft) S-SW 197 ° 0 min 0,000 mm 0,0 UV-I 0 W/m² 12,8 °C 14,6 °C 3,2 km/h (1 Bft)
15.08.2018 02:57 14,6 °C 90 % 1017,4 hPa 0,0 mm 0,0 km/h (0 Bft) S-SW 197 ° 0 min 0,000 mm 0,0 UV-I 0 W/m² 13,0 °C 14,6 °C 0,0 km/h (0 Bft)
15.08.2018 02:58 14,5 °C 90 % 1017,4 hPa 0,0 mm 0,3 km/h (0 Bft) S-SW 197 ° 0 min 0,000 mm 0,0 UV-I 0 W/m² 12,9 °C 14,5 °C 1,6 km/h (1 Bft)
15.08.2018 02:59 14,5 °C 90 % 1017,4 hPa 0,0 mm 0,1 km/h (0 Bft) S-SW 197 ° 0 min 0,000 mm 0,0 UV-I 0 W/m² 12,9 °C 14,5 °C 1,6 km/h (1 Bft)
15.08.2018 03:00 14,4 °C 90 % 1017,4 hPa 0,0 mm 0,0 km/h (0 Bft) S-SW 197 ° 0 min 0,000 mm 0,0 UV-I 0 W/m² 12,8 °C 14,4 °C 0,0 km/h (0 Bft)
15.08.2018 03:01 14,4 °C 90 % 1017,4 hPa 0,0 mm 0,0 km/h (0 Bft) S-SW 197 ° 0 min 0,000 mm 0,0 UV-I 0 W/m² 12,8 °C 14,4 °C 0,0 km/h (0 Bft)
15.08.2018 03:02 14,4 °C 90 % 1017,3 hPa 0,0 mm 0,0 km/h (0 Bft) S-SW 197 ° 0 min 0,000 mm 0,0 UV-I 0 W/m² 12,8 °C 14,4 °C 0,0 km/h (0 Bft)
15.08.2018 03:03 14,4 °C 90 % 1017,4 hPa 0,0 mm 0,0 km/h (0 Bft) S-SW 197 ° 0 min 0,000 mm 0,0 UV-I 0 W/m² 12,8 °C 14,4 °C 0,0 km/h (0 Bft)
15.08.2018 03:04 14,4 °C 90 % 1017,4 hPa 0,0 mm 0,0 km/h (0 Bft) S-SW 197 ° 0 min 0,000 mm 0,0 UV-I 0 W/m² 12,8 °C 14,4 °C 0,0 km/h (0 Bft)
15.08.2018 03:05 14,4 °C 90 % 1017,5 hPa 0,0 mm 0,0 km/h (0 Bft) S-SW 197 ° 0 min 0,000 mm 0,0 UV-I 0 W/m² 12,8 °C 14,4 °C 0,0 km/h (0 Bft)
15.08.2018 03:06 14,4 °C 90 % 1017,5 hPa 0,0 mm 0,0 km/h (0 Bft) S-SW 197 ° 0 min 0,000 mm 0,0 UV-I 0 W/m² 12,8 °C 14,4 °C 0,0 km/h (0 Bft)
15.08.2018 03:07 14,4 °C 90 % 1017,4 hPa 0,0 mm 0,0 km/h (0 Bft) S-SW 197 ° 0 min 0,000 mm 0,0 UV-I 0 W/m² 12,8 °C 14,4 °C 0,0 km/h (0 Bft)
15.08.2018 03:08 14,4 °C 90 % 1017,4 hPa 0,0 mm 0,0 km/h (0 Bft) S-SW 197 ° 0 min 0,000 mm 0,0 UV-I 0 W/m² 12,8 °C 14,4 °C 0,0 km/h (0 Bft)
15.08.2018 03:09 14,4 °C 90 % 1017,4 hPa 0,0 mm 0,0 km/h (0 Bft) S-SW 197 ° 0 min 0,000 mm 0,0 UV-I 0 W/m² 12,8 °C 14,4 °C 0,0 km/h (0 Bft)
15.08.2018 03:10 14,4 °C 90 % 1017,5 hPa 0,0 mm 0,0 km/h (0 Bft) S-SW 197 ° 0 min 0,000 mm 0,0 UV-I 0 W/m² 12,8 °C 14,4 °C 0,0 km/h (0 Bft)
15.08.2018 03:11 14,4 °C 90 % 1017,4 hPa 0,0 mm 0,0 km/h (0 Bft) S-SW 197 ° 0 min 0,000 mm 0,0 UV-I 0 W/m² 12,8 °C 14,4 °C 0,0 km/h (0 Bft)
15.08.2018 03:12 14,3 °C 90 % 1017,5 hPa 0,0 mm 0,0 km/h (0 Bft) S-SW 197 ° 0 min 0,000 mm 0,0 UV-I 0 W/m² 12,7 °C 14,3 °C 0,0 km/h (0 Bft)
15.08.2018 03:13 14,3 °C 90 % 1017,4 hPa 0,0 mm 0,0 km/h (0 Bft) S-SW 197 ° 0 min 0,000 mm 0,0 UV-I 0 W/m² 12,7 °C 14,3 °C 0,0 km/h (0 Bft)
15.08.2018 03:14 14,3 °C 90 % 1017,4 hPa 0,0 mm 0,0 km/h (0 Bft) S-SW 197 ° 0 min 0,000 mm 0,0 UV-I 0 W/m² 12,7 °C 14,3 °C 0,0 km/h (0 Bft)
15.08.2018 03:15 14,3 °C 91 % 1017,4 hPa 0,0 mm 0,0 km/h (0 Bft) S-SW 197 ° 0 min 0,000 mm 0,0 UV-I 0 W/m² 12,8 °C 14,3 °C 0,0 km/h (0 Bft)
15.08.2018 03:16 14,2 °C 91 % 1017,3 hPa 0,0 mm 0,0 km/h (0 Bft) S-SW 197 ° 0 min 0,000 mm 0,0 UV-I 0 W/m² 12,8 °C 14,2 °C 0,0 km/h (0 Bft)
15.08.2018 03:17 14,2 °C 91 % 1017,3 hPa 0,0 mm 0,0 km/h (0 Bft) S-SW 197 ° 0 min 0,000 mm 0,0 UV-I 0 W/m² 12,8 °C 14,2 °C 0,0 km/h (0 Bft)
15.08.2018 03:18 14,2 °C 91 % 1017,4 hPa 0,0 mm 0,0 km/h (0 Bft) S-SW 197 ° 0 min 0,000 mm 0,0 UV-I 0 W/m² 12,8 °C 14,2 °C 0,0 km/h (0 Bft)
15.08.2018 03:19 14,1 °C 91 % 1017,4 hPa 0,0 mm 0,0 km/h (0 Bft) S-SW 197 ° 0 min 0,000 mm 0,0 UV-I 0 W/m² 12,7 °C 14,1 °C 0,0 km/h (0 Bft)
15.08.2018 03:20 14,1 °C 91 % 1017,5 hPa 0,0 mm 0,0 km/h (0 Bft) S-SW 197 ° 0 min 0,000 mm 0,0 UV-I 0 W/m² 12,7 °C 14,1 °C 0,0 km/h (0 Bft)
15.08.2018 03:21 14,1 °C 91 % 1017,4 hPa 0,0 mm 0,0 km/h (0 Bft) S-SW 197 ° 0 min 0,000 mm 0,0 UV-I 0 W/m² 12,7 °C 14,1 °C 0,0 km/h (0 Bft)
15.08.2018 03:22 14,1 °C 91 % 1017,5 hPa 0,0 mm 0,0 km/h (0 Bft) S-SW 197 ° 0 min 0,000 mm 0,0 UV-I 0 W/m² 12,7 °C 14,1 °C 0,0 km/h (0 Bft)
15.08.2018 03:23 14,1 °C 91 % 1017,5 hPa 0,0 mm 0,0 km/h (0 Bft) S-SW 197 ° 0 min 0,000 mm 0,0 UV-I 0 W/m² 12,7 °C 14,1 °C 0,0 km/h (0 Bft)
15.08.2018 03:24 14,1 °C 91 % 1017,5 hPa 0,0 mm 0,0 km/h (0 Bft) S-SW 197 ° 0 min 0,000 mm 0,0 UV-I 0 W/m² 12,7 °C 14,1 °C 0,0 km/h (0 Bft)
15.08.2018 03:25 14,1 °C 91 % 1017,5 hPa 0,0 mm 0,0 km/h (0 Bft) S-SW 197 ° 0 min 0,000 mm 0,0 UV-I 0 W/m² 12,7 °C 14,1 °C 0,0 km/h (0 Bft)
15.08.2018 03:26 14,1 °C 91 % 1017,5 hPa 0,0 mm 0,0 km/h (0 Bft) S-SW 197 ° 0 min 0,000 mm 0,0 UV-I 0 W/m² 12,7 °C 14,1 °C 0,0 km/h (0 Bft)
15.08.2018 03:27 14,0 °C 91 % 1017,5 hPa 0,0 mm 0,0 km/h (0 Bft) S-SW 197 ° 0 min 0,000 mm 0,0 UV-I 0 W/m² 12,6 °C 14,0 °C 0,0 km/h (0 Bft)
15.08.2018 03:28 14,0 °C 91 % 1017,5 hPa 0,0 mm 0,0 km/h (0 Bft) S-SW 197 ° 0 min 0,000 mm 0,0 UV-I 0 W/m² 12,6 °C 14,0 °C 0,0 km/h (0 Bft)
15.08.2018 03:29 14,0 °C 91 % 1017,5 hPa 0,0 mm 0,0 km/h (0 Bft) S-SW 197 ° 0 min 0,000 mm 0,0 UV-I 0 W/m² 12,6 °C 14,0 °C 0,0 km/h (0 Bft)
15.08.2018 03:30 13,9 °C 91 % 1017,5 hPa 0,0 mm 0,0 km/h (0 Bft) S-SW 197 ° 0 min 0,000 mm 0,0 UV-I 0 W/m² 12,5 °C 13,9 °C 0,0 km/h (0 Bft)
15.08.2018 03:31 14,0 °C 91 % 1017,5 hPa 0,0 mm 0,0 km/h (0 Bft) S-SW 197 ° 0 min 0,000 mm 0,0 UV-I 0 W/m² 12,6 °C 14,0 °C 0,0 km/h (0 Bft)
15.08.2018 03:32 13,9 °C 91 % 1017,5 hPa 0,0 mm 0,0 km/h (0 Bft) S-SW 197 ° 0 min 0,000 mm 0,0 UV-I 0 W/m² 12,5 °C 13,9 °C 0,0 km/h (0 Bft)
15.08.2018 03:33 13,9 °C 91 % 1017,5 hPa 0,0 mm 0,0 km/h (0 Bft) S-SW 197 ° 0 min 0,000 mm 0,0 UV-I 0 W/m² 12,5 °C 13,9 °C 0,0 km/h (0 Bft)
15.08.2018 03:34 13,9 °C 91 % 1017,5 hPa 0,0 mm 0,0 km/h (0 Bft) S-SW 197 ° 0 min 0,000 mm 0,0 UV-I 0 W/m² 12,5 °C 13,9 °C 0,0 km/h (0 Bft)
15.08.2018 03:35 13,9 °C 91 % 1017,4 hPa 0,0 mm 0,0 km/h (0 Bft) S-SW 197 ° 0 min 0,000 mm 0,0 UV-I 0 W/m² 12,5 °C 13,9 °C 0,0 km/h (0 Bft)
15.08.2018 03:36 13,9 °C 91 % 1017,5 hPa 0,0 mm 0,0 km/h (0 Bft) S-SW 197 ° 0 min 0,000 mm 0,0 UV-I 0 W/m² 12,5 °C 13,9 °C 0,0 km/h (0 Bft)
15.08.2018 03:37 13,9 °C 91 % 1017,5 hPa 0,0 mm 0,0 km/h (0 Bft) S-SW 197 ° 0 min 0,000 mm 0,0 UV-I 0 W/m² 12,5 °C 13,9 °C 0,0 km/h (0 Bft)
15.08.2018 03:38 13,9 °C 91 % 1017,5 hPa 0,0 mm 0,0 km/h (0 Bft) S-SW 197 ° 0 min 0,000 mm 0,0 UV-I 0 W/m² 12,5 °C 13,9 °C 0,0 km/h (0 Bft)
15.08.2018 03:39 13,9 °C 91 % 1017,5 hPa 0,0 mm 0,0 km/h (0 Bft) S-SW 197 ° 0 min 0,000 mm 0,0 UV-I 0 W/m² 12,5 °C 13,9 °C 0,0 km/h (0 Bft)
15.08.2018 03:40 13,9 °C 91 % 1017,5 hPa 0,0 mm 0,0 km/h (0 Bft) S-SW 197 ° 0 min 0,000 mm 0,0 UV-I 0 W/m² 12,5 °C 13,9 °C 0,0 km/h (0 Bft)
15.08.2018 03:41 13,9 °C 92 % 1017,5 hPa 0,0 mm 0,0 km/h (0 Bft) S-SW 197 ° 0 min 0,000 mm 0,0 UV-I 0 W/m² 12,6 °C 13,9 °C 0,0 km/h (0 Bft)
15.08.2018 03:42 13,9 °C 91 % 1017,5 hPa 0,0 mm 0,0 km/h (0 Bft) S-SW 197 ° 0 min 0,000 mm 0,0 UV-I 0 W/m² 12,5 °C 13,9 °C 0,0 km/h (0 Bft)
15.08.2018 03:43 14,0 °C 91 % 1017,5 hPa 0,0 mm 0,0 km/h (0 Bft) S-SW 197 ° 0 min 0,000 mm 0,0 UV-I 0 W/m² 12,6 °C 14,0 °C 0,0 km/h (0 Bft)
15.08.2018 03:44 14,0 °C 91 % 1017,5 hPa 0,0 mm 0,0 km/h (0 Bft) S-SW 197 ° 0 min 0,000 mm 0,0 UV-I 0 W/m² 12,6 °C 14,0 °C 0,0 km/h (0 Bft)
15.08.2018 03:45 14,0 °C 91 % 1017,5 hPa 0,0 mm 0,0 km/h (0 Bft) S-SW 197 ° 0 min 0,000 mm 0,0 UV-I 0 W/m² 12,6 °C 14,0 °C 0,0 km/h (0 Bft)
15.08.2018 03:46 14,0 °C 91 % 1017,5 hPa 0,0 mm 0,0 km/h (0 Bft) S-SW 197 ° 0 min 0,000 mm 0,0 UV-I 0 W/m² 12,6 °C 14,0 °C 0,0 km/h (0 Bft)
15.08.2018 03:47 14,0 °C 91 % 1017,5 hPa 0,0 mm 0,0 km/h (0 Bft) S-SW 197 ° 0 min 0,000 mm 0,0 UV-I 0 W/m² 12,6 °C 14,0 °C 0,0 km/h (0 Bft)
15.08.2018 03:48 14,0 °C 91 % 1017,5 hPa 0,0 mm 0,0 km/h (0 Bft) S-SW 197 ° 0 min 0,000 mm 0,0 UV-I 0 W/m² 12,6 °C 14,0 °C 0,0 km/h (0 Bft)
15.08.2018 03:49 14,1 °C 91 % 1017,4 hPa 0,0 mm 0,0 km/h (0 Bft) S-SW 197 ° 0 min 0,000 mm 0,0 UV-I 0 W/m² 12,7 °C 14,1 °C 0,0 km/h (0 Bft)
15.08.2018 03:50 14,1 °C 91 % 1017,5 hPa 0,0 mm 0,0 km/h (0 Bft) S-SW 197 ° 0 min 0,000 mm 0,0 UV-I 0 W/m² 12,7 °C 14,1 °C 0,0 km/h (0 Bft)
15.08.2018 03:51 14,0 °C 91 % 1017,5 hPa 0,0 mm 0,0 km/h (0 Bft) S-SW 197 ° 0 min 0,000 mm 0,0 UV-I 0 W/m² 12,6 °C 14,0 °C 0,0 km/h (0 Bft)
15.08.2018 03:52 14,0 °C 91 % 1017,5 hPa 0,0 mm 0,0 km/h (0 Bft) S-SW 197 ° 0 min 0,000 mm 0,0 UV-I 0 W/m² 12,6 °C 14,0 °C 0,0 km/h (0 Bft)
15.08.2018 03:53 13,9 °C 91 % 1017,5 hPa 0,0 mm 0,0 km/h (0 Bft) S-SW 197 ° 0 min 0,000 mm 0,0 UV-I 0 W/m² 12,5 °C 13,9 °C 0,0 km/h (0 Bft)
15.08.2018 03:54 13,9 °C 91 % 1017,5 hPa 0,0 mm 0,0 km/h (0 Bft) S-SW 197 ° 0 min 0,000 mm 0,0 UV-I 0 W/m² 12,5 °C 13,9 °C 0,0 km/h (0 Bft)
15.08.2018 03:55 13,8 °C 91 % 1017,5 hPa 0,0 mm 0,0 km/h (0 Bft) S-SW 197 ° 0 min 0,000 mm 0,0 UV-I 0 W/m² 12,4 °C 13,8 °C 0,0 km/h (0 Bft)
15.08.2018 03:56 13,8 °C 91 % 1017,5 hPa 0,0 mm 0,0 km/h (0 Bft) S-SW 197 ° 0 min 0,000 mm 0,0 UV-I 0 W/m² 12,4 °C 13,8 °C 0,0 km/h (0 Bft)
15.08.2018 03:57 13,8 °C 91 % 1017,5 hPa 0,0 mm 0,0 km/h (0 Bft) S-SW 197 ° 0 min 0,000 mm 0,0 UV-I 0 W/m² 12,4 °C 13,8 °C 0,0 km/h (0 Bft)
15.08.2018 03:58 13,8 °C 91 % 1017,5 hPa 0,0 mm 0,0 km/h (0 Bft) S-SW 197 ° 0 min 0,000 mm 0,0 UV-I 0 W/m² 12,4 °C 13,8 °C 0,0 km/h (0 Bft)
15.08.2018 03:59 13,8 °C 92 % 1017,5 hPa 0,0 mm 0,0 km/h (0 Bft) S-SW 197 ° 0 min 0,000 mm 0,0 UV-I 0 W/m² 12,5 °C 13,8 °C 0,0 km/h (0 Bft)
15.08.2018 04:00 13,7 °C 91 % 1017,5 hPa 0,0 mm 0,0 km/h (0 Bft) S-SW 197 ° 0 min 0,000 mm 0,0 UV-I 0 W/m² 12,3 °C 13,7 °C 0,0 km/h (0 Bft)
15.08.2018 04:01 13,7 °C 91 % 1017,5 hPa 0,0 mm 0,0 km/h (0 Bft) S-SW 197 ° 0 min 0,000 mm 0,0 UV-I 0 W/m² 12,3 °C 13,7 °C 0,0 km/h (0 Bft)
15.08.2018 04:02 13,7 °C 92 % 1017,5 hPa 0,0 mm 0,0 km/h (0 Bft) N 0 ° 0 min 0,000 mm 0,0 UV-I 0 W/m² 12,4 °C 13,7 °C 0,0 km/h (0 Bft)
15.08.2018 04:03 13,7 °C 92 % 1017,6 hPa 0,0 mm 0,0 km/h (0 Bft) N 0 ° 0 min 0,000 mm 0,0 UV-I 0 W/m² 12,4 °C 13,7 °C 0,0 km/h (0 Bft)
15.08.2018 04:04 13,7 °C 92 % 1017,6 hPa 0,0 mm 0,0 km/h (0 Bft) N 0 ° 0 min 0,000 mm 0,0 UV-I 0 W/m² 12,4 °C 13,7 °C 0,0 km/h (0 Bft)
15.08.2018 04:05 13,7 °C 92 % 1017,6 hPa 0,0 mm 0,0 km/h (0 Bft) N 0 ° 0 min 0,000 mm 0,0 UV-I 0 W/m² 12,4 °C 13,7 °C 0,0 km/h (0 Bft)
15.08.2018 04:06 13,7 °C 92 % 1017,7 hPa 0,0 mm 0,0 km/h (0 Bft) N 0 ° 0 min 0,000 mm 0,0 UV-I 0 W/m² 12,4 °C 13,7 °C 0,0 km/h (0 Bft)
15.08.2018 04:07 13,7 °C 92 % 1017,6 hPa 0,0 mm 0,0 km/h (0 Bft) N 0 ° 0 min 0,000 mm 0,0 UV-I 0 W/m² 12,4 °C 13,7 °C 0,0 km/h (0 Bft)
15.08.2018 04:08 13,7 °C 92 % 1017,7 hPa 0,0 mm 0,0 km/h (0 Bft) N 0 ° 0 min 0,000 mm 0,0 UV-I 0 W/m² 12,4 °C 13,7 °C 0,0 km/h (0 Bft)
15.08.2018 04:10 13,7 °C 92 % 1017,6 hPa 0,0 mm 0,0 km/h (0 Bft) S-SW 197 ° 0 min 0,000 mm 0,0 UV-I 0 W/m² 12,4 °C 13,7 °C 0,0 km/h (0 Bft)
15.08.2018 04:11 13,7 °C 92 % 1017,6 hPa 0,0 mm 0,0 km/h (0 Bft) S-SW 197 ° 0 min 0,000 mm 0,0 UV-I 0 W/m² 12,4 °C 13,7 °C 0,0 km/h (0 Bft)
15.08.2018 04:12 13,7 °C 92 % 1017,7 hPa 0,0 mm 0,0 km/h (0 Bft) S-SW 197 ° 0 min 0,000 mm 0,0 UV-I 0 W/m² 12,4 °C 13,7 °C 0,0 km/h (0 Bft)
15.08.2018 04:13 13,7 °C 92 % 1017,7 hPa 0,0 mm 0,0 km/h (0 Bft) S-SW 197 ° 0 min 0,000 mm 0,0 UV-I 0 W/m² 12,4 °C 13,7 °C 0,0 km/h (0 Bft)
15.08.2018 04:14 13,7 °C 92 % 1017,6 hPa 0,0 mm 0,0 km/h (0 Bft) S-SW 197 ° 0 min 0,000 mm 0,0 UV-I 0 W/m² 12,4 °C 13,7 °C 0,0 km/h (0 Bft)
15.08.2018 04:15 13,8 °C 92 % 1017,7 hPa 0,0 mm 0,0 km/h (0 Bft) S-SW 197 ° 0 min 0,000 mm 0,0 UV-I 0 W/m² 12,5 °C 13,8 °C 0,0 km/h (0 Bft)
15.08.2018 04:16 13,8 °C 92 % 1017,6 hPa 0,0 mm 0,0 km/h (0 Bft) S-SW 197 ° 0 min 0,000 mm 0,0 UV-I 0 W/m² 12,5 °C 13,8 °C 0,0 km/h (0 Bft)
15.08.2018 04:17 13,8 °C 92 % 1017,7 hPa 0,0 mm 0,0 km/h (0 Bft) S-SW 197 ° 0 min 0,000 mm 0,0 UV-I 0 W/m² 12,5 °C 13,8 °C 0,0 km/h (0 Bft)
15.08.2018 04:18 13,8 °C 92 % 1017,7 hPa 0,0 mm 0,0 km/h (0 Bft) S-SW 197 ° 0 min 0,000 mm 0,0 UV-I 0 W/m² 12,5 °C 13,8 °C 0,0 km/h (0 Bft)
15.08.2018 04:19 13,9 °C 92 % 1017,7 hPa 0,0 mm 0,0 km/h (0 Bft) S-SW 197 ° 0 min 0,000 mm 0,0 UV-I 0 W/m² 12,6 °C 13,9 °C 0,0 km/h (0 Bft)
15.08.2018 04:20 13,9 °C 92 % 1017,7 hPa 0,0 mm 0,0 km/h (0 Bft) S-SW 197 ° 0 min 0,000 mm 0,0 UV-I 0 W/m² 12,6 °C 13,9 °C 0,0 km/h (0 Bft)
15.08.2018 04:21 13,9 °C 92 % 1017,7 hPa 0,0 mm 0,0 km/h (0 Bft) S-SW 197 ° 0 min 0,000 mm 0,0 UV-I 0 W/m² 12,6 °C 13,9 °C 0,0 km/h (0 Bft)
15.08.2018 04:22 13,9 °C 92 % 1017,7 hPa 0,0 mm 0,0 km/h (0 Bft) S-SW 197 ° 0 min 0,000 mm 0,0 UV-I 0 W/m² 12,6 °C 13,9 °C 0,0 km/h (0 Bft)
15.08.2018 04:23 13,9 °C 92 % 1017,7 hPa 0,0 mm 0,0 km/h (0 Bft) S-SW 197 ° 0 min 0,000 mm 0,0 UV-I 0 W/m² 12,6 °C 13,9 °C 0,0 km/h (0 Bft)
15.08.2018 04:24 13,9 °C 92 % 1017,7 hPa 0,0 mm 0,0 km/h (0 Bft) S-SW 197 ° 0 min 0,000 mm 0,0 UV-I 0 W/m² 12,6 °C 13,9 °C 0,0 km/h (0 Bft)
15.08.2018 04:25 13,9 °C 92 % 1017,7 hPa 0,0 mm 0,0 km/h (0 Bft) S-SW 197 ° 0 min 0,000 mm 0,0 UV-I 0 W/m² 12,6 °C 13,9 °C 0,0 km/h (0 Bft)
15.08.2018 04:26 13,9 °C 92 % 1017,7 hPa 0,0 mm 0,0 km/h (0 Bft) S-SW 197 ° 0 min 0,000 mm 0,0 UV-I 0 W/m² 12,6 °C 13,9 °C 0,0 km/h (0 Bft)
15.08.2018 04:27 13,8 °C 92 % 1017,7 hPa 0,0 mm 0,0 km/h (0 Bft) S-SW 197 ° 0 min 0,000 mm 0,0 UV-I 0 W/m² 12,5 °C 13,8 °C 0,0 km/h (0 Bft)
15.08.2018 04:28 13,8 °C 92 % 1017,7 hPa 0,0 mm 0,0 km/h (0 Bft) S-SW 197 ° 0 min 0,000 mm 0,0 UV-I 0 W/m² 12,5 °C 13,8 °C 0,0 km/h (0 Bft)
15.08.2018 04:29 13,8 °C 92 % 1017,7 hPa 0,0 mm 0,0 km/h (0 Bft) S-SW 197 ° 0 min 0,000 mm 0,0 UV-I 0 W/m² 12,5 °C 13,8 °C 0,0 km/h (0 Bft)
15.08.2018 04:30 13,8 °C 92 % 1017,7 hPa 0,0 mm 0,0 km/h (0 Bft) S-SW 197 ° 0 min 0,000 mm 0,0 UV-I 0 W/m² 12,5 °C 13,8 °C 0,0 km/h (0 Bft)
15.08.2018 04:31 13,8 °C 92 % 1017,8 hPa 0,0 mm 0,0 km/h (0 Bft) S-SW 197 ° 0 min 0,000 mm 0,0 UV-I 0 W/m² 12,5 °C 13,8 °C 0,0 km/h (0 Bft)
15.08.2018 04:32 13,8 °C 92 % 1017,8 hPa 0,0 mm 0,0 km/h (0 Bft) S-SW 197 ° 0 min 0,000 mm 0,0 UV-I 0 W/m² 12,5 °C 13,8 °C 0,0 km/h (0 Bft)
15.08.2018 04:33 13,8 °C 92 % 1017,8 hPa 0,0 mm 0,0 km/h (0 Bft) S-SW 197 ° 0 min 0,000 mm 0,0 UV-I 0 W/m² 12,5 °C 13,8 °C 0,0 km/h (0 Bft)
15.08.2018 04:34 13,8 °C 92 % 1017,8 hPa 0,0 mm 0,0 km/h (0 Bft) S-SW 197 ° 0 min 0,000 mm 0,0 UV-I 0 W/m² 12,5 °C 13,8 °C 0,0 km/h (0 Bft)
15.08.2018 04:35 13,8 °C 92 % 1017,8 hPa 0,0 mm 0,0 km/h (0 Bft) S-SW 197 ° 0 min 0,000 mm 0,0 UV-I 0 W/m² 12,5 °C 13,8 °C 0,0 km/h (0 Bft)
15.08.2018 04:36 13,9 °C 92 % 1017,8 hPa 0,0 mm 0,0 km/h (0 Bft) S-SW 197 ° 0 min 0,000 mm 0,0 UV-I 0 W/m² 12,6 °C 13,9 °C 0,0 km/h (0 Bft)
15.08.2018 04:37 13,9 °C 92 % 1017,8 hPa 0,0 mm 0,0 km/h (0 Bft) S-SW 197 ° 0 min 0,000 mm 0,0 UV-I 0 W/m² 12,6 °C 13,9 °C 0,0 km/h (0 Bft)
15.08.2018 04:38 13,9 °C 92 % 1017,8 hPa 0,0 mm 0,0 km/h (0 Bft) S-SW 197 ° 0 min 0,000 mm 0,0 UV-I 0 W/m² 12,6 °C 13,9 °C 0,0 km/h (0 Bft)
15.08.2018 04:39 13,9 °C 92 % 1017,8 hPa 0,0 mm 0,0 km/h (0 Bft) S-SW 197 ° 0 min 0,000 mm 0,0 UV-I 0 W/m² 12,6 °C 13,9 °C 0,0 km/h (0 Bft)
15.08.2018 04:40 13,9 °C 92 % 1017,8 hPa 0,0 mm 0,0 km/h (0 Bft) S-SW 197 ° 0 min 0,000 mm 0,0 UV-I 0 W/m² 12,6 °C 13,9 °C 0,0 km/h (0 Bft)
15.08.2018 04:41 13,9 °C 92 % 1017,8 hPa 0,0 mm 0,0 km/h (0 Bft) S-SW 197 ° 0 min 0,000 mm 0,0 UV-I 0 W/m² 12,6 °C 13,9 °C 0,0 km/h (0 Bft)
15.08.2018 04:42 13,9 °C 92 % 1017,8 hPa 0,0 mm 0,0 km/h (0 Bft) S-SW 197 ° 0 min 0,000 mm 0,0 UV-I 0 W/m² 12,6 °C 13,9 °C 0,0 km/h (0 Bft)
15.08.2018 04:43 13,9 °C 92 % 1017,8 hPa 0,0 mm 0,0 km/h (0 Bft) S-SW 197 ° 0 min 0,000 mm 0,0 UV-I 0 W/m² 12,6 °C 13,9 °C 0,0 km/h (0 Bft)
15.08.2018 04:44 13,9 °C 92 % 1017,8 hPa 0,0 mm 0,0 km/h (0 Bft) S-SW 197 ° 0 min 0,000 mm 0,0 UV-I 0 W/m² 12,6 °C 13,9 °C 0,0 km/h (0 Bft)
15.08.2018 04:45 13,9 °C 92 % 1017,9 hPa 0,0 mm 0,0 km/h (0 Bft) S-SW 197 ° 0 min 0,000 mm 0,0 UV-I 0 W/m² 12,6 °C 13,9 °C 0,0 km/h (0 Bft)
15.08.2018 04:46 13,9 °C 92 % 1017,8 hPa 0,0 mm 0,0 km/h (0 Bft) S-SW 197 ° 0 min 0,000 mm 0,0 UV-I 0 W/m² 12,6 °C 13,9 °C 0,0 km/h (0 Bft)
15.08.2018 04:47 13,9 °C 92 % 1017,9 hPa 0,0 mm 0,0 km/h (0 Bft) S-SW 197 ° 0 min 0,000 mm 0,0 UV-I 0 W/m² 12,6 °C 13,9 °C 0,0 km/h (0 Bft)
15.08.2018 04:48 13,9 °C 92 % 1017,9 hPa 0,0 mm 0,0 km/h (0 Bft) S-SW 197 ° 0 min 0,000 mm 0,0 UV-I 0 W/m² 12,6 °C 13,9 °C 0,0 km/h (0 Bft)
15.08.2018 04:49 13,9 °C 92 % 1017,9 hPa 0,0 mm 0,0 km/h (0 Bft) S-SW 197 ° 0 min 0,000 mm 0,0 UV-I 0 W/m² 12,6 °C 13,9 °C 0,0 km/h (0 Bft)
15.08.2018 04:50 13,9 °C 92 % 1017,9 hPa 0,0 mm 0,0 km/h (0 Bft) S-SW 197 ° 0 min 0,000 mm 0,0 UV-I 0 W/m² 12,6 °C 13,9 °C 0,0 km/h (0 Bft)
15.08.2018 04:51 13,9 °C 92 % 1017,9 hPa 0,0 mm 0,0 km/h (0 Bft) S-SW 197 ° 0 min 0,000 mm 0,0 UV-I 0 W/m² 12,6 °C 13,9 °C 0,0 km/h (0 Bft)
15.08.2018 04:52 13,9 °C 92 % 1017,9 hPa 0,0 mm 0,0 km/h (0 Bft) S-SW 197 ° 0 min 0,000 mm 0,0 UV-I 0 W/m² 12,6 °C 13,9 °C 0,0 km/h (0 Bft)
15.08.2018 04:53 13,9 °C 93 % 1017,9 hPa 0,0 mm 0,0 km/h (0 Bft) S-SW 197 ° 0 min 0,000 mm 0,0 UV-I 0 W/m² 12,8 °C 13,9 °C 0,0 km/h (0 Bft)
15.08.2018 04:54 13,9 °C 93 % 1017,8 hPa 0,0 mm 0,0 km/h (0 Bft) S-SW 197 ° 0 min 0,000 mm 0,0 UV-I 0 W/m² 12,8 °C 13,9 °C 0,0 km/h (0 Bft)
15.08.2018 04:55 13,9 °C 93 % 1017,8 hPa 0,0 mm 0,0 km/h (0 Bft) S-SW 197 ° 0 min 0,000 mm 0,0 UV-I 0 W/m² 12,8 °C 13,9 °C 0,0 km/h (0 Bft)
15.08.2018 04:56 13,9 °C 93 % 1017,9 hPa 0,0 mm 0,0 km/h (0 Bft) S-SW 197 ° 0 min 0,000 mm 0,0 UV-I 0 W/m² 12,8 °C 13,9 °C 0,0 km/h (0 Bft)
15.08.2018 04:57 14,0 °C 93 % 1017,8 hPa 0,0 mm 0,0 km/h (0 Bft) S-SW 197 ° 0 min 0,000 mm 0,0 UV-I 0 W/m² 12,9 °C 14,0 °C 0,0 km/h (0 Bft)
15.08.2018 04:58 14,0 °C 93 % 1017,9 hPa 0,0 mm 0,0 km/h (0 Bft) S-SW 197 ° 0 min 0,000 mm 0,0 UV-I 0 W/m² 12,9 °C 14,0 °C 0,0 km/h (0 Bft)
15.08.2018 04:59 14,0 °C 93 % 1017,9 hPa 0,0 mm 0,0 km/h (0 Bft) S-SW 197 ° 0 min 0,000 mm 0,0 UV-I 0 W/m² 12,9 °C 14,0 °C 0,0 km/h (0 Bft)
15.08.2018 05:00 13,9 °C 92 % 1017,9 hPa 0,0 mm 0,0 km/h (0 Bft) S-SW 197 ° 0 min 0,000 mm 0,0 UV-I 0 W/m² 12,6 °C 13,9 °C 0,0 km/h (0 Bft)
15.08.2018 05:01 13,9 °C 92 % 1017,9 hPa 0,0 mm 0,0 km/h (0 Bft) S-SW 197 ° 0 min 0,000 mm 0,0 UV-I 0 W/m² 12,6 °C 13,9 °C 0,0 km/h (0 Bft)
15.08.2018 05:02 13,9 °C 92 % 1017,9 hPa 0,0 mm 0,0 km/h (0 Bft) S-SW 197 ° 0 min 0,000 mm 0,0 UV-I 0 W/m² 12,6 °C 13,9 °C 0,0 km/h (0 Bft)
15.08.2018 05:03 13,9 °C 92 % 1017,9 hPa 0,0 mm 0,0 km/h (0 Bft) S-SW 197 ° 0 min 0,000 mm 0,0 UV-I 0 W/m² 12,6 °C 13,9 °C 0,0 km/h (0 Bft)
15.08.2018 05:04 13,9 °C 92 % 1017,8 hPa 0,0 mm 0,0 km/h (0 Bft) S-SW 197 ° 0 min 0,000 mm 0,0 UV-I 0 W/m² 12,6 °C 13,9 °C 0,0 km/h (0 Bft)
15.08.2018 05:05 13,9 °C 92 % 1017,9 hPa 0,0 mm 0,0 km/h (0 Bft) S-SW 197 ° 0 min 0,000 mm 0,0 UV-I 0 W/m² 12,6 °C 13,9 °C 0,0 km/h (0 Bft)
15.08.2018 05:06 13,8 °C 92 % 1017,9 hPa 0,0 mm 0,0 km/h (0 Bft) S-SW 197 ° 0 min 0,000 mm 0,0 UV-I 0 W/m² 12,5 °C 13,8 °C 0,0 km/h (0 Bft)
15.08.2018 05:07 13,8 °C 92 % 1017,9 hPa 0,0 mm 0,0 km/h (0 Bft) S-SW 197 ° 0 min 0,000 mm 0,0 UV-I 0 W/m² 12,5 °C 13,8 °C 0,0 km/h (0 Bft)
15.08.2018 05:08 13,8 °C 92 % 1017,9 hPa 0,0 mm 0,0 km/h (0 Bft) S-SW 197 ° 0 min 0,000 mm 0,0 UV-I 0 W/m² 12,5 °C 13,8 °C 0,0 km/h (0 Bft)
15.08.2018 05:09 13,8 °C 92 % 1017,8 hPa 0,0 mm 0,0 km/h (0 Bft) S-SW 197 ° 0 min 0,000 mm 0,0 UV-I 0 W/m² 12,5 °C 13,8 °C 0,0 km/h (0 Bft)
15.08.2018 05:10 13,8 °C 92 % 1017,8 hPa 0,0 mm 0,0 km/h (0 Bft) S-SW 197 ° 0 min 0,000 mm 0,0 UV-I 0 W/m² 12,5 °C 13,8 °C 0,0 km/h (0 Bft)
15.08.2018 05:11 13,8 °C 92 % 1017,9 hPa 0,0 mm 0,0 km/h (0 Bft) S-SW 197 ° 0 min 0,000 mm 0,0 UV-I 0 W/m² 12,5 °C 13,8 °C 0,0 km/h (0 Bft)
15.08.2018 05:12 13,8 °C 92 % 1017,9 hPa 0,0 mm 0,0 km/h (0 Bft) S-SW 197 ° 0 min 0,000 mm 0,0 UV-I 0 W/m² 12,5 °C 13,8 °C 0,0 km/h (0 Bft)
15.08.2018 05:13 13,8 °C 92 % 1017,9 hPa 0,0 mm 0,0 km/h (0 Bft) S-SW 197 ° 0 min 0,000 mm 0,0 UV-I 0 W/m² 12,5 °C 13,8 °C 0,0 km/h (0 Bft)
15.08.2018 05:14 13,8 °C 92 % 1017,8 hPa 0,0 mm 0,0 km/h (0 Bft) S-SW 197 ° 0 min 0,000 mm 0,0 UV-I 0 W/m² 12,5 °C 13,8 °C 0,0 km/h (0 Bft)
15.08.2018 05:15 13,8 °C 92 % 1017,9 hPa 0,0 mm 0,0 km/h (0 Bft) S-SW 197 ° 0 min 0,000 mm 0,0 UV-I 0 W/m² 12,5 °C 13,8 °C 0,0 km/h (0 Bft)
15.08.2018 05:16 13,8 °C 92 % 1017,9 hPa 0,0 mm 0,0 km/h (0 Bft) S-SW 197 ° 0 min 0,000 mm 0,0 UV-I 0 W/m² 12,5 °C 13,8 °C 0,0 km/h (0 Bft)
15.08.2018 05:17 13,8 °C 92 % 1017,9 hPa 0,0 mm 0,0 km/h (0 Bft) S-SW 197 ° 0 min 0,000 mm 0,0 UV-I 0 W/m² 12,5 °C 13,8 °C 0,0 km/h (0 Bft)
15.08.2018 05:18 13,8 °C 92 % 1017,9 hPa 0,0 mm 0,0 km/h (0 Bft) S-SW 197 ° 0 min 0,000 mm 0,0 UV-I 0 W/m² 12,5 °C 13,8 °C 0,0 km/h (0 Bft)
15.08.2018 05:19 13,8 °C 92 % 1017,9 hPa 0,0 mm 0,0 km/h (0 Bft) S-SW 197 ° 0 min 0,000 mm 0,0 UV-I 0 W/m² 12,5 °C 13,8 °C 0,0 km/h (0 Bft)
15.08.2018 05:20 13,7 °C 92 % 1017,9 hPa 0,0 mm 0,0 km/h (0 Bft) S-SW 197 ° 0 min 0,000 mm 0,0 UV-I 0 W/m² 12,4 °C 13,7 °C 0,0 km/h (0 Bft)
15.08.2018 05:21 13,7 °C 92 % 1017,9 hPa 0,0 mm 0,0 km/h (0 Bft) S-SW 197 ° 0 min 0,000 mm 0,0 UV-I 0 W/m² 12,4 °C 13,7 °C 0,0 km/h (0 Bft)
15.08.2018 05:22 13,7 °C 92 % 1017,9 hPa 0,0 mm 0,0 km/h (0 Bft) S-SW 197 ° 0 min 0,000 mm 0,0 UV-I 0 W/m² 12,4 °C 13,7 °C 0,0 km/h (0 Bft)
15.08.2018 05:23 13,7 °C 92 % 1017,9 hPa 0,0 mm 0,0 km/h (0 Bft) S-SW 197 ° 0 min 0,000 mm 0,0 UV-I 0 W/m² 12,4 °C 13,7 °C 0,0 km/h (0 Bft)
15.08.2018 05:24 13,7 °C 92 % 1017,9 hPa 0,0 mm 0,0 km/h (0 Bft) S-SW 197 ° 0 min 0,000 mm 0,0 UV-I 0 W/m² 12,4 °C 13,7 °C 0,0 km/h (0 Bft)
15.08.2018 05:25 13,7 °C 92 % 1017,9 hPa 0,0 mm 0,0 km/h (0 Bft) S-SW 197 ° 0 min 0,000 mm 0,0 UV-I 0 W/m² 12,4 °C 13,7 °C 0,0 km/h (0 Bft)
15.08.2018 05:26 13,7 °C 92 % 1017,9 hPa 0,0 mm 0,0 km/h (0 Bft) S-SW 197 ° 0 min 0,000 mm 0,0 UV-I 0 W/m² 12,4 °C 13,7 °C 0,0 km/h (0 Bft)
15.08.2018 05:27 13,7 °C 92 % 1017,9 hPa 0,0 mm 0,0 km/h (0 Bft) S-SW 197 ° 0 min 0,000 mm 0,0 UV-I 0 W/m² 12,4 °C 13,7 °C 0,0 km/h (0 Bft)
15.08.2018 05:28 13,7 °C 92 % 1017,9 hPa 0,0 mm 0,0 km/h (0 Bft) S-SW 197 ° 0 min 0,000 mm 0,0 UV-I 0 W/m² 12,4 °C 13,7 °C 0,0 km/h (0 Bft)
15.08.2018 05:29 13,7 °C 92 % 1017,9 hPa 0,0 mm 0,0 km/h (0 Bft) S-SW 197 ° 0 min 0,000 mm 0,0 UV-I 0 W/m² 12,4 °C 13,7 °C 0,0 km/h (0 Bft)
15.08.2018 05:30 13,7 °C 92 % 1017,9 hPa 0,0 mm 0,0 km/h (0 Bft) S-SW 197 ° 0 min 0,000 mm 0,0 UV-I 0 W/m² 12,4 °C 13,7 °C 0,0 km/h (0 Bft)
15.08.2018 05:31 13,7 °C 92 % 1018,0 hPa 0,0 mm 0,0 km/h (0 Bft) S-SW 197 ° 0 min 0,000 mm 0,0 UV-I 0 W/m² 12,4 °C 13,7 °C 0,0 km/h (0 Bft)
15.08.2018 05:32 13,8 °C 92 % 1017,9 hPa 0,0 mm 0,0 km/h (0 Bft) S-SW 197 ° 0 min 0,000 mm 0,0 UV-I 0 W/m² 12,5 °C 13,8 °C 0,0 km/h (0 Bft)
15.08.2018 05:33 13,8 °C 92 % 1017,9 hPa 0,0 mm 0,0 km/h (0 Bft) S-SW 197 ° 0 min 0,000 mm 0,0 UV-I 0 W/m² 12,5 °C 13,8 °C 0,0 km/h (0 Bft)
15.08.2018 05:34 13,8 °C 92 % 1017,9 hPa 0,0 mm 0,0 km/h (0 Bft) S-SW 197 ° 0 min 0,000 mm 0,0 UV-I 0 W/m² 12,5 °C 13,8 °C 0,0 km/h (0 Bft)
15.08.2018 05:35 13,8 °C 92 % 1017,9 hPa 0,0 mm 0,0 km/h (0 Bft) S-SW 197 ° 0 min 0,000 mm 0,0 UV-I 0 W/m² 12,5 °C 13,8 °C 0,0 km/h (0 Bft)
15.08.2018 05:36 13,8 °C 92 % 1017,9 hPa 0,0 mm 0,0 km/h (0 Bft) S-SW 197 ° 0 min 0,000 mm 0,0 UV-I 0 W/m² 12,5 °C 13,8 °C 0,0 km/h (0 Bft)
15.08.2018 05:37 13,7 °C 92 % 1017,9 hPa 0,0 mm 0,0 km/h (0 Bft) S-SW 197 ° 0 min 0,000 mm 0,0 UV-I 0 W/m² 12,4 °C 13,7 °C 0,0 km/h (0 Bft)
15.08.2018 05:38 13,7 °C 92 % 1017,9 hPa 0,0 mm 0,0 km/h (0 Bft) S-SW 197 ° 0 min 0,000 mm 0,0 UV-I 0 W/m² 12,4 °C 13,7 °C 0,0 km/h (0 Bft)
15.08.2018 05:39 13,7 °C 92 % 1017,9 hPa 0,0 mm 0,0 km/h (0 Bft) S-SW 197 ° 0 min 0,000 mm 0,0 UV-I 0 W/m² 12,4 °C 13,7 °C 0,0 km/h (0 Bft)
15.08.2018 05:40 13,7 °C 92 % 1018,0 hPa 0,0 mm 0,0 km/h (0 Bft) S-SW 197 ° 0 min 0,000 mm 0,0 UV-I 0 W/m² 12,4 °C 13,7 °C 0,0 km/h (0 Bft)
15.08.2018 05:41 13,7 °C 92 % 1017,9 hPa 0,0 mm 0,0 km/h (0 Bft) S-SW 197 ° 0 min 0,000 mm 0,0 UV-I 0 W/m² 12,4 °C 13,7 °C 0,0 km/h (0 Bft)
15.08.2018 05:42 13,7 °C 92 % 1017,9 hPa 0,0 mm 0,0 km/h (0 Bft) S-SW 197 ° 0 min 0,000 mm 0,0 UV-I 0 W/m² 12,4 °C 13,7 °C 0,0 km/h (0 Bft)
15.08.2018 05:43 13,6 °C 91 % 1017,9 hPa 0,0 mm 0,0 km/h (0 Bft) S-SW 197 ° 0 min 0,000 mm 0,0 UV-I 0 W/m² 12,2 °C 13,6 °C 0,0 km/h (0 Bft)
15.08.2018 05:44 13,6 °C 91 % 1017,9 hPa 0,0 mm 0,0 km/h (0 Bft) S-SW 197 ° 0 min 0,000 mm 0,0 UV-I 0 W/m² 12,2 °C 13,6 °C 0,0 km/h (0 Bft)
15.08.2018 05:45 13,6 °C 91 % 1017,9 hPa 0,0 mm 0,0 km/h (0 Bft) S-SW 197 ° 0 min 0,000 mm 0,0 UV-I 0 W/m² 12,2 °C 13,6 °C 0,0 km/h (0 Bft)
15.08.2018 05:46 13,6 °C 92 % 1017,9 hPa 0,0 mm 0,0 km/h (0 Bft) S-SW 197 ° 0 min 0,000 mm 0,0 UV-I 0 W/m² 12,3 °C 13,6 °C 0,0 km/h (0 Bft)
15.08.2018 05:47 13,5 °C 92 % 1017,9 hPa 0,0 mm 0,0 km/h (0 Bft) S-SW 197 ° 0 min 0,000 mm 0,0 UV-I 0 W/m² 12,2 °C 13,5 °C 0,0 km/h (0 Bft)
15.08.2018 05:48 13,5 °C 92 % 1017,9 hPa 0,0 mm 0,0 km/h (0 Bft) S-SW 197 ° 0 min 0,000 mm 0,0 UV-I 0 W/m² 12,2 °C 13,5 °C 0,0 km/h (0 Bft)
15.08.2018 05:49 13,4 °C 92 % 1017,9 hPa 0,0 mm 0,0 km/h (0 Bft) S-SW 197 ° 0 min 0,000 mm 0,0 UV-I 0 W/m² 12,1 °C 13,4 °C 0,0 km/h (0 Bft)
15.08.2018 05:50 13,4 °C 92 % 1017,9 hPa 0,0 mm 0,0 km/h (0 Bft) S-SW 197 ° 0 min 0,000 mm 0,0 UV-I 0 W/m² 12,1 °C 13,4 °C 0,0 km/h (0 Bft)
15.08.2018 05:51 13,4 °C 92 % 1017,9 hPa 0,0 mm 0,0 km/h (0 Bft) S-SW 197 ° 0 min 0,000 mm 0,0 UV-I 0 W/m² 12,1 °C 13,4 °C 0,0 km/h (0 Bft)
15.08.2018 05:52 13,4 °C 92 % 1017,9 hPa 0,0 mm 0,0 km/h (0 Bft) S-SW 197 ° 0 min 0,000 mm 0,0 UV-I 0 W/m² 12,1 °C 13,4 °C 0,0 km/h (0 Bft)
15.08.2018 05:53 13,4 °C 92 % 1017,9 hPa 0,0 mm 0,0 km/h (0 Bft) S-SW 197 ° 0 min 0,000 mm 0,0 UV-I 0 W/m² 12,1 °C 13,4 °C 0,0 km/h (0 Bft)
15.08.2018 05:54 13,4 °C 92 % 1017,9 hPa 0,0 mm 0,0 km/h (0 Bft) S-SW 197 ° 0 min 0,000 mm 0,0 UV-I 0 W/m² 12,1 °C 13,4 °C 0,0 km/h (0 Bft)
15.08.2018 05:55 13,4 °C 92 % 1017,9 hPa 0,0 mm 0,0 km/h (0 Bft) S-SW 197 ° 0 min 0,000 mm 0,0 UV-I 0 W/m² 12,1 °C 13,4 °C 0,0 km/h (0 Bft)
15.08.2018 05:56 13,3 °C 92 % 1017,9 hPa 0,0 mm 0,0 km/h (0 Bft) S-SW 197 ° 0 min 0,000 mm 0,0 UV-I 0 W/m² 12,0 °C 13,3 °C 0,0 km/h (0 Bft)
15.08.2018 05:57 13,3 °C 92 % 1017,9 hPa 0,0 mm 0,0 km/h (0 Bft) S-SW 197 ° 0 min 0,000 mm 0,0 UV-I 0 W/m² 12,0 °C 13,3 °C 0,0 km/h (0 Bft)
15.08.2018 05:58 13,3 °C 92 % 1017,9 hPa 0,0 mm 0,0 km/h (0 Bft) S-SW 197 ° 0 min 0,000 mm 0,0 UV-I 0 W/m² 12,0 °C 13,3 °C 0,0 km/h (0 Bft)
15.08.2018 05:59 13,3 °C 92 % 1017,9 hPa 0,0 mm 0,0 km/h (0 Bft) S-SW 197 ° 0 min 0,000 mm 0,0 UV-I 0 W/m² 12,0 °C 13,3 °C 0,0 km/h (0 Bft)
15.08.2018 06:00 13,3 °C 92 % 1017,9 hPa 0,0 mm 0,0 km/h (0 Bft) S-SW 197 ° 0 min 0,000 mm 0,0 UV-I 0 W/m² 12,0 °C 13,3 °C 0,0 km/h (0 Bft)
15.08.2018 06:01 13,3 °C 92 % 1017,9 hPa 0,0 mm 0,0 km/h (0 Bft) S-SW 197 ° 0 min 0,000 mm 0,0 UV-I 0 W/m² 12,0 °C 13,3 °C 0,0 km/h (0 Bft)
15.08.2018 06:02 13,3 °C 92 % 1017,9 hPa 0,0 mm 0,0 km/h (0 Bft) S-SW 197 ° 0 min 0,000 mm 0,0 UV-I 0 W/m² 12,0 °C 13,3 °C 0,0 km/h (0 Bft)
15.08.2018 06:03 13,3 °C 92 % 1017,9 hPa 0,0 mm 0,0 km/h (0 Bft) S-SW 197 ° 0 min 0,000 mm 0,0 UV-I 0 W/m² 12,0 °C 13,3 °C 0,0 km/h (0 Bft)
15.08.2018 06:04 13,3 °C 92 % 1017,9 hPa 0,0 mm 0,0 km/h (0 Bft) S-SW 197 ° 0 min 0,000 mm 0,0 UV-I 0 W/m² 12,0 °C 13,3 °C 0,0 km/h (0 Bft)
15.08.2018 06:05 13,3 °C 92 % 1017,9 hPa 0,0 mm 0,0 km/h (0 Bft) S-SW 197 ° 0 min 0,000 mm 0,0 UV-I 0 W/m² 12,0 °C 13,3 °C 0,0 km/h (0 Bft)
15.08.2018 06:06 13,3 °C 92 % 1017,9 hPa 0,0 mm 0,0 km/h (0 Bft) S-SW 197 ° 0 min 0,000 mm 0,0 UV-I 0 W/m² 12,0 °C 13,3 °C 0,0 km/h (0 Bft)
15.08.2018 06:07 13,3 °C 92 % 1017,9 hPa 0,0 mm 0,0 km/h (0 Bft) S-SW 197 ° 0 min 0,000 mm 0,0 UV-I 0 W/m² 12,0 °C 13,3 °C 0,0 km/h (0 Bft)
15.08.2018 06:08 13,3 °C 92 % 1017,9 hPa 0,0 mm 0,0 km/h (0 Bft) S-SW 197 ° 0 min 0,000 mm 0,0 UV-I 0 W/m² 12,0 °C 13,3 °C 0,0 km/h (0 Bft)
15.08.2018 06:09 13,3 °C 92 % 1017,9 hPa 0,0 mm 0,0 km/h (0 Bft) S-SW 197 ° 0 min 0,000 mm 0,0 UV-I 0 W/m² 12,0 °C 13,3 °C 0,0 km/h (0 Bft)
15.08.2018 06:10 13,3 °C 92 % 1017,9 hPa 0,0 mm 0,0 km/h (0 Bft) S-SW 197 ° 0 min 0,000 mm 0,0 UV-I 0 W/m² 12,0 °C 13,3 °C 0,0 km/h (0 Bft)
15.08.2018 06:11 13,3 °C 92 % 1017,9 hPa 0,0 mm 0,0 km/h (0 Bft) S-SW 197 ° 0 min 0,000 mm 0,0 UV-I 0 W/m² 12,0 °C 13,3 °C 0,0 km/h (0 Bft)
15.08.2018 06:12 13,3 °C 92 % 1017,9 hPa 0,0 mm 0,0 km/h (0 Bft) S-SW 197 ° 0 min 0,000 mm 0,0 UV-I 0 W/m² 12,0 °C 13,3 °C 0,0 km/h (0 Bft)
15.08.2018 06:13 13,3 °C 92 % 1017,8 hPa 0,0 mm 0,0 km/h (0 Bft) S-SW 197 ° 0 min 0,000 mm 0,0 UV-I 0 W/m² 12,0 °C 13,3 °C 0,0 km/h (0 Bft)
15.08.2018 06:14 13,3 °C 92 % 1017,8 hPa 0,0 mm 0,0 km/h (0 Bft) S-SW 197 ° 0 min 0,000 mm 0,0 UV-I 0 W/m² 12,0 °C 13,3 °C 0,0 km/h (0 Bft)
15.08.2018 06:15 13,3 °C 92 % 1017,9 hPa 0,0 mm 0,0 km/h (0 Bft) S-SW 197 ° 0 min 0,000 mm 0,0 UV-I 0 W/m² 12,0 °C 13,3 °C 0,0 km/h (0 Bft)
15.08.2018 06:16 13,3 °C 92 % 1017,9 hPa 0,0 mm 0,0 km/h (0 Bft) S-SW 197 ° 0 min 0,000 mm 0,0 UV-I 0 W/m² 12,0 °C 13,3 °C 0,0 km/h (0 Bft)
15.08.2018 06:17 13,3 °C 92 % 1017,8 hPa 0,0 mm 0,0 km/h (0 Bft) S-SW 197 ° 0 min 0,000 mm 0,0 UV-I 0 W/m² 12,0 °C 13,3 °C 0,0 km/h (0 Bft)
15.08.2018 06:18 13,4 °C 92 % 1017,9 hPa 0,0 mm 0,0 km/h (0 Bft) S-SW 197 ° 0 min 0,000 mm 0,0 UV-I 0 W/m² 12,1 °C 13,4 °C 0,0 km/h (0 Bft)
15.08.2018 06:19 13,4 °C 92 % 1017,8 hPa 0,0 mm 0,0 km/h (0 Bft) S-SW 197 ° 0 min 0,000 mm 0,0 UV-I 5 W/m² 12,1 °C 13,4 °C 0,0 km/h (0 Bft)
15.08.2018 06:20 13,4 °C 92 % 1017,8 hPa 0,0 mm 0,0 km/h (0 Bft) S-SW 197 ° 0 min 0,000 mm 0,0 UV-I 5 W/m² 12,1 °C 13,4 °C 0,0 km/h (0 Bft)
15.08.2018 06:21 13,4 °C 92 % 1017,9 hPa 0,0 mm 0,0 km/h (0 Bft) S-SW 197 ° 0 min 0,000 mm 0,0 UV-I 5 W/m² 12,1 °C 13,4 °C 0,0 km/h (0 Bft)
15.08.2018 06:22 13,3 °C 92 % 1017,9 hPa 0,0 mm 0,0 km/h (0 Bft) S-SW 197 ° 0 min 0,000 mm 0,0 UV-I 5 W/m² 12,0 °C 13,3 °C 0,0 km/h (0 Bft)
15.08.2018 06:23 13,3 °C 92 % 1017,9 hPa 0,0 mm 0,0 km/h (0 Bft) S-SW 197 ° 0 min 0,000 mm 0,0 UV-I 5 W/m² 12,0 °C 13,3 °C 0,0 km/h (0 Bft)
15.08.2018 06:24 13,3 °C 92 % 1017,9 hPa 0,0 mm 0,0 km/h (0 Bft) S-SW 197 ° 0 min 0,000 mm 0,0 UV-I 5 W/m² 12,0 °C 13,3 °C 0,0 km/h (0 Bft)
15.08.2018 06:25 13,3 °C 92 % 1017,9 hPa 0,0 mm 0,0 km/h (0 Bft) S-SW 197 ° 0 min 0,000 mm 0,0 UV-I 7 W/m² 12,0 °C 13,3 °C 0,0 km/h (0 Bft)
15.08.2018 06:26 13,3 °C 92 % 1017,9 hPa 0,0 mm 0,0 km/h (0 Bft) S-SW 197 ° 0 min 0,000 mm 0,0 UV-I 7 W/m² 12,0 °C 13,3 °C 0,0 km/h (0 Bft)
15.08.2018 06:27 13,2 °C 92 % 1017,9 hPa 0,0 mm 0,0 km/h (0 Bft) S-SW 197 ° 0 min 0,000 mm 0,0 UV-I 7 W/m² 11,9 °C 13,2 °C 0,0 km/h (0 Bft)
15.08.2018 06:28 13,2 °C 92 % 1017,9 hPa 0,0 mm 0,0 km/h (0 Bft) S-SW 197 ° 0 min 0,000 mm 0,0 UV-I 7 W/m² 11,9 °C 13,2 °C 0,0 km/h (0 Bft)
15.08.2018 06:29 13,2 °C 92 % 1017,9 hPa 0,0 mm 0,0 km/h (0 Bft) S-SW 197 ° 0 min 0,000 mm 0,0 UV-I 7 W/m² 11,9 °C 13,2 °C 0,0 km/h (0 Bft)
15.08.2018 06:30 13,2 °C 92 % 1017,9 hPa 0,0 mm 0,0 km/h (0 Bft) S-SW 197 ° 0 min 0,000 mm 0,0 UV-I 9 W/m² 11,9 °C 13,2 °C 0,0 km/h (0 Bft)
15.08.2018 06:31 13,2 °C 92 % 1017,9 hPa 0,0 mm 0,0 km/h (0 Bft) S-SW 197 ° 0 min 0,000 mm 0,0 UV-I 9 W/m² 11,9 °C 13,2 °C 0,0 km/h (0 Bft)
15.08.2018 06:32 13,1 °C 92 % 1017,9 hPa 0,0 mm 0,0 km/h (0 Bft) S-SW 197 ° 0 min 0,000 mm 0,0 UV-I 9 W/m² 11,8 °C 13,1 °C 0,0 km/h (0 Bft)
15.08.2018 06:33 13,1 °C 92 % 1017,9 hPa 0,0 mm 0,0 km/h (0 Bft) S-SW 197 ° 0 min 0,000 mm 0,0 UV-I 9 W/m² 11,8 °C 13,1 °C 0,0 km/h (0 Bft)
15.08.2018 06:34 13,0 °C 92 % 1017,9 hPa 0,0 mm 0,0 km/h (0 Bft) S-SW 197 ° 0 min 0,000 mm 0,0 UV-I 11 W/m² 11,7 °C 13,0 °C 0,0 km/h (0 Bft)
15.08.2018 06:35 13,0 °C 92 % 1017,9 hPa 0,0 mm 0,0 km/h (0 Bft) S-SW 197 ° 0 min 0,000 mm 0,0 UV-I 11 W/m² 11,7 °C 13,0 °C 0,0 km/h (0 Bft)
15.08.2018 06:36 13,0 °C 92 % 1017,9 hPa 0,0 mm 0,0 km/h (0 Bft) S-SW 197 ° 0 min 0,000 mm 0,0 UV-I 11 W/m² 11,7 °C 13,0 °C 0,0 km/h (0 Bft)
15.08.2018 06:37 12,9 °C 92 % 1017,9 hPa 0,0 mm 0,0 km/h (0 Bft) S-SW 197 ° 0 min 0,000 mm 0,0 UV-I 11 W/m² 11,6 °C 12,9 °C 0,0 km/h (0 Bft)
15.08.2018 06:38 12,9 °C 92 % 1017,9 hPa 0,0 mm 0,0 km/h (0 Bft) S-SW 197 ° 0 min 0,000 mm 0,0 UV-I 11 W/m² 11,6 °C 12,9 °C 0,0 km/h (0 Bft)
15.08.2018 06:39 12,9 °C 92 % 1017,9 hPa 0,0 mm 0,0 km/h (0 Bft) S-SW 197 ° 0 min 0,000 mm 0,0 UV-I 12 W/m² 11,6 °C 12,9 °C 0,0 km/h (0 Bft)
15.08.2018 06:40 12,9 °C 92 % 1017,9 hPa 0,0 mm 0,0 km/h (0 Bft) S-SW 197 ° 0 min 0,000 mm 0,0 UV-I 12 W/m² 11,6 °C 12,9 °C 0,0 km/h (0 Bft)
15.08.2018 06:41 12,8 °C 92 % 1017,9 hPa 0,0 mm 0,0 km/h (0 Bft) S-SW 197 ° 0 min 0,000 mm 0,0 UV-I 12 W/m² 11,5 °C 12,8 °C 0,0 km/h (0 Bft)
15.08.2018 06:42 12,8 °C 92 % 1018,0 hPa 0,0 mm 0,0 km/h (0 Bft) S-SW 197 ° 0 min 0,000 mm 0,0 UV-I 14 W/m² 11,5 °C 12,8 °C 0,0 km/h (0 Bft)
15.08.2018 06:43 12,8 °C 92 % 1018,0 hPa 0,0 mm 0,0 km/h (0 Bft) S-SW 197 ° 0 min 0,000 mm 0,0 UV-I 14 W/m² 11,5 °C 12,8 °C 0,0 km/h (0 Bft)
15.08.2018 06:44 12,8 °C 92 % 1018,0 hPa 0,0 mm 0,0 km/h (0 Bft) S-SW 197 ° 0 min 0,000 mm 0,0 UV-I 14 W/m² 11,5 °C 12,8 °C 0,0 km/h (0 Bft)
15.08.2018 06:45 12,8 °C 92 % 1018,0 hPa 0,0 mm 0,0 km/h (0 Bft) S-SW 197 ° 0 min 0,000 mm 0,0 UV-I 14 W/m² 11,5 °C 12,8 °C 0,0 km/h (0 Bft)
15.08.2018 06:46 12,7 °C 92 % 1018,0 hPa 0,0 mm 0,0 km/h (0 Bft) S-SW 197 ° 0 min 0,000 mm 0,0 UV-I 16 W/m² 11,4 °C 12,7 °C 0,0 km/h (0 Bft)
15.08.2018 06:47 12,8 °C 92 % 1018,0 hPa 0,0 mm 0,0 km/h (0 Bft) S-SW 197 ° 0 min 0,000 mm 0,0 UV-I 16 W/m² 11,5 °C 12,8 °C 0,0 km/h (0 Bft)
15.08.2018 06:48 12,8 °C 92 % 1018,0 hPa 0,0 mm 0,0 km/h (0 Bft) S-SW 197 ° 0 min 0,000 mm 0,0 UV-I 18 W/m² 11,5 °C 12,8 °C 0,0 km/h (0 Bft)
15.08.2018 06:49 12,8 °C 92 % 1018,0 hPa 0,0 mm 0,0 km/h (0 Bft) S-SW 197 ° 0 min 0,000 mm 0,0 UV-I 18 W/m² 11,5 °C 12,8 °C 0,0 km/h (0 Bft)
15.08.2018 06:50 12,7 °C 92 % 1018,1 hPa 0,0 mm 0,0 km/h (0 Bft) S-SW 197 ° 0 min 0,000 mm 0,0 UV-I 19 W/m² 11,4 °C 12,7 °C 0,0 km/h (0 Bft)
15.08.2018 06:51 12,7 °C 92 % 1018,1 hPa 0,0 mm 0,0 km/h (0 Bft) S-SW 197 ° 0 min 0,000 mm 0,0 UV-I 21 W/m² 11,4 °C 12,7 °C 0,0 km/h (0 Bft)
15.08.2018 06:52 12,7 °C 92 % 1018,1 hPa 0,0 mm 0,0 km/h (0 Bft) S-SW 197 ° 0 min 0,000 mm 0,0 UV-I 28 W/m² 11,4 °C 12,7 °C 0,0 km/h (0 Bft)
15.08.2018 06:53 12,8 °C 93 % 1018,1 hPa 0,0 mm 0,0 km/h (0 Bft) S-SW 197 ° 0 min 0,000 mm 0,0 UV-I 32 W/m² 11,7 °C 12,8 °C 0,0 km/h (0 Bft)
15.08.2018 06:54 12,8 °C 93 % 1018,1 hPa 0,0 mm 0,0 km/h (0 Bft) S-SW 197 ° 0 min 0,000 mm 0,0 UV-I 35 W/m² 11,7 °C 12,8 °C 0,0 km/h (0 Bft)
15.08.2018 06:55 12,8 °C 93 % 1018,1 hPa 0,0 mm 0,0 km/h (0 Bft) S-SW 197 ° 0 min 0,000 mm 0,0 UV-I 37 W/m² 11,7 °C 12,8 °C 0,0 km/h (0 Bft)
15.08.2018 06:56 12,8 °C 93 % 1018,1 hPa 0,0 mm 0,0 km/h (0 Bft) S-SW 197 ° 0 min 0,000 mm 0,0 UV-I 40 W/m² 11,7 °C 12,8 °C 0,0 km/h (0 Bft)
15.08.2018 06:57 12,8 °C 93 % 1018,1 hPa 0,0 mm 0,0 km/h (0 Bft) S-SW 197 ° 0 min 0,000 mm 0,0 UV-I 42 W/m² 11,7 °C 12,8 °C 0,0 km/h (0 Bft)
15.08.2018 06:58 12,8 °C 93 % 1018,1 hPa 0,0 mm 0,0 km/h (0 Bft) S-SW 197 ° 0 min 0,000 mm 0,0 UV-I 44 W/m² 11,7 °C 12,8 °C 0,0 km/h (0 Bft)
15.08.2018 06:59 12,9 °C 93 % 1018,1 hPa 0,0 mm 0,0 km/h (0 Bft) S-SW 197 ° 0 min 0,000 mm 0,0 UV-I 44 W/m² 11,8 °C 12,9 °C 0,0 km/h (0 Bft)
15.08.2018 07:00 13,1 °C 93 % 1018,1 hPa 0,0 mm 0,0 km/h (0 Bft) S-SW 197 ° 0 min 0,000 mm 0,0 UV-I 46 W/m² 12,0 °C 13,1 °C 0,0 km/h (0 Bft)
15.08.2018 07:01 13,2 °C 93 % 1018,1 hPa 0,0 mm 0,0 km/h (0 Bft) S-SW 197 ° 0 min 0,000 mm 0,0 UV-I 47 W/m² 12,1 °C 13,2 °C 0,0 km/h (0 Bft)
15.08.2018 07:02 13,2 °C 93 % 1018,1 hPa 0,0 mm 0,0 km/h (0 Bft) S-SW 197 ° 0 min 0,000 mm 0,0 UV-I 49 W/m² 12,1 °C 13,2 °C 0,0 km/h (0 Bft)
15.08.2018 07:03 13,2 °C 93 % 1018,1 hPa 0,0 mm 0,0 km/h (0 Bft) S-SW 197 ° 0 min 0,000 mm 0,0 UV-I 49 W/m² 12,1 °C 13,2 °C 0,0 km/h (0 Bft)
15.08.2018 07:04 13,3 °C 93 % 1018,1 hPa 0,0 mm 0,0 km/h (0 Bft) S-SW 197 ° 0 min 0,000 mm 0,0 UV-I 49 W/m² 12,2 °C 13,3 °C 0,0 km/h (0 Bft)
15.08.2018 07:05 13,3 °C 93 % 1018,1 hPa 0,0 mm 0,0 km/h (0 Bft) S-SW 197 ° 0 min 0,000 mm 0,0 UV-I 49 W/m² 12,2 °C 13,3 °C 0,0 km/h (0 Bft)
15.08.2018 07:06 13,3 °C 93 % 1018,1 hPa 0,0 mm 0,0 km/h (0 Bft) S-SW 197 ° 0 min 0,000 mm 0,0 UV-I 49 W/m² 12,2 °C 13,3 °C 0,0 km/h (0 Bft)
15.08.2018 07:07 13,4 °C 93 % 1018,1 hPa 0,0 mm 0,0 km/h (0 Bft) S-SW 197 ° 0 min 0,000 mm 0,0 UV-I 47 W/m² 12,3 °C 13,4 °C 0,0 km/h (0 Bft)
15.08.2018 07:08 13,4 °C 93 % 1018,1 hPa 0,0 mm 0,0 km/h (0 Bft) S-SW 197 ° 0 min 0,000 mm 0,0 UV-I 46 W/m² 12,3 °C 13,4 °C 0,0 km/h (0 Bft)
15.08.2018 07:09 13,5 °C 93 % 1018,1 hPa 0,0 mm 0,0 km/h (0 Bft) S-SW 197 ° 0 min 0,000 mm 0,0 UV-I 44 W/m² 12,4 °C 13,5 °C 0,0 km/h (0 Bft)
15.08.2018 07:10 13,6 °C 93 % 1018,1 hPa 0,0 mm 0,0 km/h (0 Bft) S-SW 197 ° 0 min 0,000 mm 0,0 UV-I 42 W/m² 12,5 °C 13,6 °C 0,0 km/h (0 Bft)
15.08.2018 07:11 13,6 °C 93 % 1018,2 hPa 0,0 mm 0,0 km/h (0 Bft) S-SW 197 ° 0 min 0,000 mm 0,0 UV-I 42 W/m² 12,5 °C 13,6 °C 0,0 km/h (0 Bft)
15.08.2018 07:12 13,6 °C 93 % 1018,2 hPa 0,0 mm 0,0 km/h (0 Bft) S-SW 197 ° 0 min 0,000 mm 0,0 UV-I 42 W/m² 12,5 °C 13,6 °C 0,0 km/h (0 Bft)
15.08.2018 07:13 13,7 °C 93 % 1018,2 hPa 0,0 mm 0,0 km/h (0 Bft) S-SW 197 ° 0 min 0,000 mm 0,0 UV-I 42 W/m² 12,6 °C 13,7 °C 0,0 km/h (0 Bft)
15.08.2018 07:14 13,7 °C 93 % 1018,2 hPa 0,0 mm 0,0 km/h (0 Bft) S-SW 197 ° 0 min 0,000 mm 0,0 UV-I 44 W/m² 12,6 °C 13,7 °C 0,0 km/h (0 Bft)
15.08.2018 07:15 13,7 °C 92 % 1018,2 hPa 0,0 mm 0,0 km/h (0 Bft) S-SW 197 ° 0 min 0,000 mm 0,0 UV-I 42 W/m² 12,4 °C 13,7 °C 0,0 km/h (0 Bft)
15.08.2018 07:16 13,7 °C 92 % 1018,2 hPa 0,0 mm 0,0 km/h (0 Bft) S-SW 197 ° 0 min 0,000 mm 0,0 UV-I 42 W/m² 12,4 °C 13,7 °C 0,0 km/h (0 Bft)
15.08.2018 07:17 13,7 °C 92 % 1018,2 hPa 0,0 mm 0,0 km/h (0 Bft) S-SW 197 ° 0 min 0,000 mm 0,0 UV-I 44 W/m² 12,4 °C 13,7 °C 0,0 km/h (0 Bft)
15.08.2018 07:18 13,7 °C 92 % 1018,2 hPa 0,0 mm 0,0 km/h (0 Bft) S-SW 197 ° 0 min 0,000 mm 0,0 UV-I 44 W/m² 12,4 °C 13,7 °C 0,0 km/h (0 Bft)
15.08.2018 07:19 13,7 °C 92 % 1018,1 hPa 0,0 mm 0,0 km/h (0 Bft) S-SW 197 ° 0 min 0,000 mm 0,0 UV-I 44 W/m² 12,4 °C 13,7 °C 0,0 km/h (0 Bft)
15.08.2018 07:20 13,7 °C 92 % 1018,1 hPa 0,0 mm 0,0 km/h (0 Bft) S-SW 197 ° 0 min 0,000 mm 0,0 UV-I 42 W/m² 12,4 °C 13,7 °C 0,0 km/h (0 Bft)
15.08.2018 07:21 13,8 °C 92 % 1018,2 hPa 0,0 mm 0,0 km/h (0 Bft) S-SW 197 ° 0 min 0,000 mm 0,0 UV-I 42 W/m² 12,5 °C 13,8 °C 0,0 km/h (0 Bft)
15.08.2018 07:22 13,8 °C 92 % 1018,2 hPa 0,0 mm 0,0 km/h (0 Bft) S-SW 197 ° 0 min 0,000 mm 0,0 UV-I 42 W/m² 12,5 °C 13,8 °C 0,0 km/h (0 Bft)
15.08.2018 07:23 13,8 °C 92 % 1018,2 hPa 0,0 mm 0,0 km/h (0 Bft) S-SW 197 ° 0 min 0,000 mm 0,0 UV-I 42 W/m² 12,5 °C 13,8 °C 0,0 km/h (0 Bft)
15.08.2018 07:24 13,8 °C 92 % 1018,2 hPa 0,0 mm 0,0 km/h (0 Bft) S-SW 197 ° 0 min 0,000 mm 0,0 UV-I 42 W/m² 12,5 °C 13,8 °C 0,0 km/h (0 Bft)
15.08.2018 07:25 13,8 °C 92 % 1018,2 hPa 0,0 mm 0,0 km/h (0 Bft) S-SW 197 ° 0 min 0,000 mm 0,0 UV-I 42 W/m² 12,5 °C 13,8 °C 0,0 km/h (0 Bft)
15.08.2018 07:26 13,8 °C 92 % 1018,2 hPa 0,0 mm 0,0 km/h (0 Bft) S-SW 197 ° 0 min 0,000 mm 0,0 UV-I 44 W/m² 12,5 °C 13,8 °C 0,0 km/h (0 Bft)
15.08.2018 07:27 13,8 °C 92 % 1018,2 hPa 0,0 mm 0,0 km/h (0 Bft) S-SW 197 ° 0 min 0,000 mm 0,0 UV-I 44 W/m² 12,5 °C 13,8 °C 0,0 km/h (0 Bft)
15.08.2018 07:28 13,7 °C 92 % 1018,2 hPa 0,0 mm 0,0 km/h (0 Bft) S-SW 197 ° 0 min 0,000 mm 0,0 UV-I 44 W/m² 12,4 °C 13,7 °C 0,0 km/h (0 Bft)
15.08.2018 07:29 13,7 °C 92 % 1018,2 hPa 0,0 mm 0,0 km/h (0 Bft) S-SW 197 ° 0 min 0,000 mm 0,0 UV-I 46 W/m² 12,4 °C 13,7 °C 0,0 km/h (0 Bft)
15.08.2018 07:30 13,7 °C 92 % 1018,2 hPa 0,0 mm 0,0 km/h (0 Bft) S-SW 197 ° 0 min 0,000 mm 0,0 UV-I 49 W/m² 12,4 °C 13,7 °C 0,0 km/h (0 Bft)
15.08.2018 07:31 13,8 °C 92 % 1018,2 hPa 0,0 mm 0,0 km/h (0 Bft) S-SW 197 ° 0 min 0,000 mm 0,0 UV-I 53 W/m² 12,5 °C 13,8 °C 0,0 km/h (0 Bft)
15.08.2018 07:32 13,8 °C 92 % 1018,2 hPa 0,0 mm 0,0 km/h (0 Bft) S-SW 197 ° 0 min 0,000 mm 0,0 UV-I 51 W/m² 12,5 °C 13,8 °C 0,0 km/h (0 Bft)
15.08.2018 07:33 13,8 °C 92 % 1018,2 hPa 0,0 mm 0,0 km/h (0 Bft) S-SW 197 ° 0 min 0,000 mm 0,0 UV-I 47 W/m² 12,5 °C 13,8 °C 0,0 km/h (0 Bft)
15.08.2018 07:34 13,8 °C 92 % 1018,1 hPa 0,0 mm 0,0 km/h (0 Bft) S-SW 197 ° 0 min 0,000 mm 0,0 UV-I 47 W/m² 12,5 °C 13,8 °C 0,0 km/h (0 Bft)
15.08.2018 07:35 13,9 °C 92 % 1018,1 hPa 0,0 mm 0,0 km/h (0 Bft) S-SW 197 ° 0 min 0,000 mm 0,0 UV-I 51 W/m² 12,6 °C 13,9 °C 0,0 km/h (0 Bft)
15.08.2018 07:36 13,9 °C 92 % 1018,2 hPa 0,0 mm 0,0 km/h (0 Bft) S-SW 197 ° 0 min 0,000 mm 0,0 UV-I 54 W/m² 12,6 °C 13,9 °C 0,0 km/h (0 Bft)
15.08.2018 07:37 14,0 °C 92 % 1018,2 hPa 0,0 mm 0,0 km/h (0 Bft) S-SW 197 ° 0 min 0,000 mm 0,5 UV-I 58 W/m² 12,7 °C 14,0 °C 0,0 km/h (0 Bft)
15.08.2018 07:38 14,1 °C 91 % 1018,2 hPa 0,0 mm 0,0 km/h (0 Bft) S-SW 197 ° 0 min 0,000 mm 0,6 UV-I 63 W/m² 12,7 °C 14,1 °C 0,0 km/h (0 Bft)
15.08.2018 07:39 14,1 °C 91 % 1018,2 hPa 0,0 mm 0,0 km/h (0 Bft) S-SW 197 ° 0 min 0,000 mm 0,6 UV-I 74 W/m² 12,7 °C 14,1 °C 0,0 km/h (0 Bft)
15.08.2018 07:40 14,2 °C 91 % 1018,2 hPa 0,0 mm 0,0 km/h (0 Bft) S-SW 197 ° 0 min 0,000 mm 0,6 UV-I 104 W/m² 12,8 °C 14,2 °C 0,0 km/h (0 Bft)
15.08.2018 07:41 14,2 °C 91 % 1018,2 hPa 0,0 mm 0,0 km/h (0 Bft) S-SW 197 ° 0 min 0,000 mm 0,6 UV-I 139 W/m² 12,8 °C 14,2 °C 0,0 km/h (0 Bft)
15.08.2018 07:42 14,2 °C 91 % 1018,2 hPa 0,0 mm 0,0 km/h (0 Bft) S-SW 197 ° 0 min 0,000 mm 0,6 UV-I 151 W/m² 12,8 °C 14,2 °C 0,0 km/h (0 Bft)
15.08.2018 07:43 14,2 °C 91 % 1018,2 hPa 0,0 mm 0,0 km/h (0 Bft) S-SW 197 ° 0 min 0,000 mm 0,6 UV-I 153 W/m² 12,8 °C 14,2 °C 0,0 km/h (0 Bft)
15.08.2018 07:44 14,2 °C 91 % 1018,2 hPa 0,0 mm 0,0 km/h (0 Bft) S-SW 197 ° 0 min 0,000 mm 0,6 UV-I 155 W/m² 12,8 °C 14,2 °C 0,0 km/h (0 Bft)
15.08.2018 07:45 14,3 °C 90 % 1018,2 hPa 0,0 mm 0,0 km/h (0 Bft) S-SW 197 ° 0 min 0,000 mm 0,7 UV-I 162 W/m² 12,7 °C 14,3 °C 0,0 km/h (0 Bft)
15.08.2018 07:46 14,3 °C 90 % 1018,2 hPa 0,0 mm 0,0 km/h (0 Bft) S-SW 197 ° 0 min 0,000 mm 0,7 UV-I 165 W/m² 12,7 °C 14,3 °C 0,0 km/h (0 Bft)
15.08.2018 07:47 14,4 °C 90 % 1018,2 hPa 0,0 mm 0,0 km/h (0 Bft) S-SW 197 ° 0 min 0,000 mm 0,7 UV-I 167 W/m² 12,8 °C 14,4 °C 0,0 km/h (0 Bft)
15.08.2018 07:48 14,5 °C 90 % 1018,2 hPa 0,0 mm 0,0 km/h (0 Bft) S-SW 197 ° 0 min 0,000 mm 0,7 UV-I 171 W/m² 12,9 °C 14,5 °C 0,0 km/h (0 Bft)
15.08.2018 07:49 14,5 °C 89 % 1018,2 hPa 0,0 mm 0,0 km/h (0 Bft) S-SW 197 ° 0 min 0,000 mm 0,7 UV-I 172 W/m² 12,7 °C 14,5 °C 0,0 km/h (0 Bft)
15.08.2018 07:50 14,6 °C 89 % 1018,2 hPa 0,0 mm 0,0 km/h (0 Bft) S-SW 197 ° 0 min 0,000 mm 0,7 UV-I 174 W/m² 12,8 °C 14,6 °C 0,0 km/h (0 Bft)
15.08.2018 07:51 14,6 °C 90 % 1018,2 hPa 0,0 mm 0,0 km/h (0 Bft) S-SW 197 ° 0 min 0,000 mm 0,7 UV-I 174 W/m² 13,0 °C 14,6 °C 0,0 km/h (0 Bft)
15.08.2018 07:52 14,5 °C 89 % 1018,2 hPa 0,0 mm 0,0 km/h (0 Bft) S-SW 197 ° 0 min 0,000 mm 0,8 UV-I 172 W/m² 12,7 °C 14,5 °C 0,0 km/h (0 Bft)
15.08.2018 07:53 14,6 °C 90 % 1018,3 hPa 0,0 mm 0,0 km/h (0 Bft) S-SW 197 ° 0 min 0,000 mm 0,8 UV-I 172 W/m² 13,0 °C 14,6 °C 0,0 km/h (0 Bft)
15.08.2018 07:54 14,6 °C 90 % 1018,3 hPa 0,0 mm 0,0 km/h (0 Bft) S-SW 197 ° 0 min 0,000 mm 0,8 UV-I 174 W/m² 13,0 °C 14,6 °C 0,0 km/h (0 Bft)
15.08.2018 07:55 14,6 °C 90 % 1018,3 hPa 0,0 mm 0,0 km/h (0 Bft) S-SW 197 ° 0 min 0,000 mm 0,8 UV-I 178 W/m² 13,0 °C 14,6 °C 0,0 km/h (0 Bft)
15.08.2018 07:56 14,6 °C 90 % 1018,3 hPa 0,0 mm 0,0 km/h (0 Bft) S-SW 197 ° 0 min 0,000 mm 0,8 UV-I 181 W/m² 13,0 °C 14,6 °C 0,0 km/h (0 Bft)
15.08.2018 07:57 14,6 °C 89 % 1018,2 hPa 0,0 mm 0,0 km/h (0 Bft) S-SW 197 ° 0 min 0,000 mm 0,8 UV-I 192 W/m² 12,8 °C 14,6 °C 0,0 km/h (0 Bft)
15.08.2018 07:58 14,7 °C 89 % 1018,3 hPa 0,0 mm 0,0 km/h (0 Bft) S-SW 197 ° 0 min 0,000 mm 0,8 UV-I 197 W/m² 12,9 °C 14,7 °C 0,0 km/h (0 Bft)
15.08.2018 07:59 14,7 °C 89 % 1018,4 hPa 0,0 mm 0,0 km/h (0 Bft) S-SW 197 ° 0 min 0,000 mm 0,9 UV-I 200 W/m² 12,9 °C 14,7 °C 0,0 km/h (0 Bft)
15.08.2018 08:00 14,9 °C 89 % 1018,4 hPa 0,0 mm 0,0 km/h (0 Bft) S-SW 197 ° 0 min 0,051 mm 0,9 UV-I 202 W/m² 13,1 °C 14,9 °C 0,0 km/h (0 Bft)
15.08.2018 08:01 15,0 °C 89 % 1018,4 hPa 0,0 mm 0,0 km/h (0 Bft) S-SW 197 ° 0 min 0,000 mm 0,9 UV-I 204 W/m² 13,2 °C 15,0 °C 0,0 km/h (0 Bft)
15.08.2018 08:02 15,1 °C 88 % 1018,4 hPa 0,0 mm 0,0 km/h (0 Bft) S-SW 197 ° 0 min 0,000 mm 0,9 UV-I 206 W/m² 13,1 °C 15,1 °C 0,0 km/h (0 Bft)
15.08.2018 08:03 15,1 °C 88 % 1018,4 hPa 0,0 mm 0,0 km/h (0 Bft) S-SW 197 ° 0 min 0,000 mm 0,9 UV-I 206 W/m² 13,1 °C 15,1 °C 0,0 km/h (0 Bft)
15.08.2018 08:04 15,1 °C 88 % 1018,4 hPa 0,0 mm 0,0 km/h (0 Bft) S-SW 197 ° 0 min 0,000 mm 0,9 UV-I 204 W/m² 13,1 °C 15,1 °C 0,0 km/h (0 Bft)
15.08.2018 08:05 15,1 °C 88 % 1018,4 hPa 0,0 mm 0,0 km/h (0 Bft) S-SW 197 ° 0 min 0,000 mm 0,9 UV-I 204 W/m² 13,1 °C 15,1 °C 0,0 km/h (0 Bft)
15.08.2018 08:06 15,0 °C 88 % 1018,4 hPa 0,0 mm 0,0 km/h (0 Bft) S-SW 197 ° 0 min 0,000 mm 0,9 UV-I 207 W/m² 13,0 °C 15,0 °C 0,0 km/h (0 Bft)
15.08.2018 08:07 14,9 °C 88 % 1018,3 hPa 0,0 mm 0,0 km/h (0 Bft) S-SW 197 ° 0 min 0,000 mm 0,9 UV-I 209 W/m² 12,9 °C 14,9 °C 0,0 km/h (0 Bft)
15.08.2018 08:08 15,0 °C 88 % 1018,4 hPa 0,0 mm 0,0 km/h (0 Bft) S-SW 197 ° 0 min 0,000 mm 1,0 UV-I 213 W/m² 13,0 °C 15,0 °C 0,0 km/h (0 Bft)
15.08.2018 08:09 15,1 °C 88 % 1018,3 hPa 0,0 mm 0,0 km/h (0 Bft) S-SW 197 ° 0 min 0,000 mm 1,0 UV-I 220 W/m² 13,1 °C 15,1 °C 0,0 km/h (0 Bft)
15.08.2018 08:10 15,1 °C 88 % 1018,3 hPa 0,0 mm 0,0 km/h (0 Bft) S-SW 197 ° 0 min 0,000 mm 1,0 UV-I 227 W/m² 13,1 °C 15,1 °C 0,0 km/h (0 Bft)
15.08.2018 08:11 15,1 °C 88 % 1018,3 hPa 0,0 mm 0,0 km/h (0 Bft) S-SW 197 ° 0 min 0,000 mm 1,0 UV-I 232 W/m² 13,1 °C 15,1 °C 0,0 km/h (0 Bft)
15.08.2018 08:12 15,1 °C 88 % 1018,3 hPa 0,0 mm 0,0 km/h (0 Bft) S-SW 197 ° 0 min 0,000 mm 1,0 UV-I 236 W/m² 13,1 °C 15,1 °C 0,0 km/h (0 Bft)
15.08.2018 08:13 15,2 °C 88 % 1018,3 hPa 0,0 mm 0,0 km/h (0 Bft) S-SW 197 ° 0 min 0,000 mm 1,1 UV-I 239 W/m² 13,2 °C 15,2 °C 0,0 km/h (0 Bft)
15.08.2018 08:14 15,2 °C 88 % 1018,3 hPa 0,0 mm 0,0 km/h (0 Bft) S-SW 197 ° 0 min 0,000 mm 1,1 UV-I 244 W/m² 13,2 °C 15,2 °C 0,0 km/h (0 Bft)
15.08.2018 08:15 15,2 °C 88 % 1018,3 hPa 0,0 mm 0,0 km/h (0 Bft) S-SW 197 ° 0 min 0,000 mm 1,1 UV-I 250 W/m² 13,2 °C 15,2 °C 0,0 km/h (0 Bft)
15.08.2018 08:16 15,2 °C 87 % 1018,3 hPa 0,0 mm 0,0 km/h (0 Bft) S-SW 197 ° 0 min 0,000 mm 1,1 UV-I 251 W/m² 13,0 °C 15,2 °C 0,0 km/h (0 Bft)
15.08.2018 08:17 15,2 °C 87 % 1018,3 hPa 0,0 mm 0,0 km/h (0 Bft) S-SW 197 ° 0 min 0,000 mm 1,1 UV-I 255 W/m² 13,0 °C 15,2 °C 0,0 km/h (0 Bft)
15.08.2018 08:18 15,4 °C 87 % 1018,4 hPa 0,0 mm 0,0 km/h (0 Bft) S-SW 197 ° 0 min 0,000 mm 1,2 UV-I 260 W/m² 13,2 °C 15,4 °C 0,0 km/h (0 Bft)
15.08.2018 08:19 15,6 °C 88 % 1018,4 hPa 0,0 mm 0,0 km/h (0 Bft) S-SW 197 ° 0 min 0,000 mm 1,2 UV-I 264 W/m² 13,6 °C 15,6 °C 0,0 km/h (0 Bft)
15.08.2018 08:20 15,7 °C 87 % 1018,4 hPa 0,0 mm 0,0 km/h (0 Bft) S-SW 197 ° 0 min 0,000 mm 1,2 UV-I 269 W/m² 13,5 °C 15,7 °C 0,0 km/h (0 Bft)
15.08.2018 08:21 15,9 °C 87 % 1018,4 hPa 0,0 mm 0,0 km/h (0 Bft) S-SW 197 ° 0 min 0,000 mm 1,2 UV-I 276 W/m² 13,7 °C 15,9 °C 0,0 km/h (0 Bft)
15.08.2018 08:22 16,1 °C 86 % 1018,4 hPa 0,0 mm 0,0 km/h (0 Bft) S-SW 197 ° 0 min 0,000 mm 1,3 UV-I 281 W/m² 13,8 °C 16,1 °C 0,0 km/h (0 Bft)
15.08.2018 08:23 16,1 °C 87 % 1018,4 hPa 0,0 mm 0,0 km/h (0 Bft) S-SW 197 ° 0 min 0,000 mm 1,3 UV-I 283 W/m² 13,9 °C 16,1 °C 0,0 km/h (0 Bft)
15.08.2018 08:24 16,2 °C 86 % 1018,4 hPa 0,0 mm 0,0 km/h (0 Bft) S-SW 197 ° 0 min 0,000 mm 1,3 UV-I 281 W/m² 13,9 °C 16,2 °C 0,0 km/h (0 Bft)
15.08.2018 08:25 16,3 °C 87 % 1018,4 hPa 0,0 mm 0,0 km/h (0 Bft) S-SW 197 ° 0 min 0,000 mm 1,3 UV-I 285 W/m² 14,1 °C 16,3 °C 0,0 km/h (0 Bft)
15.08.2018 08:26 16,3 °C 87 % 1018,4 hPa 0,0 mm 0,0 km/h (0 Bft) S-SW 197 ° 0 min 0,000 mm 1,3 UV-I 279 W/m² 14,1 °C 16,3 °C 0,0 km/h (0 Bft)
15.08.2018 08:27 16,3 °C 85 % 1018,4 hPa 0,0 mm 0,0 km/h (0 Bft) S-SW 197 ° 0 min 0,000 mm 1,3 UV-I 281 W/m² 13,8 °C 16,3 °C 0,0 km/h (0 Bft)
15.08.2018 08:28 16,3 °C 85 % 1018,5 hPa 0,0 mm 0,0 km/h (0 Bft) S-SW 197 ° 0 min 0,000 mm 1,3 UV-I 281 W/m² 13,8 °C 16,3 °C 0,0 km/h (0 Bft)
15.08.2018 08:29 16,3 °C 85 % 1018,5 hPa 0,0 mm 0,0 km/h (0 Bft) S-SW 197 ° 0 min 0,000 mm 1,4 UV-I 288 W/m² 13,8 °C 16,3 °C 0,0 km/h (0 Bft)
15.08.2018 08:30 16,2 °C 84 % 1018,5 hPa 0,0 mm 0,0 km/h (0 Bft) S-SW 197 ° 0 min 0,000 mm 1,4 UV-I 297 W/m² 13,5 °C 16,2 °C 0,0 km/h (0 Bft)
15.08.2018 08:31 16,1 °C 85 % 1018,4 hPa 0,0 mm 0,0 km/h (0 Bft) S-SW 197 ° 0 min 0,000 mm 1,4 UV-I 301 W/m² 13,6 °C 16,1 °C 0,0 km/h (0 Bft)
15.08.2018 08:32 16,1 °C 86 % 1018,4 hPa 0,0 mm 0,0 km/h (0 Bft) S-SW 197 ° 0 min 0,000 mm 1,4 UV-I 301 W/m² 13,8 °C 16,1 °C 0,0 km/h (0 Bft)
15.08.2018 08:33 16,0 °C 86 % 1018,4 hPa 0,0 mm 0,0 km/h (0 Bft) S-SW 197 ° 0 min 0,000 mm 1,5 UV-I 306 W/m² 13,7 °C 16,0 °C 0,0 km/h (0 Bft)
15.08.2018 08:34 16,1 °C 86 % 1018,4 hPa 0,0 mm 0,0 km/h (0 Bft) S-SW 197 ° 0 min 0,000 mm 1,5 UV-I 311 W/m² 13,8 °C 16,1 °C 0,0 km/h (0 Bft)
15.08.2018 08:35 16,1 °C 86 % 1018,4 hPa 0,0 mm 0,0 km/h (0 Bft) S-SW 197 ° 0 min 0,000 mm 1,5 UV-I 313 W/m² 13,8 °C 16,1 °C 0,0 km/h (0 Bft)
15.08.2018 08:36 16,1 °C 86 % 1018,4 hPa 0,0 mm 0,0 km/h (0 Bft) S-SW 197 ° 0 min 0,000 mm 1,6 UV-I 316 W/m² 13,8 °C 16,1 °C 0,0 km/h (0 Bft)
15.08.2018 08:37 16,1 °C 88 % 1018,4 hPa 0,0 mm 0,0 km/h (0 Bft) S-SW 197 ° 0 min 0,000 mm 1,6 UV-I 318 W/m² 14,1 °C 16,1 °C 0,0 km/h (0 Bft)
15.08.2018 08:38 16,1 °C 87 % 1018,4 hPa 0,0 mm 0,0 km/h (0 Bft) S-SW 197 ° 0 min 0,000 mm 1,6 UV-I 322 W/m² 13,9 °C 16,1 °C 0,0 km/h (0 Bft)
15.08.2018 08:39 16,3 °C 89 % 1018,4 hPa 0,0 mm 0,0 km/h (0 Bft) S-SW 197 ° 0 min 0,000 mm 1,6 UV-I 323 W/m² 14,5 °C 16,3 °C 0,0 km/h (0 Bft)
15.08.2018 08:40 16,3 °C 88 % 1018,4 hPa 0,0 mm 0,0 km/h (0 Bft) S-SW 198 ° 0 min 0,000 mm 1,7 UV-I 327 W/m² 14,3 °C 16,3 °C 0,0 km/h (0 Bft)
15.08.2018 08:41 16,3 °C 87 % 1018,4 hPa 0,0 mm 0,0 km/h (0 Bft) S-SW 198 ° 0 min 0,000 mm 1,7 UV-I 330 W/m² 14,1 °C 16,3 °C 0,0 km/h (0 Bft)
15.08.2018 08:42 16,4 °C 85 % 1018,4 hPa 0,0 mm 0,0 km/h (0 Bft) S-SW 197 ° 0 min 0,000 mm 1,7 UV-I 330 W/m² 13,9 °C 16,4 °C 0,0 km/h (0 Bft)
15.08.2018 08:43 16,4 °C 86 % 1018,4 hPa 0,0 mm 0,0 km/h (0 Bft) S-SW 197 ° 0 min 0,000 mm 1,7 UV-I 338 W/m² 14,1 °C 16,4 °C 0,0 km/h (0 Bft)
15.08.2018 08:44 16,4 °C 86 % 1018,4 hPa 0,0 mm 0,0 km/h (0 Bft) S-SW 197 ° 0 min 0,000 mm 1,7 UV-I 348 W/m² 14,1 °C 16,4 °C 0,0 km/h (0 Bft)
15.08.2018 08:45 16,4 °C 86 % 1018,4 hPa 0,0 mm 0,0 km/h (0 Bft) SW 221 ° 0 min 0,000 mm 1,8 UV-I 352 W/m² 14,1 °C 16,4 °C 0,0 km/h (0 Bft)
15.08.2018 08:46 16,3 °C 85 % 1018,4 hPa 0,0 mm 0,0 km/h (0 Bft) N-NW 329 ° 0 min 0,000 mm 1,8 UV-I 355 W/m² 13,8 °C 16,3 °C 0,0 km/h (0 Bft)
15.08.2018 08:47 16,4 °C 86 % 1018,4 hPa 0,0 mm 0,0 km/h (0 Bft) N-NW 336 ° 0 min 0,000 mm 1,8 UV-I 355 W/m² 14,1 °C 16,4 °C 0,0 km/h (0 Bft)
15.08.2018 08:48 16,6 °C 86 % 1018,4 hPa 0,0 mm 0,0 km/h (0 Bft) N-NW 336 ° 0 min 0,000 mm 1,9 UV-I 359 W/m² 14,2 °C 16,6 °C 0,0 km/h (0 Bft)
15.08.2018 08:49 16,7 °C 86 % 1018,4 hPa 0,0 mm 0,0 km/h (0 Bft) N 360 ° 0 min 0,000 mm 1,9 UV-I 359 W/m² 14,3 °C 16,7 °C 0,0 km/h (0 Bft)
15.08.2018 08:50 16,8 °C 86 % 1018,4 hPa 0,0 mm 0,0 km/h (0 Bft) N-NW 336 ° 0 min 0,000 mm 1,9 UV-I 367 W/m² 14,4 °C 16,8 °C 0,0 km/h (0 Bft)
15.08.2018 08:51 16,9 °C 85 % 1018,5 hPa 0,0 mm 0,0 km/h (0 Bft) N-NW 337 ° 0 min 0,000 mm 1,9 UV-I 369 W/m² 14,4 °C 16,9 °C 0,0 km/h (0 Bft)
15.08.2018 08:52 16,9 °C 85 % 1018,4 hPa 0,0 mm 0,0 km/h (0 Bft) N-NW 337 ° 0 min 0,000 mm 1,9 UV-I 373 W/m² 14,4 °C 16,9 °C 0,0 km/h (0 Bft)
15.08.2018 08:53 16,9 °C 83 % 1018,4 hPa 0,0 mm 0,0 km/h (0 Bft) N-NW 337 ° 0 min 0,000 mm 1,9 UV-I 378 W/m² 14,0 °C 16,9 °C 0,0 km/h (0 Bft)
15.08.2018 08:54 16,9 °C 84 % 1018,4 hPa 0,0 mm 0,0 km/h (0 Bft) N-NW 337 ° 0 min 0,000 mm 2,0 UV-I 381 W/m² 14,2 °C 16,9 °C 0,0 km/h (0 Bft)
15.08.2018 08:55 16,9 °C 85 % 1018,4 hPa 0,0 mm 0,0 km/h (0 Bft) N-NW 346 ° 0 min 0,000 mm 2,0 UV-I 385 W/m² 14,4 °C 16,9 °C 0,0 km/h (0 Bft)
15.08.2018 08:56 16,9 °C 84 % 1018,4 hPa 0,0 mm 0,0 km/h (0 Bft) N-NW 331 ° 0 min 0,000 mm 2,0 UV-I 388 W/m² 14,2 °C 16,9 °C 0,0 km/h (0 Bft)
15.08.2018 08:57 17,1 °C 85 % 1018,4 hPa 0,0 mm 0,0 km/h (0 Bft) N-NW 331 ° 0 min 0,000 mm 2,0 UV-I 392 W/m² 14,6 °C 17,1 °C 0,0 km/h (0 Bft)
15.08.2018 08:58 17,2 °C 86 % 1018,4 hPa 0,0 mm 3,4 km/h (1 Bft) N-NW 330 ° 0 min 0,000 mm 1,9 UV-I 308 W/m² 14,8 °C 17,2 °C 6,4 km/h (2 Bft)
15.08.2018 08:59 17,3 °C 84 % 1018,4 hPa 0,0 mm 3,6 km/h (1 Bft) N-NW 329 ° 0 min 0,000 mm 2,1 UV-I 360 W/m² 14,6 °C 17,3 °C 4,8 km/h (1 Bft)
15.08.2018 09:00 17,3 °C 84 % 1018,4 hPa 0,0 mm 4,8 km/h (1 Bft) N-NW 342 ° 0 min 0,152 mm 2,1 UV-I 367 W/m² 14,6 °C 17,3 °C 6,4 km/h (2 Bft)
15.08.2018 09:01 17,3 °C 84 % 1018,4 hPa 0,0 mm 2,7 km/h (1 Bft) N-NW 336 ° 0 min 0,000 mm 2,1 UV-I 362 W/m² 14,6 °C 17,3 °C 4,8 km/h (1 Bft)
15.08.2018 09:02 17,2 °C 84 % 1018,4 hPa 0,0 mm 2,9 km/h (1 Bft) NW 321 ° 0 min 0,000 mm 1,8 UV-I 401 W/m² 14,5 °C 17,2 °C 4,8 km/h (1 Bft)
15.08.2018 09:03 17,2 °C 83 % 1018,4 hPa 0,0 mm 2,2 km/h (1 Bft) NW 321 ° 0 min 0,000 mm 1,7 UV-I 401 W/m² 14,3 °C 17,2 °C 3,2 km/h (1 Bft)
15.08.2018 09:04 17,2 °C 84 % 1018,4 hPa 0,0 mm 0,1 km/h (0 Bft) NW 321 ° 0 min 0,000 mm 1,6 UV-I 146 W/m² 14,5 °C 17,2 °C 1,6 km/h (1 Bft)
15.08.2018 09:05 17,0 °C 83 % 1018,4 hPa 0,0 mm 2,1 km/h (1 Bft) NW 321 ° 0 min 0,000 mm 1,6 UV-I 141 W/m² 14,1 °C 17,0 °C 3,2 km/h (1 Bft)
15.08.2018 09:06 16,9 °C 84 % 1018,4 hPa 0,0 mm 1,5 km/h (1 Bft) NW 321 ° 0 min 0,000 mm 1,6 UV-I 148 W/m² 14,2 °C 16,9 °C 3,2 km/h (1 Bft)
15.08.2018 09:07 16,9 °C 83 % 1018,4 hPa 0,0 mm 0,0 km/h (0 Bft) NW 321 ° 0 min 0,000 mm 1,6 UV-I 223 W/m² 14,0 °C 16,9 °C 0,0 km/h (0 Bft)
15.08.2018 09:08 16,8 °C 84 % 1018,4 hPa 0,0 mm 3,4 km/h (1 Bft) W-NW 296 ° 0 min 0,000 mm 2,2 UV-I 223 W/m² 14,1 °C 16,8 °C 9,7 km/h (2 Bft)
15.08.2018 09:09 16,8 °C 84 % 1018,4 hPa 0,0 mm 4,0 km/h (1 Bft) NW 307 ° 0 min 0,000 mm 2,2 UV-I 223 W/m² 14,1 °C 16,8 °C 4,8 km/h (1 Bft)
15.08.2018 09:10 16,8 °C 84 % 1018,3 hPa 0,0 mm 3,6 km/h (1 Bft) NW 320 ° 0 min 0,000 mm 2,3 UV-I 223 W/m² 14,1 °C 16,8 °C 4,8 km/h (1 Bft)
15.08.2018 09:11 16,9 °C 83 % 1018,3 hPa 0,0 mm 1,4 km/h (1 Bft) NW 320 ° 0 min 0,000 mm 2,0 UV-I 441 W/m² 14,0 °C 16,9 °C 3,2 km/h (1 Bft)
15.08.2018 09:12 17,0 °C 83 % 1018,4 hPa 0,0 mm 0,0 km/h (0 Bft) NW 320 ° 0 min 0,000 mm 1,6 UV-I 441 W/m² 14,1 °C 17,0 °C 0,0 km/h (0 Bft)
15.08.2018 09:13 17,0 °C 83 % 1018,4 hPa 0,0 mm 2,3 km/h (1 Bft) NW 308 ° 0 min 0,000 mm 1,5 UV-I 102 W/m² 14,1 °C 17,0 °C 4,8 km/h (1 Bft)
15.08.2018 09:14 16,9 °C 83 % 1018,3 hPa 0,0 mm 2,8 km/h (1 Bft) W-SW 253 ° 0 min 0,000 mm 1,5 UV-I 100 W/m² 14,0 °C 16,9 °C 4,8 km/h (1 Bft)
15.08.2018 09:15 16,8 °C 83 % 1018,4 hPa 0,0 mm 3,8 km/h (1 Bft) W-SW 253 ° 0 min 0,000 mm 1,5 UV-I 98 W/m² 13,9 °C 16,8 °C 4,8 km/h (1 Bft)
15.08.2018 09:16 16,7 °C 83 % 1018,4 hPa 0,0 mm 2,9 km/h (1 Bft) W 265 ° 0 min 0,000 mm 1,5 UV-I 100 W/m² 13,8 °C 16,7 °C 4,8 km/h (1 Bft)
15.08.2018 09:17 16,7 °C 84 % 1018,4 hPa 0,0 mm 2,2 km/h (1 Bft) W 269 ° 0 min 0,000 mm 1,5 UV-I 104 W/m² 14,0 °C 16,7 °C 4,8 km/h (1 Bft)
15.08.2018 09:18 16,7 °C 84 % 1018,4 hPa 0,0 mm 2,0 km/h (1 Bft) W 269 ° 0 min 0,000 mm 1,5 UV-I 109 W/m² 14,0 °C 16,7 °C 3,2 km/h (1 Bft)
15.08.2018 09:19 16,6 °C 84 % 1018,5 hPa 0,0 mm 2,3 km/h (1 Bft) W 269 ° 0 min 0,000 mm 1,6 UV-I 120 W/m² 13,9 °C 16,6 °C 3,2 km/h (1 Bft)
15.08.2018 09:20 16,6 °C 84 % 1018,5 hPa 0,0 mm 0,0 km/h (0 Bft) W 269 ° 0 min 0,000 mm 1,6 UV-I 121 W/m² 13,9 °C 16,6 °C 0,0 km/h (0 Bft)
15.08.2018 09:21 16,6 °C 83 % 1018,5 hPa 0,0 mm 0,0 km/h (0 Bft) W 269 ° 0 min 0,000 mm 1,6 UV-I 123 W/m² 13,7 °C 16,6 °C 0,0 km/h (0 Bft)
15.08.2018 09:22 16,6 °C 84 % 1018,4 hPa 0,0 mm 0,0 km/h (0 Bft) W 269 ° 0 min 0,000 mm 1,6 UV-I 125 W/m² 13,9 °C 16,6 °C 0,0 km/h (0 Bft)
15.08.2018 09:23 16,6 °C 84 % 1018,4 hPa 0,0 mm 0,0 km/h (0 Bft) W 269 ° 0 min 0,000 mm 1,6 UV-I 121 W/m² 13,9 °C 16,6 °C 0,0 km/h (0 Bft)
15.08.2018 09:24 16,6 °C 84 % 1018,4 hPa 0,0 mm 0,4 km/h (0 Bft) W 269 ° 0 min 0,000 mm 1,6 UV-I 118 W/m² 13,9 °C 16,6 °C 1,6 km/h (1 Bft)
15.08.2018 09:25 16,6 °C 84 % 1018,4 hPa 0,0 mm 0,0 km/h (0 Bft) W 269 ° 0 min 0,000 mm 1,7 UV-I 121 W/m² 13,9 °C 16,6 °C 0,0 km/h (0 Bft)
15.08.2018 09:26 16,6 °C 84 % 1018,4 hPa 0,0 mm 0,4 km/h (0 Bft) W 269 ° 0 min 0,000 mm 1,7 UV-I 127 W/m² 13,9 °C 16,6 °C 1,6 km/h (1 Bft)
15.08.2018 09:27 16,6 °C 84 % 1018,4 hPa 0,0 mm 0,1 km/h (0 Bft) W 269 ° 0 min 0,000 mm 1,8 UV-I 141 W/m² 13,9 °C 16,6 °C 1,6 km/h (1 Bft)
15.08.2018 09:28 16,6 °C 84 % 1018,4 hPa 0,0 mm 3,3 km/h (1 Bft) W-NW 292 ° 0 min 0,000 mm 2,8 UV-I 141 W/m² 13,9 °C 16,6 °C 4,8 km/h (1 Bft)
15.08.2018 09:29 16,8 °C 85 % 1018,4 hPa 0,0 mm 2,7 km/h (1 Bft) W-NW 292 ° 0 min 0,000 mm 2,7 UV-I 141 W/m² 14,3 °C 16,8 °C 3,2 km/h (1 Bft)
15.08.2018 09:30 16,9 °C 84 % 1018,4 hPa 0,0 mm 3,2 km/h (1 Bft) N-NW 337 ° 0 min 0,000 mm 2,8 UV-I 552 W/m² 14,2 °C 16,9 °C 4,8 km/h (1 Bft)
15.08.2018 09:31 17,1 °C 84 % 1018,3 hPa 0,0 mm 3,4 km/h (1 Bft) W-NW 292 ° 0 min 0,000 mm 2,9 UV-I 548 W/m² 14,4 °C 17,1 °C 4,8 km/h (1 Bft)
15.08.2018 09:32 17,3 °C 84 % 1018,3 hPa 0,0 mm 3,8 km/h (1 Bft) W 275 ° 0 min 0,000 mm 2,9 UV-I 541 W/m² 14,6 °C 17,3 °C 4,8 km/h (1 Bft)
15.08.2018 09:33 17,3 °C 81 % 1018,3 hPa 0,0 mm 3,6 km/h (1 Bft) NW 320 ° 0 min 0,000 mm 2,9 UV-I 536 W/m² 14,0 °C 17,3 °C 4,8 km/h (1 Bft)
15.08.2018 09:34 17,4 °C 81 % 1018,4 hPa 0,0 mm 2,7 km/h (1 Bft) N-NW 331 ° 0 min 0,000 mm 2,9 UV-I 534 W/m² 14,1 °C 17,4 °C 4,8 km/h (1 Bft)
15.08.2018 09:35 17,5 °C 80 % 1018,4 hPa 0,0 mm 2,3 km/h (1 Bft) N-NW 327 ° 0 min 0,000 mm 2,9 UV-I 529 W/m² 14,0 °C 17,5 °C 4,8 km/h (1 Bft)
15.08.2018 09:36 17,6 °C 81 % 1018,3 hPa 0,0 mm 0,3 km/h (0 Bft) N-NW 327 ° 0 min 0,000 mm 2,9 UV-I 519 W/m² 14,3 °C 17,6 °C 1,6 km/h (1 Bft)
15.08.2018 09:37 17,7 °C 81 % 1018,3 hPa 0,0 mm 1,1 km/h (1 Bft) W 274 ° 0 min 0,000 mm 2,9 UV-I 520 W/m² 14,4 °C 17,7 °C 3,2 km/h (1 Bft)
15.08.2018 09:38 17,7 °C 80 % 1018,4 hPa 0,0 mm 4,0 km/h (1 Bft) W 264 ° 0 min 0,000 mm 3,0 UV-I 526 W/m² 14,2 °C 17,7 °C 6,4 km/h (2 Bft)
15.08.2018 09:39 17,6 °C 79 % 1018,3 hPa 0,0 mm 4,1 km/h (1 Bft) W 264 ° 0 min 0,000 mm 3,0 UV-I 529 W/m² 13,9 °C 17,6 °C 6,4 km/h (2 Bft)
15.08.2018 09:40 17,6 °C 79 % 1018,3 hPa 0,0 mm 1,7 km/h (1 Bft) W 264 ° 0 min 0,000 mm 3,1 UV-I 541 W/m² 13,9 °C 17,6 °C 6,4 km/h (2 Bft)
15.08.2018 09:41 17,6 °C 80 % 1018,3 hPa 0,0 mm 1,1 km/h (1 Bft) W 277 ° 0 min 0,000 mm 3,1 UV-I 559 W/m² 14,1 °C 17,6 °C 3,2 km/h (1 Bft)
15.08.2018 09:42 17,6 °C 80 % 1018,4 hPa 0,0 mm 4,0 km/h (1 Bft) W 268 ° 0 min 0,000 mm 3,1 UV-I 585 W/m² 14,1 °C 17,6 °C 4,8 km/h (1 Bft)
15.08.2018 09:43 17,6 °C 78 % 1018,3 hPa 0,0 mm 2,5 km/h (1 Bft) W 279 ° 0 min 0,000 mm 3,1 UV-I 580 W/m² 13,7 °C 17,6 °C 4,8 km/h (1 Bft)
15.08.2018 09:44 17,7 °C 80 % 1018,4 hPa 0,0 mm 1,1 km/h (1 Bft) W-NW 294 ° 0 min 0,000 mm 2,5 UV-I 580 W/m² 14,2 °C 17,7 °C 3,2 km/h (1 Bft)
15.08.2018 09:45 17,8 °C 82 % 1018,4 hPa 0,0 mm 2,8 km/h (1 Bft) W 277 ° 0 min 0,000 mm 2,7 UV-I 503 W/m² 14,7 °C 17,8 °C 6,4 km/h (2 Bft)
15.08.2018 09:46 17,8 °C 80 % 1018,4 hPa 0,0 mm 4,7 km/h (1 Bft) W-NW 292 ° 0 min 0,000 mm 2,1 UV-I 503 W/m² 14,3 °C 17,8 °C 6,4 km/h (2 Bft)
15.08.2018 09:47 17,7 °C 78 % 1018,4 hPa 0,0 mm 3,8 km/h (1 Bft) W 261 ° 0 min 0,000 mm 2,1 UV-I 169 W/m² 13,8 °C 17,7 °C 4,8 km/h (1 Bft)
15.08.2018 09:48 17,6 °C 78 % 1018,4 hPa 0,0 mm 0,7 km/h (0 Bft) W 261 ° 0 min 0,000 mm 2,1 UV-I 179 W/m² 13,7 °C 17,6 °C 3,2 km/h (1 Bft)
15.08.2018 09:49 17,5 °C 79 % 1018,3 hPa 0,0 mm 1,7 km/h (1 Bft) W-NW 298 ° 0 min 0,000 mm 2,1 UV-I 188 W/m² 13,8 °C 17,5 °C 3,2 km/h (1 Bft)
15.08.2018 09:50 17,4 °C 79 % 1018,3 hPa 0,0 mm 1,2 km/h (1 Bft) W-NW 298 ° 0 min 0,000 mm 2,3 UV-I 218 W/m² 13,7 °C 17,4 °C 3,2 km/h (1 Bft)
15.08.2018 09:51 17,3 °C 79 % 1018,4 hPa 0,0 mm 2,3 km/h (1 Bft) W-NW 298 ° 0 min 0,000 mm 2,3 UV-I 218 W/m² 13,6 °C 17,3 °C 4,8 km/h (1 Bft)
15.08.2018 09:52 17,2 °C 80 % 1018,3 hPa 0,0 mm 0,5 km/h (0 Bft) W-NW 298 ° 0 min 0,000 mm 2,2 UV-I 218 W/m² 13,7 °C 17,2 °C 3,2 km/h (1 Bft)
15.08.2018 09:53 17,2 °C 80 % 1018,4 hPa 0,0 mm 2,0 km/h (1 Bft) W-NW 298 ° 0 min 0,000 mm 2,2 UV-I 185 W/m² 13,7 °C 17,2 °C 3,2 km/h (1 Bft)
15.08.2018 09:54 17,2 °C 79 % 1018,3 hPa 0,0 mm 0,4 km/h (0 Bft) W-NW 298 ° 0 min 0,000 mm 2,2 UV-I 179 W/m² 13,5 °C 17,2 °C 1,6 km/h (1 Bft)
15.08.2018 09:55 17,2 °C 80 % 1018,4 hPa 0,0 mm 0,0 km/h (0 Bft) W-NW 298 ° 1 min 0,000 mm 3,5 UV-I 626 W/m² 13,7 °C 17,2 °C 0,0 km/h (0 Bft)
15.08.2018 09:56 17,2 °C 80 % 1018,4 hPa 0,0 mm 0,0 km/h (0 Bft) W-NW 298 ° 1 min 0,000 mm 3,5 UV-I 612 W/m² 13,7 °C 17,2 °C 0,0 km/h (0 Bft)
15.08.2018 09:57 17,3 °C 82 % 1018,4 hPa 0,0 mm 0,0 km/h (0 Bft) W-NW 298 ° 0 min 0,000 mm 3,4 UV-I 599 W/m² 14,2 °C 17,3 °C 0,0 km/h (0 Bft)
15.08.2018 09:58 17,5 °C 83 % 1018,3 hPa 0,0 mm 0,0 km/h (0 Bft) W-NW 298 ° 0 min 0,000 mm 3,4 UV-I 591 W/m² 14,6 °C 17,5 °C 0,0 km/h (0 Bft)
15.08.2018 09:59 17,6 °C 82 % 1018,3 hPa 0,0 mm 0,3 km/h (0 Bft) W-NW 298 ° 0 min 0,000 mm 3,5 UV-I 585 W/m² 14,5 °C 17,6 °C 1,6 km/h (1 Bft)
15.08.2018 10:00 17,6 °C 80 % 1018,3 hPa 0,0 mm 0,3 km/h (0 Bft) W-NW 298 ° 1 min 0,000 mm 3,6 UV-I 601 W/m² 14,1 °C 17,6 °C 1,6 km/h (1 Bft)
15.08.2018 10:01 17,7 °C 81 % 1018,3 hPa 0,0 mm 0,5 km/h (0 Bft) W-NW 298 ° 1 min 0,178 mm 3,6 UV-I 601 W/m² 14,4 °C 17,7 °C 1,6 km/h (1 Bft)
15.08.2018 10:02 17,7 °C 80 % 1018,3 hPa 0,0 mm 0,0 km/h (0 Bft) W-NW 298 ° 1 min 0,000 mm 3,6 UV-I 603 W/m² 14,2 °C 17,7 °C 0,0 km/h (0 Bft)
15.08.2018 10:03 17,7 °C 80 % 1018,3 hPa 0,0 mm 0,0 km/h (0 Bft) W-NW 298 ° 1 min 0,000 mm 3,7 UV-I 606 W/m² 14,2 °C 17,7 °C 0,0 km/h (0 Bft)
15.08.2018 10:04 17,8 °C 82 % 1018,4 hPa 0,0 mm 0,9 km/h (0 Bft) W-NW 298 ° 1 min 0,000 mm 3,7 UV-I 606 W/m² 14,7 °C 17,8 °C 1,6 km/h (1 Bft)
15.08.2018 10:05 18,0 °C 79 % 1018,4 hPa 0,0 mm 0,5 km/h (0 Bft) W-NW 298 ° 1 min 0,000 mm 3,7 UV-I 610 W/m² 14,3 °C 18,0 °C 3,2 km/h (1 Bft)
15.08.2018 10:06 18,1 °C 79 % 1018,4 hPa 0,0 mm 2,3 km/h (1 Bft) NW 311 ° 1 min 0,000 mm 3,7 UV-I 613 W/m² 14,4 °C 18,1 °C 4,8 km/h (1 Bft)
15.08.2018 10:07 18,1 °C 79 % 1018,4 hPa 0,0 mm 2,7 km/h (1 Bft) W 277 ° 1 min 0,000 mm 3,7 UV-I 612 W/m² 14,4 °C 18,1 °C 4,8 km/h (1 Bft)
15.08.2018 10:08 18,1 °C 80 % 1018,4 hPa 0,0 mm 3,0 km/h (1 Bft) W-NW 282 ° 1 min 0,000 mm 3,7 UV-I 615 W/m² 14,6 °C 18,1 °C 4,8 km/h (1 Bft)
15.08.2018 10:09 18,1 °C 78 % 1018,4 hPa 0,0 mm 1,6 km/h (1 Bft) W-NW 282 ° 1 min 0,000 mm 3,7 UV-I 621 W/m² 14,2 °C 18,1 °C 3,2 km/h (1 Bft)
15.08.2018 10:10 18,1 °C 77 % 1018,4 hPa 0,0 mm 1,7 km/h (1 Bft) NW 324 ° 1 min 0,000 mm 3,8 UV-I 622 W/m² 14,0 °C 18,1 °C 4,8 km/h (1 Bft)
15.08.2018 10:11 18,1 °C 76 % 1018,5 hPa 0,0 mm 3,5 km/h (1 Bft) NW 324 ° 1 min 0,000 mm 3,8 UV-I 624 W/m² 13,8 °C 18,1 °C 4,8 km/h (1 Bft)
15.08.2018 10:12 18,1 °C 77 % 1018,4 hPa 0,0 mm 1,6 km/h (1 Bft) NW 324 ° 1 min 0,000 mm 3,8 UV-I 624 W/m² 14,0 °C 18,1 °C 3,2 km/h (1 Bft)
15.08.2018 10:13 18,0 °C 77 % 1018,4 hPa 0,0 mm 0,1 km/h (0 Bft) NW 324 ° 1 min 0,000 mm 3,8 UV-I 629 W/m² 13,9 °C 18,0 °C 1,6 km/h (1 Bft)
15.08.2018 10:14 18,1 °C 77 % 1018,4 hPa 0,0 mm 3,0 km/h (1 Bft) N-NO 19 ° 1 min 0,000 mm 3,9 UV-I 636 W/m² 14,0 °C 18,1 °C 6,4 km/h (2 Bft)
15.08.2018 10:15 18,2 °C 79 % 1018,4 hPa 0,0 mm 6,3 km/h (2 Bft) N-NW 342 ° 1 min 0,000 mm 3,9 UV-I 643 W/m² 14,5 °C 18,2 °C 8,0 km/h (2 Bft)
15.08.2018 10:16 18,3 °C 76 % 1018,5 hPa 0,0 mm 3,8 km/h (1 Bft) N 355 ° 1 min 0,000 mm 4,0 UV-I 647 W/m² 14,0 °C 18,3 °C 6,4 km/h (2 Bft)
15.08.2018 10:17 18,3 °C 77 % 1018,5 hPa 0,0 mm 0,8 km/h (0 Bft) N 355 ° 1 min 0,000 mm 4,0 UV-I 649 W/m² 14,2 °C 18,3 °C 3,2 km/h (1 Bft)
15.08.2018 10:18 18,2 °C 75 % 1018,5 hPa 0,0 mm 0,6 km/h (0 Bft) N 355 ° 1 min 0,000 mm 4,0 UV-I 650 W/m² 13,7 °C 18,2 °C 1,6 km/h (1 Bft)
15.08.2018 10:19 18,1 °C 77 % 1018,5 hPa 0,0 mm 0,2 km/h (0 Bft) N 355 ° 1 min 0,000 mm 4,1 UV-I 652 W/m² 14,0 °C 18,1 °C 1,6 km/h (1 Bft)
15.08.2018 10:20 18,1 °C 80 % 1018,5 hPa 0,0 mm 0,0 km/h (0 Bft) N 355 ° 1 min 0,000 mm 4,1 UV-I 656 W/m² 14,6 °C 18,1 °C 0,0 km/h (0 Bft)
15.08.2018 10:21 18,1 °C 77 % 1018,5 hPa 0,0 mm 2,3 km/h (1 Bft) N-NO 30 ° 1 min 0,000 mm 4,1 UV-I 657 W/m² 14,0 °C 18,1 °C 4,8 km/h (1 Bft)
15.08.2018 10:22 18,0 °C 77 % 1018,5 hPa 0,0 mm 1,4 km/h (1 Bft) N-NO 30 ° 1 min 0,000 mm 4,1 UV-I 657 W/m² 13,9 °C 18,0 °C 3,2 km/h (1 Bft)
15.08.2018 10:23 18,1 °C 79 % 1018,5 hPa 0,0 mm 2,3 km/h (1 Bft) NO 55 ° 1 min 0,000 mm 4,1 UV-I 663 W/m² 14,4 °C 18,1 °C 4,8 km/h (1 Bft)
15.08.2018 10:24 18,0 °C 77 % 1018,5 hPa 0,0 mm 3,9 km/h (1 Bft) SO 136 ° 1 min 0,000 mm 4,2 UV-I 670 W/m² 13,9 °C 18,0 °C 4,8 km/h (1 Bft)
15.08.2018 10:25 18,0 °C 76 % 1018,5 hPa 0,0 mm 0,1 km/h (0 Bft) SO 136 ° 1 min 0,000 mm 4,2 UV-I 671 W/m² 13,7 °C 18,0 °C 1,6 km/h (1 Bft)
15.08.2018 10:26 18,1 °C 78 % 1018,5 hPa 0,0 mm 0,9 km/h (0 Bft) SO 133 ° 1 min 0,000 mm 4,2 UV-I 671 W/m² 14,2 °C 18,1 °C 1,6 km/h (1 Bft)
15.08.2018 10:27 18,1 °C 78 % 1018,5 hPa 0,0 mm 0,4 km/h (0 Bft) SO 133 ° 1 min 0,000 mm 4,3 UV-I 680 W/m² 14,2 °C 18,1 °C 1,6 km/h (1 Bft)
15.08.2018 10:28 18,2 °C 80 % 1018,4 hPa 0,0 mm 0,9 km/h (0 Bft) S-SW 205 ° 1 min 0,000 mm 4,3 UV-I 689 W/m² 14,7 °C 18,2 °C 3,2 km/h (1 Bft)
15.08.2018 10:29 18,3 °C 80 % 1018,4 hPa 0,0 mm 2,3 km/h (1 Bft) N-NW 328 ° 1 min 0,000 mm 4,3 UV-I 708 W/m² 14,8 °C 18,3 °C 6,4 km/h (2 Bft)
15.08.2018 10:30 18,5 °C 81 % 1018,5 hPa 0,0 mm 3,8 km/h (1 Bft) N-NW 345 ° 1 min 0,000 mm 4,4 UV-I 721 W/m² 15,2 °C 18,5 °C 6,4 km/h (2 Bft)
15.08.2018 10:31 18,8 °C 78 % 1018,4 hPa 0,0 mm 6,6 km/h (2 Bft) NW 320 ° 1 min 0,000 mm 4,5 UV-I 733 W/m² 14,9 °C 18,8 °C 8,0 km/h (2 Bft)
15.08.2018 10:32 18,8 °C 77 % 1018,5 hPa 0,0 mm 2,2 km/h (1 Bft) NW 320 ° 1 min 0,000 mm 4,6 UV-I 751 W/m² 14,7 °C 18,8 °C 4,8 km/h (1 Bft)
15.08.2018 10:33 18,8 °C 76 % 1018,5 hPa 0,0 mm 0,0 km/h (0 Bft) NW 320 ° 1 min 0,000 mm 4,6 UV-I 758 W/m² 14,5 °C 18,8 °C 0,0 km/h (0 Bft)
15.08.2018 10:34 18,9 °C 79 % 1018,5 hPa 0,0 mm 2,6 km/h (1 Bft) NW 315 ° 1 min 0,000 mm 4,6 UV-I 756 W/m² 15,2 °C 18,9 °C 6,4 km/h (2 Bft)
15.08.2018 10:35 18,9 °C 75 % 1018,5 hPa 0,0 mm 6,1 km/h (2 Bft) NW 313 ° 1 min 0,000 mm 4,7 UV-I 756 W/m² 14,4 °C 18,9 °C 9,7 km/h (2 Bft)
15.08.2018 10:36 18,9 °C 73 % 1018,5 hPa 0,0 mm 2,9 km/h (1 Bft) NW 313 ° 1 min 0,000 mm 4,7 UV-I 759 W/m² 13,9 °C 18,9 °C 6,4 km/h (2 Bft)
15.08.2018 10:37 18,9 °C 74 % 1018,5 hPa 0,0 mm 2,1 km/h (1 Bft) NW 313 ° 1 min 0,000 mm 4,6 UV-I 744 W/m² 14,2 °C 18,9 °C 3,2 km/h (1 Bft)
15.08.2018 10:38 18,8 °C 73 % 1018,5 hPa 0,0 mm 3,4 km/h (1 Bft) NW 313 ° 1 min 0,000 mm 4,6 UV-I 742 W/m² 13,9 °C 18,8 °C 4,8 km/h (1 Bft)
15.08.2018 10:39 18,8 °C 74 % 1018,5 hPa 0,0 mm 4,3 km/h (1 Bft) NW 319 ° 1 min 0,000 mm 4,7 UV-I 747 W/m² 14,1 °C 18,8 °C 8,0 km/h (2 Bft)
15.08.2018 10:40 18,8 °C 75 % 1018,5 hPa 0,0 mm 3,6 km/h (1 Bft) NW 313 ° 1 min 0,000 mm 4,7 UV-I 768 W/m² 14,3 °C 18,8 °C 6,4 km/h (2 Bft)
15.08.2018 10:41 18,8 °C 76 % 1018,5 hPa 0,0 mm 8,4 km/h (2 Bft) N 5 ° 1 min 0,000 mm 4,8 UV-I 738 W/m² 14,5 °C 18,8 °C 12,9 km/h (3 Bft)
15.08.2018 10:42 18,9 °C 76 % 1018,5 hPa 0,0 mm 8,2 km/h (2 Bft) NW 323 ° 1 min 0,000 mm 4,7 UV-I 744 W/m² 14,6 °C 18,9 °C 12,9 km/h (3 Bft)
15.08.2018 10:43 19,0 °C 75 % 1018,6 hPa 0,0 mm 6,9 km/h (2 Bft) N-NW 336 ° 1 min 0,000 mm 4,7 UV-I 754 W/m² 14,5 °C 19,0 °C 9,7 km/h (2 Bft)
15.08.2018 10:44 19,1 °C 75 % 1018,6 hPa 0,0 mm 2,3 km/h (1 Bft) N-NW 334 ° 1 min 0,000 mm 4,7 UV-I 759 W/m² 14,6 °C 19,1 °C 4,8 km/h (1 Bft)
15.08.2018 10:45 19,1 °C 74 % 1018,6 hPa 0,0 mm 2,8 km/h (1 Bft) NW 321 ° 1 min 0,000 mm 4,2 UV-I 759 W/m² 14,4 °C 19,1 °C 4,8 km/h (1 Bft)
15.08.2018 10:46 19,1 °C 74 % 1018,5 hPa 0,0 mm 2,9 km/h (1 Bft) N-NW 336 ° 0 min 0,000 mm 4,4 UV-I 591 W/m² 14,4 °C 19,1 °C 4,8 km/h (1 Bft)
15.08.2018 10:47 19,1 °C 75 % 1018,6 hPa 0,0 mm 7,3 km/h (2 Bft) NW 316 ° 0 min 0,000 mm 3,4 UV-I 519 W/m² 14,6 °C 19,1 °C 9,7 km/h (2 Bft)
15.08.2018 10:48 18,8 °C 74 % 1018,6 hPa 0,0 mm 6,0 km/h (2 Bft) N-NW 340 ° 0 min 0,000 mm 2,5 UV-I 153 W/m² 14,1 °C 18,8 °C 9,7 km/h (2 Bft)
15.08.2018 10:49 18,8 °C 74 % 1018,6 hPa 0,0 mm 4,9 km/h (1 Bft) N-NO 14 ° 0 min 0,000 mm 2,5 UV-I 148 W/m² 14,1 °C 18,8 °C 8,0 km/h (2 Bft)
15.08.2018 10:50 18,6 °C 73 % 1018,6 hPa 0,0 mm 3,5 km/h (1 Bft) N-NO 14 ° 0 min 0,000 mm 2,3 UV-I 123 W/m² 13,7 °C 18,6 °C 6,4 km/h (2 Bft)
15.08.2018 10:51 18,5 °C 75 % 1018,6 hPa 0,0 mm 0,0 km/h (0 Bft) N-NO 14 ° 0 min 0,000 mm 2,3 UV-I 111 W/m² 14,0 °C 18,5 °C 0,0 km/h (0 Bft)
15.08.2018 10:52 18,4 °C 75 % 1018,7 hPa 0,0 mm 4,8 km/h (1 Bft) NW 321 ° 0 min 0,000 mm 2,3 UV-I 118 W/m² 13,9 °C 18,4 °C 6,4 km/h (2 Bft)
15.08.2018 10:53 18,3 °C 75 % 1018,6 hPa 0,0 mm 3,1 km/h (1 Bft) NW 321 ° 0 min 0,000 mm 2,3 UV-I 118 W/m² 13,8 °C 18,3 °C 4,8 km/h (1 Bft)
15.08.2018 10:54 18,2 °C 75 % 1018,6 hPa 0,0 mm 1,4 km/h (1 Bft) NW 321 ° 0 min 0,000 mm 2,3 UV-I 121 W/m² 13,7 °C 18,2 °C 3,2 km/h (1 Bft)
15.08.2018 10:55 18,1 °C 74 % 1018,6 hPa 0,0 mm 0,9 km/h (0 Bft) NW 321 ° 0 min 0,000 mm 2,3 UV-I 118 W/m² 13,4 °C 18,1 °C 1,6 km/h (1 Bft)
15.08.2018 10:56 18,0 °C 75 % 1018,6 hPa 0,0 mm 2,6 km/h (1 Bft) N-NW 339 ° 0 min 0,000 mm 2,4 UV-I 120 W/m² 13,5 °C 18,0 °C 6,4 km/h (2 Bft)
15.08.2018 10:57 17,9 °C 76 % 1018,6 hPa 0,0 mm 2,7 km/h (1 Bft) NW 324 ° 0 min 0,000 mm 2,4 UV-I 123 W/m² 13,6 °C 17,9 °C 3,2 km/h (1 Bft)
15.08.2018 10:58 18,0 °C 76 % 1018,6 hPa 0,0 mm 4,3 km/h (1 Bft) N-NW 331 ° 0 min 0,000 mm 2,5 UV-I 167 W/m² 13,7 °C 18,0 °C 8,0 km/h (2 Bft)
15.08.2018 10:59 18,0 °C 77 % 1018,6 hPa 0,0 mm 4,3 km/h (1 Bft) N-NW 337 ° 0 min 0,000 mm 2,6 UV-I 153 W/m² 13,9 °C 18,0 °C 6,4 km/h (2 Bft)
15.08.2018 11:00 17,9 °C 76 % 1018,7 hPa 0,0 mm 1,6 km/h (1 Bft) N-NW 337 ° 0 min 0,305 mm 2,8 UV-I 169 W/m² 13,6 °C 17,9 °C 3,2 km/h (1 Bft)
15.08.2018 11:01 18,0 °C 75 % 1018,7 hPa 0,0 mm 1,4 km/h (1 Bft) N-NW 337 ° 0 min 0,000 mm 5,0 UV-I 169 W/m² 13,5 °C 18,0 °C 3,2 km/h (1 Bft)
15.08.2018 11:02 18,1 °C 75 % 1018,6 hPa 0,0 mm 1,1 km/h (1 Bft) N-NW 337 ° 1 min 0,000 mm 5,0 UV-I 780 W/m² 13,6 °C 18,1 °C 3,2 km/h (1 Bft)
15.08.2018 11:03 18,4 °C 78 % 1018,6 hPa 0,0 mm 0,0 km/h (0 Bft) N-NW 337 ° 1 min 0,000 mm 5,1 UV-I 773 W/m² 14,5 °C 18,4 °C 0,0 km/h (0 Bft)
15.08.2018 11:04 18,6 °C 74 % 1018,6 hPa 0,0 mm 0,2 km/h (0 Bft) N-NW 337 ° 1 min 0,000 mm 5,1 UV-I 793 W/m² 13,9 °C 18,6 °C 1,6 km/h (1 Bft)
15.08.2018 11:05 18,8 °C 76 % 1018,6 hPa 0,0 mm 0,2 km/h (0 Bft) N-NW 337 ° 1 min 0,000 mm 5,3 UV-I 802 W/m² 14,5 °C 18,8 °C 1,6 km/h (1 Bft)
15.08.2018 11:06 18,9 °C 73 % 1018,6 hPa 0,0 mm 0,0 km/h (0 Bft) N-NW 337 ° 1 min 0,000 mm 5,3 UV-I 810 W/m² 13,9 °C 18,9 °C 0,0 km/h (0 Bft)
15.08.2018 11:07 18,9 °C 75 % 1018,5 hPa 0,0 mm 0,9 km/h (0 Bft) N-NW 337 ° 1 min 0,000 mm 5,3 UV-I 819 W/m² 14,4 °C 18,9 °C 3,2 km/h (1 Bft)
15.08.2018 11:08 18,9 °C 73 % 1018,6 hPa 0,0 mm 2,1 km/h (1 Bft) N-NW 342 ° 1 min 0,000 mm 5,4 UV-I 819 W/m² 13,9 °C 18,9 °C 3,2 km/h (1 Bft)
15.08.2018 11:09 18,9 °C 74 % 1018,5 hPa 0,0 mm 3,5 km/h (1 Bft) NW 310 ° 1 min 0,000 mm 5,5 UV-I 842 W/m² 14,2 °C 18,9 °C 8,0 km/h (2 Bft)
15.08.2018 11:10 19,0 °C 75 % 1018,6 hPa 0,0 mm 8,4 km/h (2 Bft) NW 315 ° 1 min 0,000 mm 5,5 UV-I 867 W/m² 14,5 °C 19,0 °C 12,9 km/h (3 Bft)
15.08.2018 11:11 19,1 °C 75 % 1018,6 hPa 0,0 mm 8,6 km/h (2 Bft) NW 317 ° 1 min 0,000 mm 5,5 UV-I 884 W/m² 14,6 °C 19,1 °C 12,9 km/h (3 Bft)
15.08.2018 11:12 19,3 °C 77 % 1018,6 hPa 0,0 mm 6,0 km/h (2 Bft) NW 323 ° 1 min 0,000 mm 5,5 UV-I 889 W/m² 15,2 °C 19,3 °C 9,7 km/h (2 Bft)
15.08.2018 11:13 19,4 °C 75 % 1018,6 hPa 0,0 mm 7,0 km/h (2 Bft) N 360 ° 1 min 0,000 mm 5,4 UV-I 893 W/m² 14,8 °C 19,4 °C 11,3 km/h (2 Bft)
15.08.2018 11:14 19,6 °C 73 % 1018,6 hPa 0,0 mm 6,0 km/h (2 Bft) O 84 ° 1 min 0,000 mm 5,0 UV-I 893 W/m² 14,6 °C 19,6 °C 9,7 km/h (2 Bft)
15.08.2018 11:15 19,7 °C 74 % 1018,6 hPa 0,0 mm 3,2 km/h (1 Bft) N-NO 21 ° 1 min 0,000 mm 3,8 UV-I 893 W/m² 14,9 °C 19,7 °C 6,4 km/h (2 Bft)
15.08.2018 11:16 19,7 °C 72 % 1018,6 hPa 0,0 mm 3,2 km/h (1 Bft) NW 325 ° 0 min 0,000 mm 2,9 UV-I 248 W/m² 14,5 °C 19,7 °C 8,0 km/h (2 Bft)
15.08.2018 11:17 19,6 °C 72 % 1018,6 hPa 0,0 mm 7,1 km/h (2 Bft) NW 320 ° 0 min 0,000 mm 2,7 UV-I 229 W/m² 14,4 °C 19,6 °C 9,7 km/h (2 Bft)
15.08.2018 11:18 19,4 °C 73 % 1018,6 hPa 0,0 mm 1,0 km/h (0 Bft) NW 320 ° 0 min 0,000 mm 2,6 UV-I 214 W/m² 14,4 °C 19,4 °C 3,2 km/h (1 Bft)
15.08.2018 11:19 19,2 °C 72 % 1018,6 hPa 0,0 mm 2,9 km/h (1 Bft) N-NW 328 ° 0 min 0,000 mm 2,7 UV-I 213 W/m² 14,0 °C 19,2 °C 4,8 km/h (1 Bft)
15.08.2018 11:20 19,1 °C 73 % 1018,6 hPa 0,0 mm 4,7 km/h (1 Bft) N-NW 328 ° 0 min 0,000 mm 2,8 UV-I 225 W/m² 14,1 °C 19,1 °C 8,0 km/h (2 Bft)
15.08.2018 11:21 19,0 °C 74 % 1018,6 hPa 0,0 mm 2,5 km/h (1 Bft) W 277 ° 0 min 0,000 mm 4,6 UV-I 225 W/m² 14,3 °C 19,0 °C 4,8 km/h (1 Bft)
15.08.2018 11:22 18,8 °C 73 % 1018,6 hPa 0,0 mm 7,2 km/h (2 Bft) W 264 ° 0 min 0,000 mm 3,9 UV-I 253 W/m² 13,9 °C 18,8 °C 9,7 km/h (2 Bft)
15.08.2018 11:23 18,8 °C 72 % 1018,6 hPa 0,0 mm 2,6 km/h (1 Bft) W 264 ° 0 min 0,000 mm 2,9 UV-I 223 W/m² 13,6 °C 18,8 °C 3,2 km/h (1 Bft)
15.08.2018 11:24 18,6 °C 73 % 1018,6 hPa 0,0 mm 3,6 km/h (1 Bft) NW 304 ° 0 min 0,000 mm 2,9 UV-I 232 W/m² 13,7 °C 18,6 °C 4,8 km/h (1 Bft)
15.08.2018 11:25 18,6 °C 74 % 1018,6 hPa 0,0 mm 8,6 km/h (2 Bft) N-NW 334 ° 0 min 0,000 mm 2,8 UV-I 214 W/m² 13,9 °C 18,6 °C 12,9 km/h (3 Bft)
15.08.2018 11:26 18,6 °C 75 % 1018,6 hPa 0,0 mm 4,6 km/h (1 Bft) N 5 ° 0 min 0,000 mm 2,8 UV-I 199 W/m² 14,1 °C 18,6 °C 6,4 km/h (2 Bft)
15.08.2018 11:27 18,6 °C 75 % 1018,6 hPa 0,0 mm 4,7 km/h (1 Bft) N 11 ° 0 min 0,000 mm 2,8 UV-I 197 W/m² 14,1 °C 18,6 °C 4,8 km/h (1 Bft)
15.08.2018 11:28 18,6 °C 74 % 1018,5 hPa 0,0 mm 3,9 km/h (1 Bft) N 355 ° 0 min 0,000 mm 2,9 UV-I 220 W/m² 13,9 °C 18,6 °C 6,4 km/h (2 Bft)
15.08.2018 11:29 18,8 °C 73 % 1018,5 hPa 0,0 mm 1,8 km/h (1 Bft) N-NO 26 ° 0 min 0,000 mm 5,6 UV-I 220 W/m² 13,9 °C 18,8 °C 4,8 km/h (1 Bft)
15.08.2018 11:30 18,8 °C 74 % 1018,6 hPa 0,0 mm 3,9 km/h (1 Bft) N-NW 346 ° 1 min 0,000 mm 5,6 UV-I 902 W/m² 14,1 °C 18,8 °C 8,0 km/h (2 Bft)
15.08.2018 11:31 18,9 °C 74 % 1018,5 hPa 0,0 mm 3,4 km/h (1 Bft) NW 323 ° 1 min 0,000 mm 5,6 UV-I 872 W/m² 14,2 °C 18,9 °C 8,0 km/h (2 Bft)
15.08.2018 11:32 19,1 °C 74 % 1018,5 hPa 0,0 mm 4,8 km/h (1 Bft) NW 319 ° 1 min 0,000 mm 5,6 UV-I 842 W/m² 14,4 °C 19,1 °C 9,7 km/h (2 Bft)
15.08.2018 11:33 19,2 °C 74 % 1018,5 hPa 0,0 mm 4,6 km/h (1 Bft) W-NW 286 ° 1 min 0,000 mm 5,6 UV-I 868 W/m² 14,4 °C 19,2 °C 8,0 km/h (2 Bft)
15.08.2018 11:34 19,3 °C 72 % 1018,5 hPa 0,0 mm 3,6 km/h (1 Bft) W-NW 295 ° 1 min 0,000 mm 5,7 UV-I 867 W/m² 14,1 °C 19,3 °C 4,8 km/h (1 Bft)
15.08.2018 11:35 19,4 °C 73 % 1018,5 hPa 0,0 mm 0,5 km/h (0 Bft) W-NW 295 ° 1 min 0,000 mm 5,7 UV-I 874 W/m² 14,4 °C 19,4 °C 1,6 km/h (1 Bft)
15.08.2018 11:36 19,4 °C 73 % 1018,6 hPa 0,0 mm 5,0 km/h (1 Bft) W 273 ° 1 min 0,000 mm 3,2 UV-I 874 W/m² 14,4 °C 19,4 °C 9,7 km/h (2 Bft)
15.08.2018 11:37 19,2 °C 70 % 1018,6 hPa 0,0 mm 0,8 km/h (0 Bft) W 273 ° 0 min 0,000 mm 2,8 UV-I 176 W/m² 13,6 °C 19,2 °C 3,2 km/h (1 Bft)
15.08.2018 11:38 19,2 °C 72 % 1018,6 hPa 0,0 mm 2,1 km/h (1 Bft) W-NW 286 ° 0 min 0,000 mm 2,6 UV-I 139 W/m² 14,0 °C 19,2 °C 6,4 km/h (2 Bft)
15.08.2018 11:39 19,1 °C 72 % 1018,6 hPa 0,0 mm 7,3 km/h (2 Bft) W-NW 296 ° 0 min 0,000 mm 2,6 UV-I 120 W/m² 13,9 °C 19,1 °C 14,5 km/h (3 Bft)
15.08.2018 11:40 18,8 °C 71 % 1018,6 hPa 0,0 mm 5,6 km/h (1 Bft) W 281 ° 0 min 0,000 mm 2,6 UV-I 125 W/m² 13,4 °C 18,8 °C 8,0 km/h (2 Bft)
15.08.2018 11:41 18,7 °C 71 % 1018,6 hPa 0,0 mm 5,5 km/h (1 Bft) W 273 ° 0 min 0,000 mm 2,7 UV-I 134 W/m² 13,3 °C 18,7 °C 11,3 km/h (2 Bft)
15.08.2018 11:42 18,6 °C 72 % 1018,6 hPa 0,0 mm 8,5 km/h (2 Bft) NW 307 ° 0 min 0,000 mm 2,7 UV-I 144 W/m² 13,4 °C 18,6 °C 12,9 km/h (3 Bft)
15.08.2018 11:43 18,6 °C 72 % 1018,6 hPa 0,0 mm 3,5 km/h (1 Bft) NW 314 ° 0 min 0,000 mm 2,8 UV-I 156 W/m² 13,4 °C 18,6 °C 11,3 km/h (2 Bft)
15.08.2018 11:44 18,5 °C 72 % 1018,6 hPa 0,0 mm 3,7 km/h (1 Bft) N-NO 30 ° 0 min 0,000 mm 3,0 UV-I 188 W/m² 13,4 °C 18,5 °C 4,8 km/h (1 Bft)
15.08.2018 11:45 18,6 °C 73 % 1018,6 hPa 0,0 mm 5,2 km/h (1 Bft) W-SW 256 ° 0 min 0,000 mm 3,2 UV-I 250 W/m² 13,7 °C 18,6 °C 9,7 km/h (2 Bft)
15.08.2018 11:46 18,6 °C 75 % 1018,6 hPa 0,0 mm 4,6 km/h (1 Bft) W 265 ° 0 min 0,000 mm 3,5 UV-I 239 W/m² 14,1 °C 18,6 °C 6,4 km/h (2 Bft)
15.08.2018 11:47 18,6 °C 73 % 1018,6 hPa 0,0 mm 5,3 km/h (1 Bft) W-NW 298 ° 0 min 0,000 mm 5,3 UV-I 239 W/m² 13,7 °C 18,6 °C 8,0 km/h (2 Bft)
15.08.2018 11:48 18,6 °C 74 % 1018,5 hPa 0,0 mm 1,7 km/h (1 Bft) W-NW 298 ° 0 min 0,000 mm 6,0 UV-I 239 W/m² 13,9 °C 18,6 °C 3,2 km/h (1 Bft)
15.08.2018 11:49 18,8 °C 72 % 1018,5 hPa 0,0 mm 1,0 km/h (0 Bft) W-NW 301 ° 1 min 0,000 mm 5,9 UV-I 874 W/m² 13,6 °C 18,8 °C 3,2 km/h (1 Bft)
15.08.2018 11:50 19,0 °C 72 % 1018,5 hPa 0,0 mm 1,2 km/h (1 Bft) NW 323 ° 1 min 0,000 mm 5,9 UV-I 854 W/m² 13,8 °C 19,0 °C 3,2 km/h (1 Bft)
15.08.2018 11:51 19,2 °C 74 % 1018,5 hPa 0,0 mm 3,5 km/h (1 Bft) NW 323 ° 1 min 0,000 mm 6,0 UV-I 846 W/m² 14,4 °C 19,2 °C 8,0 km/h (2 Bft)
15.08.2018 11:52 19,4 °C 71 % 1018,4 hPa 0,0 mm 4,7 km/h (1 Bft) W-NW 303 ° 1 min 0,000 mm 6,0 UV-I 842 W/m² 14,0 °C 19,4 °C 8,0 km/h (2 Bft)
15.08.2018 11:53 19,6 °C 71 % 1018,5 hPa 0,0 mm 4,2 km/h (1 Bft) NW 304 ° 1 min 0,000 mm 6,0 UV-I 840 W/m² 14,2 °C 19,6 °C 8,0 km/h (2 Bft)
15.08.2018 11:54 19,7 °C 68 % 1018,5 hPa 0,0 mm 2,5 km/h (1 Bft) NW 306 ° 1 min 0,000 mm 6,1 UV-I 838 W/m² 13,6 °C 19,7 °C 4,8 km/h (1 Bft)
15.08.2018 11:55 19,7 °C 70 % 1018,5 hPa 0,0 mm 0,5 km/h (0 Bft) NW 306 ° 1 min 0,000 mm 6,1 UV-I 847 W/m² 14,1 °C 19,7 °C 1,6 km/h (1 Bft)
15.08.2018 11:56 19,8 °C 71 % 1018,5 hPa 0,0 mm 1,3 km/h (1 Bft) NW 306 ° 1 min 0,000 mm 6,2 UV-I 854 W/m² 14,4 °C 19,8 °C 3,2 km/h (1 Bft)
15.08.2018 11:57 19,9 °C 70 % 1018,5 hPa 0,0 mm 0,2 km/h (0 Bft) NW 306 ° 1 min 0,000 mm 6,2 UV-I 867 W/m² 14,3 °C 19,9 °C 1,6 km/h (1 Bft)
15.08.2018 11:58 19,9 °C 68 % 1018,5 hPa 0,0 mm 0,6 km/h (0 Bft) W-NW 295 ° 1 min 0,000 mm 6,3 UV-I 874 W/m² 13,8 °C 19,9 °C 1,6 km/h (1 Bft)
15.08.2018 11:59 20,0 °C 68 % 1018,5 hPa 0,0 mm 2,7 km/h (1 Bft) SW 235 ° 1 min 0,000 mm 6,4 UV-I 884 W/m² 13,9 °C 20,0 °C 6,4 km/h (2 Bft)
15.08.2018 12:00 20,0 °C 68 % 1018,5 hPa 0,0 mm 3,0 km/h (1 Bft) S-SW 212 ° 1 min 0,000 mm 6,4 UV-I 893 W/m² 13,9 °C 20,0 °C 4,8 km/h (1 Bft)
15.08.2018 12:01 19,9 °C 67 % 1018,5 hPa 0,0 mm 1,0 km/h (0 Bft) S-SW 212 ° 1 min 0,330 mm 6,4 UV-I 905 W/m² 13,6 °C 19,9 °C 3,2 km/h (1 Bft)
15.08.2018 12:02 19,8 °C 66 % 1018,5 hPa 0,0 mm 2,3 km/h (1 Bft) N-NO 28 ° 1 min 0,000 mm 6,4 UV-I 911 W/m² 13,3 °C 19,8 °C 6,4 km/h (2 Bft)
15.08.2018 12:03 19,8 °C 68 % 1018,4 hPa 0,0 mm 1,8 km/h (1 Bft) W 273 ° 1 min 0,000 mm 6,3 UV-I 928 W/m² 13,7 °C 19,8 °C 8,0 km/h (2 Bft)
15.08.2018 12:04 20,0 °C 70 % 1018,4 hPa 0,0 mm 9,3 km/h (2 Bft) W-NW 293 ° 1 min 0,000 mm 6,4 UV-I 942 W/m² 14,4 °C 20,0 °C 12,9 km/h (3 Bft)
15.08.2018 12:05 20,2 °C 72 % 1018,4 hPa 0,0 mm 6,1 km/h (2 Bft) NW 312 ° 1 min 0,000 mm 6,3 UV-I 967 W/m² 15,0 °C 20,2 °C 9,7 km/h (2 Bft)
15.08.2018 12:06 20,2 °C 70 % 1018,4 hPa 0,0 mm 6,3 km/h (2 Bft) NW 323 ° 1 min 0,000 mm 4,9 UV-I 867 W/m² 14,5 °C 20,2 °C 11,3 km/h (2 Bft)
15.08.2018 12:07 20,3 °C 70 % 1018,5 hPa 0,0 mm 5,8 km/h (2 Bft) NW 325 ° 1 min 0,000 mm 3,1 UV-I 867 W/m² 14,6 °C 20,3 °C 8,0 km/h (2 Bft)
15.08.2018 12:08 20,3 °C 70 % 1018,5 hPa 0,0 mm 8,4 km/h (2 Bft) NW 323 ° 0 min 0,000 mm 2,9 UV-I 234 W/m² 14,6 °C 20,3 °C 16,1 km/h (3 Bft)
15.08.2018 12:09 20,2 °C 68 % 1018,5 hPa 0,0 mm 9,2 km/h (2 Bft) N-NW 328 ° 0 min 0,000 mm 2,8 UV-I 232 W/m² 14,1 °C 20,2 °C 16,1 km/h (3 Bft)
15.08.2018 12:10 19,9 °C 67 % 1018,5 hPa 0,0 mm 9,0 km/h (2 Bft) NW 314 ° 0 min 0,000 mm 2,7 UV-I 234 W/m² 13,6 °C 19,9 °C 12,9 km/h (3 Bft)
15.08.2018 12:11 19,8 °C 69 % 1018,5 hPa 0,0 mm 5,4 km/h (1 Bft) NW 321 ° 0 min 0,000 mm 2,6 UV-I 232 W/m² 13,9 °C 19,8 °C 9,7 km/h (2 Bft)
15.08.2018 12:12 19,6 °C 71 % 1018,5 hPa 0,0 mm 9,7 km/h (2 Bft) N-NW 331 ° 0 min 0,000 mm 2,5 UV-I 229 W/m² 14,2 °C 19,6 °C 14,5 km/h (3 Bft)
15.08.2018 12:13 19,6 °C 72 % 1018,5 hPa 0,0 mm 7,2 km/h (2 Bft) NW 313 ° 0 min 0,000 mm 2,5 UV-I 227 W/m² 14,4 °C 19,6 °C 12,9 km/h (3 Bft)
15.08.2018 12:14 19,5 °C 72 % 1018,5 hPa 0,0 mm 2,8 km/h (1 Bft) W-NW 290 ° 0 min 0,000 mm 2,5 UV-I 227 W/m² 14,3 °C 19,5 °C 6,4 km/h (2 Bft)
15.08.2018 12:15 19,4 °C 72 % 1018,4 hPa 0,0 mm 2,5 km/h (1 Bft) W-NW 296 ° 0 min 0,000 mm 2,5 UV-I 223 W/m² 14,2 °C 19,4 °C 6,4 km/h (2 Bft)
15.08.2018 12:16 19,2 °C 72 % 1018,5 hPa 0,0 mm 1,4 km/h (1 Bft) NW 304 ° 0 min 0,000 mm 2,5 UV-I 234 W/m² 14,0 °C 19,2 °C 3,2 km/h (1 Bft)
15.08.2018 12:17 19,2 °C 73 % 1018,5 hPa 0,0 mm 2,5 km/h (1 Bft) W-NW 293 ° 0 min 0,000 mm 2,5 UV-I 237 W/m² 14,2 °C 19,2 °C 6,4 km/h (2 Bft)
15.08.2018 12:18 19,1 °C 73 % 1018,5 hPa 0,0 mm 6,6 km/h (2 Bft) W-NW 295 ° 0 min 0,000 mm 2,6 UV-I 243 W/m² 14,1 °C 19,1 °C 11,3 km/h (2 Bft)
15.08.2018 12:19 19,1 °C 73 % 1018,5 hPa 0,0 mm 6,6 km/h (2 Bft) N-NW 327 ° 0 min 0,000 mm 2,6 UV-I 253 W/m² 14,1 °C 19,1 °C 8,0 km/h (2 Bft)
15.08.2018 12:20 19,0 °C 73 % 1018,5 hPa 0,0 mm 7,0 km/h (2 Bft) W 267 ° 0 min 0,000 mm 3,0 UV-I 281 W/m² 14,0 °C 19,0 °C 9,7 km/h (2 Bft)
15.08.2018 12:21 19,0 °C 74 % 1018,5 hPa 0,0 mm 5,2 km/h (1 Bft) NW 317 ° 0 min 0,000 mm 2,7 UV-I 281 W/m² 14,3 °C 19,0 °C 9,7 km/h (2 Bft)
15.08.2018 12:22 18,9 °C 74 % 1018,5 hPa 0,0 mm 8,7 km/h (2 Bft) NW 322 ° 0 min 0,000 mm 2,7 UV-I 281 W/m² 14,2 °C 18,9 °C 14,5 km/h (3 Bft)
15.08.2018 12:23 18,9 °C 74 % 1018,5 hPa 0,0 mm 5,5 km/h (1 Bft) NW 323 ° 0 min 0,000 mm 2,7 UV-I 221 W/m² 14,2 °C 18,9 °C 9,7 km/h (2 Bft)
15.08.2018 12:24 18,9 °C 74 % 1018,5 hPa 0,0 mm 5,5 km/h (1 Bft) N-NW 333 ° 0 min 0,000 mm 2,8 UV-I 206 W/m² 14,2 °C 18,9 °C 8,0 km/h (2 Bft)
15.08.2018 12:25 18,9 °C 74 % 1018,5 hPa 0,0 mm 4,3 km/h (1 Bft) N 5 ° 0 min 0,000 mm 3,0 UV-I 216 W/m² 14,2 °C 18,9 °C 6,4 km/h (2 Bft)
15.08.2018 12:26 18,9 °C 77 % 1018,5 hPa 0,0 mm 3,7 km/h (1 Bft) N-NO 13 ° 0 min 0,000 mm 3,3 UV-I 216 W/m² 14,8 °C 18,9 °C 6,4 km/h (2 Bft)
15.08.2018 12:27 19,1 °C 74 % 1018,5 hPa 0,0 mm 5,6 km/h (1 Bft) NW 326 ° 1 min 0,000 mm 5,8 UV-I 926 W/m² 14,4 °C 19,1 °C 9,7 km/h (2 Bft)
15.08.2018 12:28 19,3 °C 75 % 1018,5 hPa 0,0 mm 4,6 km/h (1 Bft) NW 321 ° 1 min 0,000 mm 6,2 UV-I 916 W/m² 14,8 °C 19,3 °C 14,5 km/h (3 Bft)
15.08.2018 12:29 19,5 °C 75 % 1018,4 hPa 0,0 mm 7,8 km/h (2 Bft) N-NW 334 ° 1 min 0,000 mm 6,2 UV-I 896 W/m² 14,9 °C 19,5 °C 14,5 km/h (3 Bft)
15.08.2018 12:30 19,6 °C 72 % 1018,4 hPa 0,0 mm 2,7 km/h (1 Bft) N-NW 335 ° 1 min 0,000 mm 6,2 UV-I 889 W/m² 14,4 °C 19,6 °C 4,8 km/h (1 Bft)
15.08.2018 12:31 19,7 °C 71 % 1018,4 hPa 0,0 mm 2,4 km/h (1 Bft) NW 313 ° 1 min 0,000 mm 6,2 UV-I 888 W/m² 14,3 °C 19,7 °C 6,4 km/h (2 Bft)
15.08.2018 12:32 19,8 °C 73 % 1018,4 hPa 0,0 mm 3,3 km/h (1 Bft) NO 46 ° 1 min 0,000 mm 6,2 UV-I 907 W/m² 14,8 °C 19,8 °C 6,4 km/h (2 Bft)
15.08.2018 12:33 19,9 °C 71 % 1018,4 hPa 0,0 mm 1,2 km/h (1 Bft) NO 47 ° 1 min 0,000 mm 6,4 UV-I 928 W/m² 14,5 °C 19,9 °C 3,2 km/h (1 Bft)
15.08.2018 12:34 20,0 °C 72 % 1018,3 hPa 0,0 mm 5,8 km/h (2 Bft) N-NO 22 ° 1 min 0,000 mm 6,4 UV-I 888 W/m² 14,8 °C 20,0 °C 11,3 km/h (2 Bft)
15.08.2018 12:35 20,1 °C 72 % 1018,4 hPa 0,0 mm 8,3 km/h (2 Bft) N 355 ° 1 min 0,000 mm 6,5 UV-I 956 W/m² 14,9 °C 20,1 °C 12,9 km/h (3 Bft)
15.08.2018 12:36 20,2 °C 71 % 1018,4 hPa 0,0 mm 2,6 km/h (1 Bft) N 351 ° 1 min 0,000 mm 6,5 UV-I 946 W/m² 14,8 °C 20,2 °C 6,4 km/h (2 Bft)
15.08.2018 12:37 20,2 °C 70 % 1018,4 hPa 0,0 mm 4,5 km/h (1 Bft) N 355 ° 1 min 0,000 mm 6,5 UV-I 962 W/m² 14,5 °C 20,2 °C 8,0 km/h (2 Bft)
15.08.2018 12:38 20,1 °C 70 % 1018,4 hPa 0,0 mm 3,0 km/h (1 Bft) N-NW 328 ° 1 min 0,000 mm 6,5 UV-I 956 W/m² 14,5 °C 20,1 °C 4,8 km/h (1 Bft)
15.08.2018 12:39 20,1 °C 72 % 1018,4 hPa 0,0 mm 3,4 km/h (1 Bft) N-NW 329 ° 1 min 0,000 mm 3,7 UV-I 956 W/m² 14,9 °C 20,1 °C 4,8 km/h (1 Bft)
15.08.2018 12:40 20,2 °C 76 % 1018,4 hPa 0,0 mm 1,5 km/h (1 Bft) NW 322 ° 1 min 0,000 mm 3,7 UV-I 956 W/m² 15,8 °C 20,2 °C 4,8 km/h (1 Bft)
15.08.2018 12:41 20,2 °C 72 % 1018,4 hPa 0,0 mm 2,7 km/h (1 Bft) N 360 ° 1 min 0,000 mm 6,2 UV-I 956 W/m² 15,0 °C 20,2 °C 4,8 km/h (1 Bft)
15.08.2018 12:42 20,3 °C 72 % 1018,5 hPa 0,0 mm 3,8 km/h (1 Bft) NW 319 ° 1 min 0,000 mm 6,2 UV-I 969 W/m² 15,1 °C 20,3 °C 6,4 km/h (2 Bft)
15.08.2018 12:43 20,3 °C 67 % 1018,4 hPa 0,0 mm 1,5 km/h (1 Bft) N-NW 342 ° 1 min 0,000 mm 6,2 UV-I 918 W/m² 14,0 °C 20,3 °C 3,2 km/h (1 Bft)
15.08.2018 12:44 20,1 °C 67 % 1018,4 hPa 0,0 mm 1,1 km/h (1 Bft) NW 315 ° 1 min 0,000 mm 6,1 UV-I 933 W/m² 13,8 °C 20,1 °C 3,2 km/h (1 Bft)
15.08.2018 12:45 20,1 °C 69 % 1018,3 hPa 0,0 mm 2,0 km/h (1 Bft) NW 315 ° 1 min 0,000 mm 6,4 UV-I 970 W/m² 14,2 °C 20,1 °C 3,2 km/h (1 Bft)
15.08.2018 12:46 20,1 °C 70 % 1018,3 hPa 0,0 mm 5,7 km/h (1 Bft) W-NW 300 ° 1 min 0,000 mm 6,4 UV-I 986 W/m² 14,5 °C 20,1 °C 9,7 km/h (2 Bft)
15.08.2018 12:47 20,1 °C 69 % 1018,4 hPa 0,0 mm 5,1 km/h (1 Bft) NW 313 ° 1 min 0,000 mm 5,1 UV-I 986 W/m² 14,2 °C 20,1 °C 8,0 km/h (2 Bft)
15.08.2018 12:48 20,1 °C 66 % 1018,4 hPa 0,0 mm 2,4 km/h (1 Bft) NW 313 ° 1 min 0,000 mm 3,6 UV-I 986 W/m² 13,5 °C 20,1 °C 3,2 km/h (1 Bft)
15.08.2018 12:49 20,1 °C 68 % 1018,4 hPa 0,0 mm 2,9 km/h (1 Bft) NW 313 ° 1 min 0,000 mm 6,5 UV-I 986 W/m² 14,0 °C 20,1 °C 4,8 km/h (1 Bft)
15.08.2018 12:50 20,2 °C 68 % 1018,4 hPa 0,0 mm 2,8 km/h (1 Bft) W-NW 302 ° 1 min 0,000 mm 6,6 UV-I 1002 W/m² 14,1 °C 20,2 °C 4,8 km/h (1 Bft)
15.08.2018 12:51 20,2 °C 67 % 1018,4 hPa 0,0 mm 1,4 km/h (1 Bft) W-NW 302 ° 1 min 0,000 mm 3,5 UV-I 1002 W/m² 13,9 °C 20,2 °C 3,2 km/h (1 Bft)
15.08.2018 12:52 20,1 °C 65 % 1018,4 hPa 0,0 mm 0,6 km/h (0 Bft) W-NW 302 ° 1 min 0,000 mm 6,7 UV-I 1002 W/m² 13,3 °C 20,1 °C 1,6 km/h (1 Bft)
15.08.2018 12:53 20,1 °C 66 % 1018,4 hPa 0,0 mm 2,3 km/h (1 Bft) W-NW 302 ° 1 min 0,000 mm 6,7 UV-I 1014 W/m² 13,5 °C 20,1 °C 4,8 km/h (1 Bft)
15.08.2018 12:54 20,1 °C 69 % 1018,4 hPa 0,0 mm 2,5 km/h (1 Bft) W-SW 257 ° 1 min 0,000 mm 7,0 UV-I 1030 W/m² 14,2 °C 20,1 °C 4,8 km/h (1 Bft)
15.08.2018 12:55 20,2 °C 70 % 1018,3 hPa 0,0 mm 0,6 km/h (0 Bft) W 259 ° 1 min 0,000 mm 5,1 UV-I 1030 W/m² 14,5 °C 20,2 °C 1,6 km/h (1 Bft)
15.08.2018 12:56 20,3 °C 69 % 1018,3 hPa 0,0 mm 0,8 km/h (0 Bft) NW 311 ° 1 min 0,000 mm 7,2 UV-I 1030 W/m² 14,4 °C 20,3 °C 6,4 km/h (2 Bft)
15.08.2018 12:57 20,5 °C 69 % 1018,3 hPa 0,0 mm 4,7 km/h (1 Bft) NW 316 ° 1 min 0,000 mm 6,8 UV-I 1030 W/m² 14,6 °C 20,5 °C 8,0 km/h (2 Bft)
15.08.2018 12:58 20,5 °C 66 % 1018,3 hPa 0,0 mm 0,6 km/h (0 Bft) NW 316 ° 1 min 0,000 mm 6,8 UV-I 1030 W/m² 13,9 °C 20,5 °C 1,6 km/h (1 Bft)
15.08.2018 12:59 20,5 °C 64 % 1018,3 hPa 0,0 mm 0,3 km/h (0 Bft) NW 317 ° 1 min 0,000 mm 6,8 UV-I 958 W/m² 13,5 °C 20,5 °C 1,6 km/h (1 Bft)
15.08.2018 13:00 20,5 °C 66 % 1018,3 hPa 0,0 mm 3,4 km/h (1 Bft) W 274 ° 1 min 0,406 mm 6,8 UV-I 960 W/m² 13,9 °C 20,5 °C 6,4 km/h (2 Bft)
15.08.2018 13:01 20,7 °C 69 % 1018,3 hPa 0,0 mm 2,8 km/h (1 Bft) W-NW 293 ° 1 min 0,000 mm 6,8 UV-I 954 W/m² 14,8 °C 20,7 °C 4,8 km/h (1 Bft)
15.08.2018 13:02 20,7 °C 65 % 1018,3 hPa 0,0 mm 0,8 km/h (0 Bft) W-NW 293 ° 1 min 0,000 mm 6,8 UV-I 954 W/m² 13,9 °C 20,7 °C 3,2 km/h (1 Bft)
15.08.2018 13:03 20,6 °C 67 % 1018,3 hPa 0,0 mm 0,9 km/h (0 Bft) NW 323 ° 1 min 0,000 mm 6,9 UV-I 965 W/m² 14,3 °C 20,6 °C 4,8 km/h (1 Bft)
15.08.2018 13:04 20,7 °C 69 % 1018,3 hPa 0,0 mm 3,4 km/h (1 Bft) NW 323 ° 1 min 0,000 mm 7,0 UV-I 962 W/m² 14,8 °C 20,7 °C 4,8 km/h (1 Bft)
15.08.2018 13:05 20,9 °C 65 % 1018,3 hPa 0,0 mm 1,7 km/h (1 Bft) NW 323 ° 1 min 0,000 mm 7,0 UV-I 962 W/m² 14,1 °C 20,9 °C 4,8 km/h (1 Bft)
15.08.2018 13:06 21,0 °C 65 % 1018,3 hPa 0,0 mm 3,9 km/h (1 Bft) NW 309 ° 1 min 0,000 mm 7,0 UV-I 958 W/m² 14,2 °C 21,0 °C 6,4 km/h (2 Bft)
15.08.2018 13:07 21,1 °C 67 % 1018,3 hPa 0,0 mm 5,7 km/h (1 Bft) NW 319 ° 1 min 0,000 mm 7,0 UV-I 969 W/m² 14,7 °C 21,1 °C 8,0 km/h (2 Bft)
15.08.2018 13:08 21,2 °C 63 % 1018,2 hPa 0,0 mm 6,3 km/h (2 Bft) N 350 ° 1 min 0,000 mm 6,9 UV-I 962 W/m² 13,9 °C 21,2 °C 14,5 km/h (3 Bft)
15.08.2018 13:09 21,3 °C 67 % 1018,2 hPa 0,0 mm 4,0 km/h (1 Bft) N-NW 348 ° 1 min 0,000 mm 6,9 UV-I 958 W/m² 14,9 °C 21,3 °C 8,0 km/h (2 Bft)
15.08.2018 13:10 21,3 °C 64 % 1018,2 hPa 0,0 mm 6,1 km/h (2 Bft) W-NW 292 ° 1 min 0,000 mm 7,0 UV-I 974 W/m² 14,2 °C 21,3 °C 11,3 km/h (2 Bft)
15.08.2018 13:11 21,2 °C 65 % 1018,2 hPa 0,0 mm 4,8 km/h (1 Bft) N-NW 332 ° 1 min 0,000 mm 7,0 UV-I 981 W/m² 14,4 °C 21,2 °C 6,4 km/h (2 Bft)
15.08.2018 13:12 21,3 °C 70 % 1018,2 hPa 0,0 mm 5,0 km/h (1 Bft) N 5 ° 1 min 0,000 mm 7,0 UV-I 981 W/m² 15,6 °C 21,3 °C 9,7 km/h (2 Bft)
15.08.2018 13:13 21,4 °C 64 % 1018,3 hPa 0,0 mm 8,4 km/h (2 Bft) N-NW 342 ° 1 min 0,000 mm 6,9 UV-I 962 W/m² 14,3 °C 21,4 °C 14,5 km/h (3 Bft)
15.08.2018 13:14 21,4 °C 63 % 1018,2 hPa 0,0 mm 4,8 km/h (1 Bft) N-NO 31 ° 1 min 0,000 mm 6,8 UV-I 946 W/m² 14,1 °C 21,4 °C 8,0 km/h (2 Bft)
15.08.2018 13:15 21,1 °C 61 % 1018,2 hPa 0,0 mm 3,7 km/h (1 Bft) NO 45 ° 1 min 0,000 mm 6,9 UV-I 954 W/m² 13,3 °C 21,1 °C 8,0 km/h (2 Bft)
15.08.2018 13:16 20,9 °C 66 % 1018,2 hPa 0,0 mm 5,2 km/h (1 Bft) NW 323 ° 1 min 0,000 mm 6,9 UV-I 953 W/m² 14,3 °C 20,9 °C 8,0 km/h (2 Bft)
15.08.2018 13:17 20,9 °C 66 % 1018,2 hPa 0,0 mm 5,8 km/h (2 Bft) N-NW 327 ° 1 min 0,000 mm 7,0 UV-I 954 W/m² 14,3 °C 20,9 °C 9,7 km/h (2 Bft)
15.08.2018 13:18 21,0 °C 66 % 1018,2 hPa 0,0 mm 5,0 km/h (1 Bft) N-NW 338 ° 1 min 0,000 mm 6,9 UV-I 951 W/m² 14,4 °C 21,0 °C 8,0 km/h (2 Bft)
15.08.2018 13:19 21,1 °C 67 % 1018,2 hPa 0,0 mm 5,7 km/h (1 Bft) NW 309 ° 1 min 0,000 mm 7,0 UV-I 960 W/m² 14,7 °C 21,1 °C 8,0 km/h (2 Bft)
15.08.2018 13:20 21,1 °C 64 % 1018,2 hPa 0,0 mm 2,3 km/h (1 Bft) NW 318 ° 1 min 0,000 mm 6,9 UV-I 947 W/m² 14,0 °C 21,1 °C 4,8 km/h (1 Bft)
15.08.2018 13:21 20,9 °C 62 % 1018,2 hPa 0,0 mm 0,2 km/h (0 Bft) NW 318 ° 1 min 0,000 mm 3,7 UV-I 947 W/m² 13,3 °C 20,9 °C 3,2 km/h (1 Bft)
15.08.2018 13:22 20,8 °C 64 % 1018,1 hPa 0,0 mm 4,2 km/h (1 Bft) N 355 ° 1 min 0,000 mm 3,5 UV-I 947 W/m² 13,7 °C 20,8 °C 6,4 km/h (2 Bft)
15.08.2018 13:23 20,7 °C 66 % 1018,1 hPa 0,0 mm 7,1 km/h (2 Bft) N-NW 342 ° 0 min 0,000 mm 5,2 UV-I 213 W/m² 14,1 °C 20,7 °C 12,9 km/h (3 Bft)
15.08.2018 13:24 20,8 °C 68 % 1018,2 hPa 0,0 mm 3,8 km/h (1 Bft) N-NW 347 ° 0 min 0,000 mm 6,6 UV-I 213 W/m² 14,7 °C 20,8 °C 8,0 km/h (2 Bft)
15.08.2018 13:25 20,9 °C 68 % 1018,2 hPa 0,0 mm 0,1 km/h (0 Bft) N-NW 347 ° 1 min 0,000 mm 6,7 UV-I 940 W/m² 14,8 °C 20,9 °C 1,6 km/h (1 Bft)
15.08.2018 13:26 20,9 °C 65 % 1018,1 hPa 0,0 mm 0,7 km/h (0 Bft) N-NW 347 ° 1 min 0,000 mm 6,5 UV-I 944 W/m² 14,1 °C 20,9 °C 1,6 km/h (1 Bft)
15.08.2018 13:27 20,9 °C 64 % 1018,0 hPa 0,0 mm 0,0 km/h (0 Bft) N-NW 347 ° 1 min 0,000 mm 6,6 UV-I 958 W/m² 13,8 °C 20,9 °C 0,0 km/h (0 Bft)
15.08.2018 13:28 20,9 °C 65 % 1018,1 hPa 0,0 mm 1,3 km/h (1 Bft) SW 234 ° 1 min 0,000 mm 4,0 UV-I 958 W/m² 14,1 °C 20,9 °C 4,8 km/h (1 Bft)
15.08.2018 13:29 20,8 °C 64 % 1018,0 hPa 0,0 mm 4,1 km/h (1 Bft) NW 312 ° 1 min 0,000 mm 6,5 UV-I 958 W/m² 13,7 °C 20,8 °C 8,0 km/h (2 Bft)
15.08.2018 13:30 20,8 °C 65 % 1018,1 hPa 0,0 mm 4,8 km/h (1 Bft) NW 317 ° 1 min 0,000 mm 4,5 UV-I 728 W/m² 14,0 °C 20,8 °C 6,4 km/h (2 Bft)
15.08.2018 13:31 20,8 °C 64 % 1018,1 hPa 0,0 mm 3,3 km/h (1 Bft) W-NW 292 ° 1 min 0,000 mm 6,7 UV-I 983 W/m² 13,7 °C 20,8 °C 6,4 km/h (2 Bft)
15.08.2018 13:32 20,8 °C 64 % 1018,1 hPa 0,0 mm 3,7 km/h (1 Bft) N-NW 328 ° 1 min 0,000 mm 6,9 UV-I 956 W/m² 13,7 °C 20,8 °C 9,7 km/h (2 Bft)
15.08.2018 13:33 20,9 °C 65 % 1018,0 hPa 0,0 mm 4,6 km/h (1 Bft) N-NW 340 ° 1 min 0,000 mm 6,9 UV-I 956 W/m² 14,1 °C 20,9 °C 8,0 km/h (2 Bft)
15.08.2018 13:34 21,0 °C 62 % 1018,0 hPa 0,0 mm 2,0 km/h (1 Bft) N-NW 339 ° 1 min 0,000 mm 6,9 UV-I 958 W/m² 13,4 °C 21,0 °C 6,4 km/h (2 Bft)
15.08.2018 13:35 21,2 °C 67 % 1018,0 hPa 0,0 mm 5,6 km/h (1 Bft) N 351 ° 1 min 0,000 mm 6,9 UV-I 956 W/m² 14,8 °C 21,2 °C 8,0 km/h (2 Bft)
15.08.2018 13:36 21,3 °C 64 % 1018,0 hPa 0,0 mm 2,9 km/h (1 Bft) O-NO 73 ° 1 min 0,000 mm 6,9 UV-I 969 W/m² 14,2 °C 21,3 °C 6,4 km/h (2 Bft)
15.08.2018 13:37 21,4 °C 63 % 1018,0 hPa 0,0 mm 5,8 km/h (2 Bft) O-NO 58 ° 1 min 0,000 mm 6,8 UV-I 988 W/m² 14,1 °C 21,4 °C 9,7 km/h (2 Bft)
15.08.2018 13:38 21,4 °C 64 % 1018,0 hPa 0,0 mm 4,2 km/h (1 Bft) O-NO 73 ° 1 min 0,000 mm 3,1 UV-I 988 W/m² 14,3 °C 21,4 °C 6,4 km/h (2 Bft)
15.08.2018 13:39 21,2 °C 61 % 1018,0 hPa 0,0 mm 3,6 km/h (1 Bft) O-NO 77 ° 0 min 0,000 mm 3,0 UV-I 213 W/m² 13,4 °C 21,2 °C 6,4 km/h (2 Bft)
15.08.2018 13:40 21,1 °C 63 % 1018,0 hPa 0,0 mm 2,4 km/h (1 Bft) N-NW 333 ° 0 min 0,000 mm 2,9 UV-I 216 W/m² 13,8 °C 21,1 °C 6,4 km/h (2 Bft)
15.08.2018 13:41 21,0 °C 65 % 1018,0 hPa 0,0 mm 6,2 km/h (2 Bft) NW 315 ° 0 min 0,000 mm 2,9 UV-I 211 W/m² 14,2 °C 21,0 °C 8,0 km/h (2 Bft)
15.08.2018 13:42 20,9 °C 64 % 1018,0 hPa 0,0 mm 4,8 km/h (1 Bft) NW 317 ° 0 min 0,000 mm 2,7 UV-I 211 W/m² 13,8 °C 20,9 °C 6,4 km/h (2 Bft)
15.08.2018 13:43 20,8 °C 64 % 1018,0 hPa 0,0 mm 5,2 km/h (1 Bft) NW 320 ° 0 min 0,000 mm 2,8 UV-I 225 W/m² 13,7 °C 20,8 °C 8,0 km/h (2 Bft)
15.08.2018 13:44 20,6 °C 63 % 1018,0 hPa 0,0 mm 1,2 km/h (1 Bft) NW 319 ° 0 min 0,000 mm 2,8 UV-I 234 W/m² 13,3 °C 20,6 °C 3,2 km/h (1 Bft)
15.08.2018 13:45 20,6 °C 63 % 1018,0 hPa 0,0 mm 4,1 km/h (1 Bft) NW 323 ° 0 min 0,000 mm 2,8 UV-I 237 W/m² 13,3 °C 20,6 °C 6,4 km/h (2 Bft)
15.08.2018 13:46 20,4 °C 63 % 1018,1 hPa 0,0 mm 4,6 km/h (1 Bft) W-NW 300 ° 0 min 0,000 mm 2,7 UV-I 237 W/m² 13,1 °C 20,4 °C 6,4 km/h (2 Bft)
15.08.2018 13:47 20,3 °C 62 % 1018,0 hPa 0,0 mm 1,6 km/h (1 Bft) W-NW 300 ° 0 min 0,000 mm 2,7 UV-I 244 W/m² 12,8 °C 20,3 °C 4,8 km/h (1 Bft)
15.08.2018 13:48 20,2 °C 63 % 1018,0 hPa 0,0 mm 1,2 km/h (1 Bft) W-NW 300 ° 0 min 0,000 mm 2,7 UV-I 255 W/m² 12,9 °C 20,2 °C 3,2 km/h (1 Bft)
15.08.2018 13:49 20,3 °C 65 % 1018,0 hPa 0,0 mm 5,1 km/h (1 Bft) NW 325 ° 0 min 0,000 mm 2,7 UV-I 258 W/m² 13,5 °C 20,3 °C 9,7 km/h (2 Bft)
15.08.2018 13:50 20,3 °C 66 % 1018,0 hPa 0,0 mm 3,5 km/h (1 Bft) N-NW 340 ° 0 min 0,000 mm 2,7 UV-I 253 W/m² 13,7 °C 20,3 °C 4,8 km/h (1 Bft)
15.08.2018 13:51 20,3 °C 68 % 1018,1 hPa 0,0 mm 6,2 km/h (2 Bft) N-NW 339 ° 0 min 0,000 mm 2,7 UV-I 250 W/m² 14,2 °C 20,3 °C 9,7 km/h (2 Bft)
15.08.2018 13:52 20,3 °C 66 % 1018,1 hPa 0,0 mm 1,8 km/h (1 Bft) NW 321 ° 0 min 0,000 mm 2,7 UV-I 258 W/m² 13,7 °C 20,3 °C 6,4 km/h (2 Bft)
15.08.2018 13:53 20,4 °C 67 % 1018,1 hPa 0,0 mm 6,2 km/h (2 Bft) N 350 ° 0 min 0,000 mm 2,8 UV-I 274 W/m² 14,1 °C 20,4 °C 8,0 km/h (2 Bft)
15.08.2018 13:54 20,4 °C 67 % 1018,1 hPa 0,0 mm 5,4 km/h (1 Bft) N 5 ° 0 min 0,000 mm 2,9 UV-I 309 W/m² 14,1 °C 20,4 °C 6,4 km/h (2 Bft)
15.08.2018 13:55 20,4 °C 65 % 1018,0 hPa 0,0 mm 7,7 km/h (2 Bft) N-NO 31 ° 0 min 0,000 mm 5,2 UV-I 309 W/m² 13,6 °C 20,4 °C 12,9 km/h (3 Bft)
15.08.2018 13:56 20,5 °C 67 % 1018,0 hPa 0,0 mm 4,3 km/h (1 Bft) W-NW 291 ° 0 min 0,000 mm 2,9 UV-I 309 W/m² 14,2 °C 20,5 °C 4,8 km/h (1 Bft)
15.08.2018 13:57 20,4 °C 66 % 1018,0 hPa 0,0 mm 5,1 km/h (1 Bft) W-NW 292 ° 0 min 0,000 mm 3,1 UV-I 279 W/m² 13,8 °C 20,4 °C 11,3 km/h (2 Bft)
15.08.2018 13:58 20,3 °C 65 % 1018,0 hPa 0,0 mm 2,7 km/h (1 Bft) NW 308 ° 0 min 0,000 mm 3,2 UV-I 285 W/m² 13,5 °C 20,3 °C 8,0 km/h (2 Bft)
15.08.2018 13:59 20,3 °C 64 % 1018,0 hPa 0,0 mm 6,5 km/h (2 Bft) NW 321 ° 0 min 0,000 mm 4,1 UV-I 357 W/m² 13,3 °C 20,3 °C 8,0 km/h (2 Bft)
15.08.2018 14:00 20,3 °C 67 % 1018,0 hPa 0,0 mm 4,2 km/h (1 Bft) N-NW 328 ° 1 min 0,000 mm 6,0 UV-I 997 W/m² 14,0 °C 20,3 °C 8,0 km/h (2 Bft)
15.08.2018 14:01 20,6 °C 66 % 1018,0 hPa 0,0 mm 3,1 km/h (1 Bft) N-NW 340 ° 1 min 0,407 mm 5,7 UV-I 997 W/m² 14,0 °C 20,6 °C 4,8 km/h (1 Bft)
15.08.2018 14:02 20,7 °C 66 % 1018,0 hPa 0,0 mm 1,9 km/h (1 Bft) NW 310 ° 1 min 0,000 mm 2,8 UV-I 997 W/m² 14,1 °C 20,7 °C 6,4 km/h (2 Bft)
15.08.2018 14:04 20,7 °C 64 % 1018,0 hPa 0,0 mm 1,0 km/h (0 Bft) N-NW 343 ° 0 min 0,000 mm 2,6 UV-I 195 W/m² 13,6 °C 20,7 °C 6,4 km/h (2 Bft)
15.08.2018 14:05 20,6 °C 66 % 1018,0 hPa 0,0 mm 2,4 km/h (1 Bft) N 355 ° 0 min 0,000 mm 2,6 UV-I 188 W/m² 14,0 °C 20,6 °C 3,2 km/h (1 Bft)
15.08.2018 14:06 20,6 °C 64 % 1018,0 hPa 0,0 mm 0,4 km/h (0 Bft) N 355 ° 0 min 0,000 mm 2,6 UV-I 179 W/m² 13,5 °C 20,6 °C 3,2 km/h (1 Bft)
15.08.2018 14:07 20,5 °C 65 % 1018,0 hPa 0,0 mm 4,3 km/h (1 Bft) N-NW 329 ° 0 min 0,000 mm 2,6 UV-I 181 W/m² 13,7 °C 20,5 °C 9,7 km/h (2 Bft)
15.08.2018 14:08 20,4 °C 68 % 1018,0 hPa 0,0 mm 3,4 km/h (1 Bft) N-NW 329 ° 0 min 0,000 mm 2,6 UV-I 186 W/m² 14,3 °C 20,4 °C 6,4 km/h (2 Bft)
15.08.2018 14:09 20,4 °C 63 % 1018,0 hPa 0,0 mm 3,8 km/h (1 Bft) NW 323 ° 0 min 0,000 mm 2,6 UV-I 192 W/m² 13,1 °C 20,4 °C 6,4 km/h (2 Bft)
15.08.2018 14:10 20,4 °C 63 % 1018,0 hPa 0,0 mm 4,2 km/h (1 Bft) NW 316 ° 0 min 0,000 mm 2,7 UV-I 195 W/m² 13,1 °C 20,4 °C 6,4 km/h (2 Bft)
15.08.2018 14:11 20,3 °C 65 % 1018,0 hPa 0,0 mm 4,6 km/h (1 Bft) NW 321 ° 0 min 0,000 mm 2,7 UV-I 199 W/m² 13,5 °C 20,3 °C 6,4 km/h (2 Bft)
15.08.2018 14:12 20,2 °C 64 % 1018,0 hPa 0,0 mm 0,3 km/h (0 Bft) NW 321 ° 0 min 0,000 mm 2,8 UV-I 225 W/m² 13,2 °C 20,2 °C 3,2 km/h (1 Bft)
15.08.2018 14:13 20,1 °C 65 % 1018,0 hPa 0,0 mm 0,0 km/h (0 Bft) NW 321 ° 0 min 0,000 mm 3,1 UV-I 246 W/m² 13,3 °C 20,1 °C 0,0 km/h (0 Bft)
15.08.2018 14:14 20,1 °C 65 % 1018,0 hPa 0,0 mm 0,0 km/h (0 Bft) NW 321 ° 0 min 0,000 mm 3,8 UV-I 246 W/m² 13,3 °C 20,1 °C 0,0 km/h (0 Bft)
15.08.2018 14:15 20,1 °C 65 % 1018,0 hPa 0,0 mm 0,0 km/h (0 Bft) NW 321 ° 0 min 0,000 mm 3,1 UV-I 255 W/m² 13,3 °C 20,1 °C 0,0 km/h (0 Bft)
15.08.2018 14:16 20,1 °C 69 % 1018,0 hPa 0,0 mm 0,3 km/h (0 Bft) NW 321 ° 0 min 0,000 mm 3,1 UV-I 237 W/m² 14,2 °C 20,1 °C 1,6 km/h (1 Bft)
15.08.2018 14:17 20,1 °C 65 % 1018,0 hPa 0,0 mm 0,0 km/h (0 Bft) NW 321 ° 0 min 0,000 mm 3,1 UV-I 248 W/m² 13,3 °C 20,1 °C 0,0 km/h (0 Bft)
15.08.2018 14:18 20,1 °C 64 % 1018,0 hPa 0,0 mm 2,0 km/h (1 Bft) N 360 ° 0 min 0,000 mm 3,2 UV-I 248 W/m² 13,1 °C 20,1 °C 4,8 km/h (1 Bft)
15.08.2018 14:19 20,2 °C 69 % 1018,0 hPa 0,0 mm 3,2 km/h (1 Bft) N-NO 28 ° 0 min 0,000 mm 5,1 UV-I 248 W/m² 14,3 °C 20,2 °C 4,8 km/h (1 Bft)
15.08.2018 14:20 20,3 °C 69 % 1018,0 hPa 0,0 mm 3,7 km/h (1 Bft) NO 34 ° 0 min 0,000 mm 6,1 UV-I 248 W/m² 14,4 °C 20,3 °C 6,4 km/h (2 Bft)
15.08.2018 14:21 20,4 °C 66 % 1018,0 hPa 0,0 mm 0,5 km/h (0 Bft) N-NO 33 ° 0 min 0,000 mm 3,7 UV-I 248 W/m² 13,8 °C 20,4 °C 1,6 km/h (1 Bft)
15.08.2018 14:22 20,4 °C 61 % 1017,9 hPa 0,0 mm 3,1 km/h (1 Bft) NO 34 ° 0 min 0,000 mm 3,1 UV-I 248 W/m² 12,6 °C 20,4 °C 4,8 km/h (1 Bft)
15.08.2018 14:23 20,4 °C 61 % 1017,9 hPa 0,0 mm 2,5 km/h (1 Bft) NO 39 ° 0 min 0,000 mm 3,1 UV-I 234 W/m² 12,6 °C 20,4 °C 4,8 km/h (1 Bft)
15.08.2018 14:24 20,4 °C 62 % 1017,9 hPa 0,0 mm 1,9 km/h (1 Bft) NO 39 ° 0 min 0,000 mm 3,3 UV-I 234 W/m² 12,9 °C 20,4 °C 3,2 km/h (1 Bft)
15.08.2018 14:25 20,4 °C 65 % 1017,9 hPa 0,0 mm 0,0 km/h (0 Bft) NO 39 ° 0 min 0,000 mm 3,7 UV-I 304 W/m² 13,6 °C 20,4 °C 0,0 km/h (0 Bft)
15.08.2018 14:26 20,4 °C 64 % 1017,9 hPa 0,0 mm 1,2 km/h (1 Bft) N-NO 15 ° 0 min 0,000 mm 3,2 UV-I 257 W/m² 13,4 °C 20,4 °C 3,2 km/h (1 Bft)
15.08.2018 14:27 20,5 °C 66 % 1017,9 hPa 0,0 mm 4,9 km/h (1 Bft) W 263 ° 0 min 0,000 mm 3,7 UV-I 330 W/m² 13,9 °C 20,5 °C 11,3 km/h (2 Bft)
15.08.2018 14:28 20,4 °C 66 % 1017,9 hPa 0,0 mm 7,6 km/h (2 Bft) W-NW 300 ° 0 min 0,000 mm 4,6 UV-I 330 W/m² 13,8 °C 20,4 °C 11,3 km/h (2 Bft)
15.08.2018 14:29 20,4 °C 65 % 1017,9 hPa 0,0 mm 8,0 km/h (2 Bft) W 273 ° 0 min 0,000 mm 3,1 UV-I 330 W/m² 13,6 °C 20,4 °C 11,3 km/h (2 Bft)
15.08.2018 14:30 20,4 °C 67 % 1017,9 hPa 0,0 mm 8,2 km/h (2 Bft) W 273 ° 0 min 0,000 mm 4,3 UV-I 330 W/m² 14,1 °C 20,4 °C 12,9 km/h (3 Bft)
15.08.2018 14:31 20,4 °C 67 % 1017,9 hPa 0,0 mm 9,9 km/h (2 Bft) W-NW 296 ° 1 min 0,000 mm 5,9 UV-I 939 W/m² 14,1 °C 20,4 °C 14,5 km/h (3 Bft)
15.08.2018 14:32 20,5 °C 65 % 1017,9 hPa 0,0 mm 7,2 km/h (2 Bft) W-NW 295 ° 1 min 0,000 mm 5,9 UV-I 939 W/m² 13,7 °C 20,5 °C 11,3 km/h (2 Bft)
15.08.2018 14:33 20,6 °C 65 % 1017,9 hPa 0,0 mm 4,6 km/h (1 Bft) NW 319 ° 1 min 0,000 mm 5,0 UV-I 939 W/m² 13,8 °C 20,6 °C 6,4 km/h (2 Bft)
15.08.2018 14:34 20,7 °C 65 % 1017,9 hPa 0,0 mm 4,4 km/h (1 Bft) NW 321 ° 1 min 0,000 mm 5,9 UV-I 939 W/m² 13,9 °C 20,7 °C 6,4 km/h (2 Bft)
15.08.2018 14:35 20,7 °C 66 % 1017,9 hPa 0,0 mm 4,6 km/h (1 Bft) W-NW 294 ° 1 min 0,000 mm 4,4 UV-I 991 W/m² 14,1 °C 20,7 °C 8,0 km/h (2 Bft)
15.08.2018 14:36 20,8 °C 66 % 1017,9 hPa 0,0 mm 3,6 km/h (1 Bft) W-NW 293 ° 1 min 0,000 mm 4,6 UV-I 991 W/m² 14,2 °C 20,8 °C 6,4 km/h (2 Bft)
15.08.2018 14:37 20,8 °C 65 % 1017,9 hPa 0,0 mm 4,6 km/h (1 Bft) NW 316 ° 1 min 0,000 mm 4,0 UV-I 626 W/m² 14,0 °C 20,8 °C 6,4 km/h (2 Bft)
15.08.2018 14:38 20,8 °C 67 % 1017,9 hPa 0,0 mm 6,4 km/h (2 Bft) N 360 ° 0 min 0,000 mm 5,5 UV-I 561 W/m² 14,4 °C 20,8 °C 8,0 km/h (2 Bft)
15.08.2018 14:39 21,1 °C 66 % 1017,9 hPa 0,0 mm 3,6 km/h (1 Bft) NW 322 ° 0 min 0,000 mm 6,3 UV-I 561 W/m² 14,5 °C 21,1 °C 4,8 km/h (1 Bft)
15.08.2018 14:40 21,3 °C 64 % 1017,9 hPa 0,0 mm 5,9 km/h (2 Bft) W-NW 303 ° 1 min 0,000 mm 6,3 UV-I 1009 W/m² 14,2 °C 21,3 °C 9,7 km/h (2 Bft)
15.08.2018 14:41 21,4 °C 63 % 1017,9 hPa 0,0 mm 5,0 km/h (1 Bft) NW 304 ° 1 min 0,000 mm 6,3 UV-I 967 W/m² 14,1 °C 21,4 °C 8,0 km/h (2 Bft)
15.08.2018 14:42 21,4 °C 60 % 1017,8 hPa 0,0 mm 4,3 km/h (1 Bft) W-NW 282 ° 1 min 0,000 mm 6,2 UV-I 949 W/m² 13,3 °C 21,4 °C 6,4 km/h (2 Bft)
15.08.2018 14:43 21,3 °C 61 % 1017,9 hPa 0,0 mm 4,6 km/h (1 Bft) NW 318 ° 1 min 0,000 mm 6,1 UV-I 926 W/m² 13,5 °C 21,3 °C 6,4 km/h (2 Bft)
15.08.2018 14:44 21,3 °C 60 % 1017,8 hPa 0,0 mm 0,6 km/h (0 Bft) NW 318 ° 1 min 0,000 mm 6,1 UV-I 926 W/m² 13,2 °C 21,3 °C 3,2 km/h (1 Bft)
15.08.2018 14:45 21,3 °C 62 % 1017,9 hPa 0,0 mm 0,1 km/h (0 Bft) NW 318 ° 1 min 0,000 mm 6,2 UV-I 912 W/m² 13,7 °C 21,3 °C 1,6 km/h (1 Bft)
15.08.2018 14:46 21,3 °C 65 % 1017,8 hPa 0,0 mm 4,2 km/h (1 Bft) NW 323 ° 1 min 0,000 mm 6,1 UV-I 902 W/m² 14,4 °C 21,3 °C 9,7 km/h (2 Bft)
15.08.2018 14:47 21,6 °C 68 % 1017,8 hPa 0,0 mm 5,6 km/h (1 Bft) NW 309 ° 1 min 0,000 mm 6,1 UV-I 882 W/m² 15,4 °C 21,6 °C 8,0 km/h (2 Bft)
15.08.2018 14:48 21,8 °C 64 % 1017,8 hPa 0,0 mm 6,2 km/h (2 Bft) N-NW 327 ° 1 min 0,000 mm 6,1 UV-I 875 W/m² 14,7 °C 21,8 °C 9,7 km/h (2 Bft)
15.08.2018 14:49 22,0 °C 63 % 1017,8 hPa 0,0 mm 4,5 km/h (1 Bft) N-NW 343 ° 1 min 0,000 mm 6,1 UV-I 874 W/m² 14,6 °C 22,0 °C 8,0 km/h (2 Bft)
15.08.2018 14:50 22,0 °C 61 % 1017,8 hPa 0,0 mm 3,0 km/h (1 Bft) W-NW 297 ° 1 min 0,000 mm 6,0 UV-I 865 W/m² 14,1 °C 22,0 °C 4,8 km/h (1 Bft)
15.08.2018 14:51 21,9 °C 62 % 1017,8 hPa 0,0 mm 2,3 km/h (1 Bft) W-NW 296 ° 1 min 0,000 mm 6,0 UV-I 858 W/m² 14,3 °C 21,9 °C 4,8 km/h (1 Bft)
15.08.2018 14:52 21,9 °C 56 % 1017,7 hPa 0,0 mm 1,1 km/h (1 Bft) S 180 ° 1 min 0,000 mm 6,0 UV-I 851 W/m² 12,7 °C 21,9 °C 3,2 km/h (1 Bft)
15.08.2018 14:53 21,8 °C 56 % 1017,7 hPa 0,0 mm 3,2 km/h (1 Bft) S 173 ° 1 min 0,000 mm 5,9 UV-I 840 W/m² 12,6 °C 21,8 °C 4,8 km/h (1 Bft)
15.08.2018 14:54 21,7 °C 56 % 1017,7 hPa 0,0 mm 1,9 km/h (1 Bft) S 173 ° 1 min 0,000 mm 5,9 UV-I 838 W/m² 12,5 °C 21,7 °C 3,2 km/h (1 Bft)
15.08.2018 14:55 21,7 °C 57 % 1017,7 hPa 0,0 mm 1,4 km/h (1 Bft) S 173 ° 1 min 0,000 mm 5,9 UV-I 837 W/m² 12,8 °C 21,7 °C 3,2 km/h (1 Bft)
15.08.2018 14:56 21,8 °C 60 % 1017,7 hPa 0,0 mm 2,0 km/h (1 Bft) W-NW 286 ° 1 min 0,000 mm 5,9 UV-I 833 W/m² 13,7 °C 21,8 °C 4,8 km/h (1 Bft)
15.08.2018 14:57 21,9 °C 62 % 1017,7 hPa 0,0 mm 3,5 km/h (1 Bft) N-NW 330 ° 1 min 0,000 mm 5,8 UV-I 830 W/m² 14,3 °C 21,9 °C 8,0 km/h (2 Bft)
15.08.2018 14:58 22,0 °C 59 % 1017,7 hPa 0,0 mm 4,7 km/h (1 Bft) N-NO 29 ° 1 min 0,000 mm 5,8 UV-I 830 W/m² 13,6 °C 22,0 °C 6,4 km/h (2 Bft)
15.08.2018 14:59 22,0 °C 59 % 1017,7 hPa 0,0 mm 4,5 km/h (1 Bft) O-NO 72 ° 1 min 0,000 mm 5,8 UV-I 830 W/m² 13,6 °C 22,0 °C 8,0 km/h (2 Bft)
15.08.2018 15:00 22,0 °C 61 % 1017,7 hPa 0,0 mm 3,6 km/h (1 Bft) O-NO 61 ° 1 min 0,000 mm 5,7 UV-I 830 W/m² 14,1 °C 22,0 °C 6,4 km/h (2 Bft)
15.08.2018 15:01 22,0 °C 61 % 1017,8 hPa 0,0 mm 6,3 km/h (2 Bft) O 80 ° 1 min 0,381 mm 5,7 UV-I 837 W/m² 14,1 °C 22,0 °C 8,0 km/h (2 Bft)
15.08.2018 15:02 21,7 °C 58 % 1017,7 hPa 0,0 mm 3,7 km/h (1 Bft) O 86 ° 1 min 0,000 mm 2,8 UV-I 837 W/m² 13,1 °C 21,7 °C 4,8 km/h (1 Bft)
15.08.2018 15:03 21,4 °C 58 % 1017,7 hPa 0,0 mm 1,2 km/h (1 Bft) O 86 ° 0 min 0,000 mm 2,7 UV-I 146 W/m² 12,8 °C 21,4 °C 3,2 km/h (1 Bft)
15.08.2018 15:04 21,3 °C 59 % 1017,7 hPa 0,0 mm 1,8 km/h (1 Bft) O 86 ° 0 min 0,000 mm 2,7 UV-I 156 W/m² 13,0 °C 21,3 °C 3,2 km/h (1 Bft)
15.08.2018 15:05 21,3 °C 61 % 1017,7 hPa 0,0 mm 4,4 km/h (1 Bft) N-NO 13 ° 0 min 0,000 mm 2,5 UV-I 156 W/m² 13,5 °C 21,3 °C 6,4 km/h (2 Bft)
15.08.2018 15:06 21,3 °C 58 % 1017,8 hPa 0,0 mm 4,3 km/h (1 Bft) N 9 ° 0 min 0,000 mm 2,5 UV-I 162 W/m² 12,7 °C 21,3 °C 6,4 km/h (2 Bft)
15.08.2018 15:07 21,2 °C 58 % 1017,7 hPa 0,0 mm 1,7 km/h (1 Bft) N-NO 31 ° 0 min 0,000 mm 3,1 UV-I 162 W/m² 12,6 °C 21,2 °C 4,8 km/h (1 Bft)
15.08.2018 15:08 21,1 °C 54 % 1017,7 hPa 0,0 mm 1,9 km/h (1 Bft) N-NO 31 ° 0 min 0,000 mm 2,5 UV-I 162 W/m² 11,4 °C 21,1 °C 3,2 km/h (1 Bft)
15.08.2018 15:09 21,0 °C 55 % 1017,7 hPa 0,0 mm 0,1 km/h (0 Bft) N-NO 31 ° 0 min 0,000 mm 2,4 UV-I 165 W/m² 11,6 °C 21,0 °C 1,6 km/h (1 Bft)
15.08.2018 15:10 20,9 °C 57 % 1017,7 hPa 0,0 mm 0,9 km/h (0 Bft) N-NO 31 ° 0 min 0,000 mm 2,4 UV-I 179 W/m² 12,1 °C 20,9 °C 4,8 km/h (1 Bft)
15.08.2018 15:11 20,8 °C 58 % 1017,7 hPa 0,0 mm 0,8 km/h (0 Bft) N-NO 31 ° 0 min 0,000 mm 2,5 UV-I 188 W/m² 12,2 °C 20,8 °C 3,2 km/h (1 Bft)
15.08.2018 15:12 20,8 °C 57 % 1017,7 hPa 0,0 mm 0,1 km/h (0 Bft) N-NO 31 ° 0 min 0,000 mm 2,5 UV-I 190 W/m² 12,0 °C 20,8 °C 1,6 km/h (1 Bft)
15.08.2018 15:13 20,8 °C 59 % 1017,7 hPa 0,0 mm 0,3 km/h (0 Bft) N-NO 31 ° 0 min 0,000 mm 2,4 UV-I 190 W/m² 12,5 °C 20,8 °C 1,6 km/h (1 Bft)
15.08.2018 15:14 20,8 °C 58 % 1017,7 hPa 0,0 mm 1,5 km/h (1 Bft) W 275 ° 0 min 0,000 mm 2,4 UV-I 190 W/m² 12,2 °C 20,8 °C 4,8 km/h (1 Bft)
15.08.2018 15:15 20,8 °C 58 % 1017,7 hPa 0,0 mm 0,0 km/h (0 Bft) W 275 ° 0 min 0,000 mm 2,4 UV-I 195 W/m² 12,2 °C 20,8 °C 0,0 km/h (0 Bft)
15.08.2018 15:16 20,7 °C 61 % 1017,7 hPa 0,0 mm 0,3 km/h (0 Bft) W 275 ° 0 min 0,000 mm 2,4 UV-I 202 W/m² 12,9 °C 20,7 °C 1,6 km/h (1 Bft)
15.08.2018 15:17 20,7 °C 61 % 1017,6 hPa 0,0 mm 0,0 km/h (0 Bft) W 275 ° 0 min 0,000 mm 2,3 UV-I 204 W/m² 12,9 °C 20,7 °C 0,0 km/h (0 Bft)
15.08.2018 15:18 20,6 °C 62 % 1017,7 hPa 0,0 mm 0,9 km/h (0 Bft) W 275 ° 0 min 0,000 mm 2,3 UV-I 209 W/m² 13,1 °C 20,6 °C 3,2 km/h (1 Bft)
15.08.2018 15:19 20,7 °C 59 % 1017,6 hPa 0,0 mm 0,9 km/h (0 Bft) W 275 ° 0 min 0,000 mm 2,3 UV-I 214 W/m² 12,4 °C 20,7 °C 3,2 km/h (1 Bft)
15.08.2018 15:20 20,7 °C 59 % 1017,7 hPa 0,0 mm 0,0 km/h (0 Bft) W 275 ° 0 min 0,000 mm 2,3 UV-I 214 W/m² 12,4 °C 20,7 °C 0,0 km/h (0 Bft)
15.08.2018 15:21 20,7 °C 60 % 1017,7 hPa 0,0 mm 0,0 km/h (0 Bft) W 275 ° 0 min 0,000 mm 2,3 UV-I 214 W/m² 12,7 °C 20,7 °C 0,0 km/h (0 Bft)
15.08.2018 15:22 20,7 °C 63 % 1017,7 hPa 0,0 mm 1,2 km/h (1 Bft) W 276 ° 0 min 0,000 mm 2,2 UV-I 206 W/m² 13,4 °C 20,7 °C 3,2 km/h (1 Bft)
15.08.2018 15:23 20,7 °C 62 % 1017,7 hPa 0,0 mm 1,4 km/h (1 Bft) W 276 ° 0 min 0,000 mm 2,2 UV-I 206 W/m² 13,2 °C 20,7 °C 3,2 km/h (1 Bft)
15.08.2018 15:24 20,7 °C 63 % 1017,6 hPa 0,0 mm 2,3 km/h (1 Bft) W 275 ° 0 min 0,000 mm 2,2 UV-I 209 W/m² 13,4 °C 20,7 °C 4,8 km/h (1 Bft)
15.08.2018 15:25 20,7 °C 63 % 1017,7 hPa 0,0 mm 1,8 km/h (1 Bft) W 275 ° 0 min 0,000 mm 2,2 UV-I 216 W/m² 13,4 °C 20,7 °C 3,2 km/h (1 Bft)
15.08.2018 15:26 20,7 °C 63 % 1017,7 hPa 0,0 mm 1,1 km/h (1 Bft) W 275 ° 0 min 0,000 mm 2,2 UV-I 221 W/m² 13,4 °C 20,7 °C 3,2 km/h (1 Bft)
15.08.2018 15:27 20,7 °C 62 % 1017,7 hPa 0,0 mm 1,1 km/h (1 Bft) W 275 ° 0 min 0,000 mm 2,2 UV-I 223 W/m² 13,2 °C 20,7 °C 1,6 km/h (1 Bft)
15.08.2018 15:28 20,7 °C 62 % 1017,6 hPa 0,0 mm 0,6 km/h (0 Bft) W 275 ° 0 min 0,000 mm 2,2 UV-I 223 W/m² 13,2 °C 20,7 °C 1,6 km/h (1 Bft)
15.08.2018 15:29 20,7 °C 63 % 1017,6 hPa 0,0 mm 0,5 km/h (0 Bft) W 275 ° 0 min 0,000 mm 2,2 UV-I 227 W/m² 13,4 °C 20,7 °C 1,6 km/h (1 Bft)
15.08.2018 15:30 20,7 °C 64 % 1017,6 hPa 0,0 mm 0,0 km/h (0 Bft) W 275 ° 0 min 0,000 mm 2,3 UV-I 236 W/m² 13,6 °C 20,7 °C 0,0 km/h (0 Bft)
15.08.2018 15:31 20,7 °C 64 % 1017,7 hPa 0,0 mm 0,1 km/h (0 Bft) W 275 ° 0 min 0,000 mm 2,5 UV-I 327 W/m² 13,6 °C 20,7 °C 1,6 km/h (1 Bft)
15.08.2018 15:32 20,7 °C 66 % 1017,6 hPa 0,0 mm 0,0 km/h (0 Bft) W 275 ° 0 min 0,000 mm 2,9 UV-I 394 W/m² 14,1 °C 20,7 °C 0,0 km/h (0 Bft)
15.08.2018 15:33 20,7 °C 62 % 1017,6 hPa 0,0 mm 0,0 km/h (0 Bft) W 275 ° 0 min 0,000 mm 2,5 UV-I 394 W/m² 13,2 °C 20,7 °C 0,0 km/h (0 Bft)
15.08.2018 15:34 20,7 °C 62 % 1017,6 hPa 0,0 mm 0,3 km/h (0 Bft) W 275 ° 0 min 0,000 mm 2,6 UV-I 281 W/m² 13,2 °C 20,7 °C 1,6 km/h (1 Bft)
15.08.2018 15:35 20,7 °C 65 % 1017,6 hPa 0,0 mm 3,8 km/h (1 Bft) W 275 ° 0 min 0,000 mm 2,5 UV-I 250 W/m² 13,9 °C 20,7 °C 4,8 km/h (1 Bft)
15.08.2018 15:36 20,8 °C 64 % 1017,6 hPa 0,0 mm 2,0 km/h (1 Bft) W 275 ° 0 min 0,000 mm 2,5 UV-I 241 W/m² 13,7 °C 20,8 °C 3,2 km/h (1 Bft)
15.08.2018 15:37 20,8 °C 67 % 1017,6 hPa 0,0 mm 2,0 km/h (1 Bft) W 275 ° 0 min 0,000 mm 2,7 UV-I 330 W/m² 14,4 °C 20,8 °C 3,2 km/h (1 Bft)
15.08.2018 15:38 20,8 °C 64 % 1017,6 hPa 0,0 mm 1,0 km/h (0 Bft) W 275 ° 0 min 0,000 mm 4,2 UV-I 330 W/m² 13,7 °C 20,8 °C 3,2 km/h (1 Bft)
15.08.2018 15:39 20,9 °C 63 % 1017,6 hPa 0,0 mm 0,0 km/h (0 Bft) W 275 ° 0 min 0,000 mm 2,6 UV-I 278 W/m² 13,6 °C 20,9 °C 0,0 km/h (0 Bft)
15.08.2018 15:40 20,9 °C 65 % 1017,6 hPa 0,0 mm 0,3 km/h (0 Bft) W 275 ° 0 min 0,000 mm 2,7 UV-I 278 W/m² 14,1 °C 20,9 °C 3,2 km/h (1 Bft)
15.08.2018 15:41 20,8 °C 61 % 1017,6 hPa 0,0 mm 2,3 km/h (1 Bft) W 275 ° 0 min 0,000 mm 3,9 UV-I 584 W/m² 13,0 °C 20,8 °C 3,2 km/h (1 Bft)
15.08.2018 15:42 20,8 °C 63 % 1017,6 hPa 0,0 mm 2,3 km/h (1 Bft) W 275 ° 0 min 0,000 mm 3,4 UV-I 584 W/m² 13,5 °C 20,8 °C 3,2 km/h (1 Bft)
15.08.2018 15:43 20,9 °C 66 % 1017,5 hPa 0,0 mm 0,1 km/h (0 Bft) W 275 ° 1 min 0,000 mm 4,8 UV-I 856 W/m² 14,3 °C 20,9 °C 1,6 km/h (1 Bft)
15.08.2018 15:44 21,1 °C 61 % 1017,6 hPa 0,0 mm 0,2 km/h (0 Bft) W 275 ° 1 min 0,000 mm 4,7 UV-I 844 W/m² 13,3 °C 21,1 °C 1,6 km/h (1 Bft)
15.08.2018 15:45 21,2 °C 59 % 1017,6 hPa 0,0 mm 0,4 km/h (0 Bft) W 275 ° 1 min 0,000 mm 4,7 UV-I 793 W/m² 12,9 °C 21,2 °C 1,6 km/h (1 Bft)
15.08.2018 15:46 21,2 °C 59 % 1017,5 hPa 0,0 mm 2,0 km/h (1 Bft) W-NW 284 ° 1 min 0,000 mm 4,6 UV-I 777 W/m² 12,9 °C 21,2 °C 4,8 km/h (1 Bft)
15.08.2018 15:47 21,3 °C 62 % 1017,5 hPa 0,0 mm 3,4 km/h (1 Bft) W-NW 284 ° 1 min 0,000 mm 4,4 UV-I 754 W/m² 13,7 °C 21,3 °C 6,4 km/h (2 Bft)
15.08.2018 15:48 21,3 °C 61 % 1017,6 hPa 0,0 mm 2,5 km/h (1 Bft) W-NW 284 ° 1 min 0,000 mm 4,4 UV-I 742 W/m² 13,5 °C 21,3 °C 4,8 km/h (1 Bft)
15.08.2018 15:49 21,4 °C 60 % 1017,5 hPa 0,0 mm 1,4 km/h (1 Bft) W-NW 286 ° 1 min 0,000 mm 4,3 UV-I 740 W/m² 13,3 °C 21,4 °C 3,2 km/h (1 Bft)
15.08.2018 15:50 21,5 °C 62 % 1017,5 hPa 0,0 mm 1,2 km/h (1 Bft) W-NW 295 ° 1 min 0,000 mm 4,2 UV-I 719 W/m² 13,9 °C 21,5 °C 3,2 km/h (1 Bft)
15.08.2018 15:51 21,6 °C 61 % 1017,5 hPa 0,0 mm 4,7 km/h (1 Bft) W-SW 246 ° 1 min 0,000 mm 4,2 UV-I 707 W/m² 13,7 °C 21,6 °C 6,4 km/h (2 Bft)
15.08.2018 15:52 21,6 °C 59 % 1017,5 hPa 0,0 mm 5,4 km/h (1 Bft) W 264 ° 1 min 0,000 mm 4,3 UV-I 722 W/m² 13,2 °C 21,6 °C 6,4 km/h (2 Bft)
15.08.2018 15:53 21,4 °C 59 % 1017,5 hPa 0,0 mm 1,9 km/h (1 Bft) W 264 ° 1 min 0,000 mm 4,3 UV-I 721 W/m² 13,0 °C 21,4 °C 4,8 km/h (1 Bft)
15.08.2018 15:54 21,4 °C 60 % 1017,5 hPa 0,0 mm 4,5 km/h (1 Bft) W 264 ° 1 min 0,000 mm 3,1 UV-I 712 W/m² 13,3 °C 21,4 °C 6,4 km/h (2 Bft)
15.08.2018 15:55 21,4 °C 61 % 1017,4 hPa 0,0 mm 3,2 km/h (1 Bft) W 264 ° 1 min 0,000 mm 3,4 UV-I 710 W/m² 13,6 °C 21,4 °C 4,8 km/h (1 Bft)
15.08.2018 15:56 21,4 °C 61 % 1017,5 hPa 0,0 mm 1,7 km/h (1 Bft) W-SW 254 ° 1 min 0,000 mm 4,4 UV-I 710 W/m² 13,6 °C 21,4 °C 3,2 km/h (1 Bft)
15.08.2018 15:57 21,4 °C 63 % 1017,4 hPa 0,0 mm 2,1 km/h (1 Bft) W-SW 254 ° 1 min 0,000 mm 4,4 UV-I 717 W/m² 14,1 °C 21,4 °C 4,8 km/h (1 Bft)
15.08.2018 15:58 21,4 °C 62 % 1017,5 hPa 0,0 mm 3,4 km/h (1 Bft) W 271 ° 1 min 0,000 mm 4,3 UV-I 714 W/m² 13,8 °C 21,4 °C 6,4 km/h (2 Bft)
15.08.2018 15:59 21,5 °C 63 % 1017,4 hPa 0,0 mm 5,7 km/h (1 Bft) W-SW 253 ° 1 min 0,000 mm 4,3 UV-I 707 W/m² 14,2 °C 21,5 °C 9,7 km/h (2 Bft)
15.08.2018 16:00 21,6 °C 61 % 1017,4 hPa 0,0 mm 5,2 km/h (1 Bft) W 267 ° 1 min 0,254 mm 4,3 UV-I 700 W/m² 13,7 °C 21,6 °C 9,7 km/h (2 Bft)
15.08.2018 16:01 21,6 °C 63 % 1017,4 hPa 0,0 mm 5,9 km/h (2 Bft) W 280 ° 1 min 0,000 mm 4,2 UV-I 691 W/m² 14,2 °C 21,6 °C 6,4 km/h (2 Bft)
15.08.2018 16:02 21,7 °C 59 % 1017,5 hPa 0,0 mm 1,5 km/h (1 Bft) W 280 ° 1 min 0,000 mm 4,2 UV-I 687 W/m² 13,3 °C 21,7 °C 3,2 km/h (1 Bft)
15.08.2018 16:03 21,8 °C 65 % 1017,4 hPa 0,0 mm 2,2 km/h (1 Bft) W 278 ° 1 min 0,000 mm 4,2 UV-I 686 W/m² 14,9 °C 21,8 °C 3,2 km/h (1 Bft)
15.08.2018 16:04 21,8 °C 60 % 1017,5 hPa 0,0 mm 6,4 km/h (2 Bft) W 266 ° 1 min 0,000 mm 4,2 UV-I 689 W/m² 13,7 °C 21,8 °C 11,3 km/h (2 Bft)
15.08.2018 16:05 21,8 °C 59 % 1017,5 hPa 0,0 mm 7,9 km/h (2 Bft) W-SW 258 ° 1 min 0,000 mm 4,2 UV-I 689 W/m² 13,4 °C 21,8 °C 9,7 km/h (2 Bft)
15.08.2018 16:06 21,7 °C 60 % 1017,4 hPa 0,0 mm 5,1 km/h (1 Bft) W-NW 290 ° 1 min 0,000 mm 4,1 UV-I 687 W/m² 13,6 °C 21,7 °C 9,7 km/h (2 Bft)
15.08.2018 16:07 21,7 °C 59 % 1017,4 hPa 0,0 mm 5,0 km/h (1 Bft) W-SW 251 ° 1 min 0,000 mm 4,1 UV-I 687 W/m² 13,3 °C 21,7 °C 9,7 km/h (2 Bft)
15.08.2018 16:08 21,7 °C 60 % 1017,4 hPa 0,0 mm 3,3 km/h (1 Bft) W-SW 251 ° 1 min 0,000 mm 4,0 UV-I 687 W/m² 13,6 °C 21,7 °C 6,4 km/h (2 Bft)
15.08.2018 16:09 21,7 °C 60 % 1017,5 hPa 0,0 mm 2,1 km/h (1 Bft) W-SW 254 ° 1 min 0,000 mm 3,9 UV-I 603 W/m² 13,6 °C 21,7 °C 4,8 km/h (1 Bft)
15.08.2018 16:10 21,7 °C 59 % 1017,4 hPa 0,0 mm 2,0 km/h (1 Bft) W 265 ° 1 min 0,000 mm 3,6 UV-I 603 W/m² 13,3 °C 21,7 °C 4,8 km/h (1 Bft)
15.08.2018 16:11 21,8 °C 60 % 1017,5 hPa 0,0 mm 3,2 km/h (1 Bft) W 267 ° 1 min 0,000 mm 2,9 UV-I 603 W/m² 13,7 °C 21,8 °C 4,8 km/h (1 Bft)
15.08.2018 16:12 21,8 °C 61 % 1017,5 hPa 0,0 mm 5,1 km/h (1 Bft) NW 313 ° 0 min 0,000 mm 2,5 UV-I 193 W/m² 13,9 °C 21,8 °C 8,0 km/h (2 Bft)
15.08.2018 16:13 21,9 °C 61 % 1017,5 hPa 0,0 mm 0,5 km/h (0 Bft) NW 313 ° 0 min 0,000 mm 2,4 UV-I 213 W/m² 14,0 °C 21,9 °C 4,8 km/h (1 Bft)
15.08.2018 16:14 21,9 °C 60 % 1017,5 hPa 0,0 mm 0,1 km/h (0 Bft) NW 313 ° 0 min 0,000 mm 2,5 UV-I 213 W/m² 13,8 °C 21,9 °C 3,2 km/h (1 Bft)
15.08.2018 16:15 21,9 °C 60 % 1017,4 hPa 0,0 mm 2,4 km/h (1 Bft) NW 317 ° 0 min 0,000 mm 2,4 UV-I 192 W/m² 13,8 °C 21,9 °C 4,8 km/h (1 Bft)
15.08.2018 16:16 21,9 °C 62 % 1017,5 hPa 0,0 mm 6,0 km/h (2 Bft) NW 313 ° 0 min 0,000 mm 2,4 UV-I 192 W/m² 14,3 °C 21,9 °C 8,0 km/h (2 Bft)
15.08.2018 16:17 22,1 °C 63 % 1017,5 hPa 0,0 mm 4,6 km/h (1 Bft) NW 316 ° 0 min 0,000 mm 2,4 UV-I 185 W/m² 14,7 °C 22,1 °C 8,0 km/h (2 Bft)
15.08.2018 16:18 22,1 °C 61 % 1017,4 hPa 0,0 mm 3,3 km/h (1 Bft) NW 316 ° 0 min 0,000 mm 2,4 UV-I 190 W/m² 14,2 °C 22,1 °C 4,8 km/h (1 Bft)
15.08.2018 16:19 22,1 °C 59 % 1017,4 hPa 0,0 mm 4,6 km/h (1 Bft) N-NW 328 ° 0 min 0,000 mm 2,3 UV-I 188 W/m² 13,7 °C 22,1 °C 6,4 km/h (2 Bft)
15.08.2018 16:20 22,1 °C 61 % 1017,4 hPa 0,0 mm 3,6 km/h (1 Bft) N-NO 22 ° 0 min 0,000 mm 2,3 UV-I 181 W/m² 14,2 °C 22,1 °C 4,8 km/h (1 Bft)
15.08.2018 16:21 22,0 °C 60 % 1017,4 hPa 0,0 mm 2,1 km/h (1 Bft) N-NO 14 ° 0 min 0,000 mm 2,3 UV-I 165 W/m² 13,9 °C 22,0 °C 4,8 km/h (1 Bft)
15.08.2018 16:22 22,1 °C 63 % 1017,4 hPa 0,0 mm 0,0 km/h (0 Bft) N-NO 14 ° 0 min 0,000 mm 2,2 UV-I 158 W/m² 14,7 °C 22,1 °C 0,0 km/h (0 Bft)
15.08.2018 16:23 22,2 °C 63 % 1017,4 hPa 0,0 mm 3,8 km/h (1 Bft) N-NO 30 ° 0 min 0,000 mm 2,2 UV-I 151 W/m² 14,8 °C 22,2 °C 6,4 km/h (2 Bft)
15.08.2018 16:24 22,2 °C 59 % 1017,4 hPa 0,0 mm 2,7 km/h (1 Bft) NO 35 ° 0 min 0,000 mm 2,2 UV-I 144 W/m² 13,8 °C 22,2 °C 4,8 km/h (1 Bft)
15.08.2018 16:25 22,1 °C 59 % 1017,5 hPa 0,0 mm 2,7 km/h (1 Bft) N-NO 14 ° 0 min 0,000 mm 2,2 UV-I 141 W/m² 13,7 °C 22,1 °C 6,4 km/h (2 Bft)
15.08.2018 16:26 22,1 °C 57 % 1017,4 hPa 0,0 mm 5,3 km/h (1 Bft) N-NW 342 ° 0 min 0,000 mm 2,2 UV-I 142 W/m² 13,2 °C 22,1 °C 6,4 km/h (2 Bft)
15.08.2018 16:27 22,1 °C 58 % 1017,4 hPa 0,0 mm 8,0 km/h (2 Bft) N 11 ° 0 min 0,000 mm 2,2 UV-I 149 W/m² 13,4 °C 22,1 °C 12,9 km/h (3 Bft)
15.08.2018 16:28 22,0 °C 58 % 1017,4 hPa 0,0 mm 7,0 km/h (2 Bft) N-NW 342 ° 0 min 0,000 mm 2,2 UV-I 153 W/m² 13,3 °C 22,0 °C 9,7 km/h (2 Bft)
15.08.2018 16:29 22,0 °C 58 % 1017,4 hPa 0,0 mm 4,1 km/h (1 Bft) NW 321 ° 0 min 0,000 mm 2,2 UV-I 156 W/m² 13,3 °C 22,0 °C 6,4 km/h (2 Bft)
15.08.2018 16:30 21,9 °C 58 % 1017,4 hPa 0,0 mm 4,1 km/h (1 Bft) N-NW 344 ° 0 min 0,000 mm 2,1 UV-I 156 W/m² 13,3 °C 21,9 °C 6,4 km/h (2 Bft)
15.08.2018 16:31 21,8 °C 57 % 1017,4 hPa 0,0 mm 5,1 km/h (1 Bft) N-NW 329 ° 0 min 0,000 mm 2,1 UV-I 156 W/m² 12,9 °C 21,8 °C 6,4 km/h (2 Bft)
15.08.2018 16:32 21,8 °C 59 % 1017,4 hPa 0,0 mm 1,3 km/h (1 Bft) N-NW 336 ° 0 min 0,000 mm 2,1 UV-I 153 W/m² 13,4 °C 21,8 °C 4,8 km/h (1 Bft)
15.08.2018 16:33 21,8 °C 60 % 1017,4 hPa 0,0 mm 2,5 km/h (1 Bft) NW 317 ° 0 min 0,000 mm 2,1 UV-I 155 W/m² 13,7 °C 21,8 °C 4,8 km/h (1 Bft)
15.08.2018 16:34 21,8 °C 60 % 1017,4 hPa 0,0 mm 1,6 km/h (1 Bft) NW 317 ° 0 min 0,000 mm 2,1 UV-I 153 W/m² 13,7 °C 21,8 °C 3,2 km/h (1 Bft)
15.08.2018 16:35 21,7 °C 59 % 1017,4 hPa 0,0 mm 2,6 km/h (1 Bft) N-NO 18 ° 0 min 0,000 mm 2,1 UV-I 151 W/m² 13,3 °C 21,7 °C 4,8 km/h (1 Bft)
15.08.2018 16:36 21,8 °C 58 % 1017,4 hPa 0,0 mm 5,2 km/h (1 Bft) N-NO 19 ° 0 min 0,000 mm 2,1 UV-I 149 W/m² 13,2 °C 21,8 °C 6,4 km/h (2 Bft)
15.08.2018 16:37 21,8 °C 58 % 1017,4 hPa 0,0 mm 3,5 km/h (1 Bft) N-NO 20 ° 0 min 0,000 mm 2,1 UV-I 149 W/m² 13,2 °C 21,8 °C 6,4 km/h (2 Bft)
15.08.2018 16:38 21,9 °C 60 % 1017,5 hPa 0,0 mm 5,9 km/h (2 Bft) N-NO 13 ° 0 min 0,000 mm 2,1 UV-I 151 W/m² 13,8 °C 21,9 °C 11,3 km/h (2 Bft)
15.08.2018 16:39 22,0 °C 57 % 1017,4 hPa 0,0 mm 3,6 km/h (1 Bft) N-NO 33 ° 0 min 0,000 mm 2,1 UV-I 151 W/m² 13,1 °C 22,0 °C 8,0 km/h (2 Bft)
15.08.2018 16:40 21,9 °C 55 % 1017,4 hPa 0,0 mm 1,8 km/h (1 Bft) NO 37 ° 0 min 0,000 mm 2,1 UV-I 151 W/m² 12,4 °C 21,9 °C 4,8 km/h (1 Bft)
15.08.2018 16:41 21,9 °C 56 % 1017,5 hPa 0,0 mm 2,7 km/h (1 Bft) NO 37 ° 0 min 0,000 mm 2,1 UV-I 151 W/m² 12,7 °C 21,9 °C 4,8 km/h (1 Bft)
15.08.2018 16:42 21,8 °C 56 % 1017,4 hPa 0,0 mm 1,1 km/h (1 Bft) NO 37 ° 0 min 0,000 mm 2,1 UV-I 156 W/m² 12,6 °C 21,8 °C 1,6 km/h (1 Bft)
15.08.2018 16:43 21,6 °C 56 % 1017,4 hPa 0,0 mm 0,3 km/h (0 Bft) NO 37 ° 0 min 0,000 mm 2,1 UV-I 151 W/m² 12,4 °C 21,6 °C 1,6 km/h (1 Bft)
15.08.2018 16:44 21,6 °C 58 % 1017,4 hPa 0,0 mm 0,0 km/h (0 Bft) NO 37 ° 0 min 0,000 mm 2,0 UV-I 146 W/m² 13,0 °C 21,6 °C 0,0 km/h (0 Bft)
15.08.2018 16:45 21,4 °C 57 % 1017,4 hPa 0,0 mm 0,0 km/h (0 Bft) NO 37 ° 0 min 0,000 mm 2,0 UV-I 146 W/m² 12,5 °C 21,4 °C 0,0 km/h (0 Bft)
15.08.2018 16:46 21,4 °C 58 % 1017,4 hPa 0,0 mm 5,1 km/h (1 Bft) N 355 ° 0 min 0,000 mm 2,0 UV-I 162 W/m² 12,8 °C 21,4 °C 6,4 km/h (2 Bft)
15.08.2018 16:47 21,6 °C 58 % 1017,4 hPa 0,0 mm 5,4 km/h (1 Bft) N 355 ° 0 min 0,000 mm 2,0 UV-I 262 W/m² 13,0 °C 21,6 °C 8,0 km/h (2 Bft)
15.08.2018 16:48 21,7 °C 59 % 1017,4 hPa 0,0 mm 1,8 km/h (1 Bft) N 355 ° 0 min 0,000 mm 2,1 UV-I 283 W/m² 13,3 °C 21,7 °C 3,2 km/h (1 Bft)
15.08.2018 16:49 21,7 °C 56 % 1017,4 hPa 0,0 mm 0,2 km/h (0 Bft) N 355 ° 0 min 0,000 mm 2,0 UV-I 283 W/m² 12,5 °C 21,7 °C 1,6 km/h (1 Bft)
15.08.2018 16:50 21,6 °C 56 % 1017,4 hPa 0,0 mm 0,0 km/h (0 Bft) N 355 ° 0 min 0,000 mm 2,0 UV-I 127 W/m² 12,4 °C 21,6 °C 0,0 km/h (0 Bft)
15.08.2018 16:51 21,4 °C 58 % 1017,4 hPa 0,0 mm 0,0 km/h (0 Bft) N 355 ° 0 min 0,000 mm 1,9 UV-I 125 W/m² 12,8 °C 21,4 °C 0,0 km/h (0 Bft)
15.08.2018 16:52 21,4 °C 57 % 1017,4 hPa 0,0 mm 0,0 km/h (0 Bft) N 355 ° 0 min 0,000 mm 1,9 UV-I 127 W/m² 12,5 °C 21,4 °C 0,0 km/h (0 Bft)
15.08.2018 16:53 21,3 °C 57 % 1017,3 hPa 0,0 mm 0,0 km/h (0 Bft) N 355 ° 0 min 0,000 mm 1,9 UV-I 127 W/m² 12,4 °C 21,3 °C 0,0 km/h (0 Bft)
15.08.2018 16:54 21,3 °C 60 % 1017,4 hPa 0,0 mm 0,1 km/h (0 Bft) N 355 ° 0 min 0,000 mm 1,9 UV-I 116 W/m² 13,2 °C 21,3 °C 1,6 km/h (1 Bft)
15.08.2018 16:55 21,4 °C 59 % 1017,4 hPa 0,0 mm 0,5 km/h (0 Bft) N 355 ° 0 min 0,000 mm 1,9 UV-I 111 W/m² 13,0 °C 21,4 °C 3,2 km/h (1 Bft)
15.08.2018 16:56 21,6 °C 59 % 1017,4 hPa 0,0 mm 0,7 km/h (0 Bft) N 355 ° 0 min 0,000 mm 1,9 UV-I 111 W/m² 13,2 °C 21,6 °C 3,2 km/h (1 Bft)
15.08.2018 16:57 21,6 °C 58 % 1017,4 hPa 0,0 mm 1,0 km/h (0 Bft) N 355 ° 0 min 0,000 mm 1,8 UV-I 111 W/m² 13,0 °C 21,6 °C 3,2 km/h (1 Bft)
15.08.2018 16:58 21,6 °C 58 % 1017,4 hPa 0,0 mm 1,7 km/h (1 Bft) N 355 ° 0 min 0,000 mm 1,8 UV-I 113 W/m² 13,0 °C 21,6 °C 3,2 km/h (1 Bft)
15.08.2018 16:59 21,7 °C 61 % 1017,3 hPa 0,0 mm 2,2 km/h (1 Bft) N 355 ° 0 min 0,000 mm 1,8 UV-I 114 W/m² 13,8 °C 21,7 °C 3,2 km/h (1 Bft)
15.08.2018 17:00 21,7 °C 58 % 1017,3 hPa 0,0 mm 0,2 km/h (0 Bft) N 355 ° 0 min 0,000 mm 1,8 UV-I 118 W/m² 13,1 °C 21,7 °C 1,6 km/h (1 Bft)
15.08.2018 17:01 21,7 °C 59 % 1017,4 hPa 0,0 mm 3,2 km/h (1 Bft) NW 315 ° 0 min 0,178 mm 1,8 UV-I 118 W/m² 13,3 °C 21,7 °C 4,8 km/h (1 Bft)
15.08.2018 17:02 21,8 °C 60 % 1017,4 hPa 0,0 mm 2,3 km/h (1 Bft) NW 317 ° 0 min 0,000 mm 1,8 UV-I 120 W/m² 13,7 °C 21,8 °C 4,8 km/h (1 Bft)
15.08.2018 17:03 21,8 °C 58 % 1017,3 hPa 0,0 mm 3,1 km/h (1 Bft) NW 311 ° 0 min 0,000 mm 1,8 UV-I 127 W/m² 13,2 °C 21,8 °C 4,8 km/h (1 Bft)
15.08.2018 17:04 21,8 °C 57 % 1017,3 hPa 0,0 mm 3,5 km/h (1 Bft) NW 310 ° 0 min 0,000 mm 1,8 UV-I 130 W/m² 12,9 °C 21,8 °C 4,8 km/h (1 Bft)
15.08.2018 17:05 21,7 °C 58 % 1017,3 hPa 0,0 mm 1,7 km/h (1 Bft) NW 313 ° 0 min 0,000 mm 1,8 UV-I 132 W/m² 13,1 °C 21,7 °C 3,2 km/h (1 Bft)
15.08.2018 17:06 21,8 °C 59 % 1017,4 hPa 0,0 mm 1,7 km/h (1 Bft) NW 315 ° 0 min 0,000 mm 1,8 UV-I 132 W/m² 13,4 °C 21,8 °C 3,2 km/h (1 Bft)
15.08.2018 17:07 21,7 °C 58 % 1017,3 hPa 0,0 mm 0,9 km/h (0 Bft) NW 315 ° 0 min 0,000 mm 1,8 UV-I 132 W/m² 13,1 °C 21,7 °C 1,6 km/h (1 Bft)
15.08.2018 17:08 21,8 °C 57 % 1017,3 hPa 0,0 mm 3,2 km/h (1 Bft) N-NO 19 ° 0 min 0,000 mm 1,8 UV-I 132 W/m² 12,9 °C 21,8 °C 12,9 km/h (3 Bft)
15.08.2018 17:09 21,8 °C 59 % 1017,3 hPa 0,0 mm 7,3 km/h (2 Bft) NO 55 ° 0 min 0,000 mm 1,8 UV-I 132 W/m² 13,4 °C 21,8 °C 14,5 km/h (3 Bft)
15.08.2018 17:10 21,8 °C 58 % 1017,3 hPa 0,0 mm 5,7 km/h (1 Bft) NO 52 ° 0 min 0,000 mm 1,7 UV-I 142 W/m² 13,2 °C 21,8 °C 6,4 km/h (2 Bft)
15.08.2018 17:11 21,8 °C 56 % 1017,3 hPa 0,0 mm 2,0 km/h (1 Bft) NO 52 ° 0 min 0,000 mm 1,7 UV-I 130 W/m² 12,6 °C 21,8 °C 4,8 km/h (1 Bft)
15.08.2018 17:12 21,7 °C 55 % 1017,3 hPa 0,0 mm 2,7 km/h (1 Bft) O-NO 58 ° 0 min 0,000 mm 1,7 UV-I 132 W/m² 12,3 °C 21,7 °C 4,8 km/h (1 Bft)
15.08.2018 17:13 21,7 °C 56 % 1017,3 hPa 0,0 mm 2,9 km/h (1 Bft) O-NO 58 ° 0 min 0,000 mm 1,7 UV-I 128 W/m² 12,5 °C 21,7 °C 4,8 km/h (1 Bft)
15.08.2018 17:14 21,7 °C 57 % 1017,3 hPa 0,0 mm 2,9 km/h (1 Bft) N-NW 329 ° 0 min 0,000 mm 1,7 UV-I 128 W/m² 12,8 °C 21,7 °C 4,8 km/h (1 Bft)
15.08.2018 17:15 21,7 °C 58 % 1017,2 hPa 0,0 mm 3,8 km/h (1 Bft) NW 308 ° 0 min 0,000 mm 1,6 UV-I 120 W/m² 13,1 °C 21,7 °C 4,8 km/h (1 Bft)
15.08.2018 17:16 21,7 °C 57 % 1017,2 hPa 0,0 mm 4,9 km/h (1 Bft) W-SW 254 ° 0 min 0,000 mm 1,6 UV-I 111 W/m² 12,8 °C 21,7 °C 6,4 km/h (2 Bft)
15.08.2018 17:17 21,7 °C 58 % 1017,2 hPa 0,0 mm 2,4 km/h (1 Bft) W-SW 254 ° 0 min 0,000 mm 1,6 UV-I 107 W/m² 13,1 °C 21,7 °C 3,2 km/h (1 Bft)
15.08.2018 17:18 21,6 °C 59 % 1017,2 hPa 0,0 mm 3,2 km/h (1 Bft) W-SW 246 ° 0 min 0,000 mm 1,6 UV-I 109 W/m² 13,2 °C 21,6 °C 4,8 km/h (1 Bft)
15.08.2018 17:19 21,7 °C 58 % 1017,2 hPa 0,0 mm 0,9 km/h (0 Bft) W-SW 246 ° 0 min 0,000 mm 1,6 UV-I 105 W/m² 13,1 °C 21,7 °C 3,2 km/h (1 Bft)
15.08.2018 17:20 21,6 °C 59 % 1017,2 hPa 0,0 mm 4,9 km/h (1 Bft) NW 316 ° 0 min 0,000 mm 1,6 UV-I 109 W/m² 13,2 °C 21,6 °C 8,0 km/h (2 Bft)
15.08.2018 17:21 21,7 °C 59 % 1017,2 hPa 0,0 mm 4,2 km/h (1 Bft) W-NW 287 ° 0 min 0,000 mm 1,6 UV-I 109 W/m² 13,3 °C 21,7 °C 6,4 km/h (2 Bft)
15.08.2018 17:22 21,6 °C 57 % 1017,2 hPa 0,0 mm 1,2 km/h (1 Bft) W-NW 298 ° 0 min 0,000 mm 1,6 UV-I 107 W/m² 12,7 °C 21,6 °C 3,2 km/h (1 Bft)
15.08.2018 17:23 21,7 °C 59 % 1017,2 hPa 0,0 mm 1,4 km/h (1 Bft) W-NW 298 ° 0 min 0,000 mm 1,6 UV-I 107 W/m² 13,3 °C 21,7 °C 4,8 km/h (1 Bft)
15.08.2018 17:24 21,6 °C 59 % 1017,2 hPa 0,0 mm 3,2 km/h (1 Bft) N 355 ° 0 min 0,000 mm 1,6 UV-I 107 W/m² 13,2 °C 21,6 °C 4,8 km/h (1 Bft)
15.08.2018 17:25 21,6 °C 57 % 1017,2 hPa 0,0 mm 2,9 km/h (1 Bft) N-NO 26 ° 0 min 0,000 mm 1,5 UV-I 105 W/m² 12,7 °C 21,6 °C 4,8 km/h (1 Bft)
15.08.2018 17:26 21,6 °C 57 % 1017,2 hPa 0,0 mm 0,8 km/h (0 Bft) N-NO 26 ° 0 min 0,000 mm 1,5 UV-I 105 W/m² 12,7 °C 21,6 °C 3,2 km/h (1 Bft)
15.08.2018 17:27 21,6 °C 57 % 1017,2 hPa 0,0 mm 0,0 km/h (0 Bft) N-NO 28 ° 0 min 0,000 mm 1,5 UV-I 104 W/m² 12,7 °C 21,6 °C 0,0 km/h (0 Bft)
15.08.2018 17:28 21,6 °C 57 % 1017,2 hPa 0,0 mm 0,2 km/h (0 Bft) N-NO 28 ° 0 min 0,000 mm 1,5 UV-I 100 W/m² 12,7 °C 21,6 °C 1,6 km/h (1 Bft)
15.08.2018 17:29 21,6 °C 57 % 1017,2 hPa 0,0 mm 0,7 km/h (0 Bft) N-NO 28 ° 0 min 0,000 mm 1,5 UV-I 98 W/m² 12,7 °C 21,6 °C 1,6 km/h (1 Bft)
15.08.2018 17:30 21,6 °C 58 % 1017,1 hPa 0,0 mm 1,1 km/h (1 Bft) N-NO 28 ° 0 min 0,000 mm 1,5 UV-I 100 W/m² 13,0 °C 21,6 °C 3,2 km/h (1 Bft)
15.08.2018 17:31 21,6 °C 59 % 1017,1 hPa 0,0 mm 0,0 km/h (0 Bft) N-NO 28 ° 0 min 0,000 mm 1,5 UV-I 100 W/m² 13,2 °C 21,6 °C 0,0 km/h (0 Bft)
15.08.2018 17:32 21,6 °C 59 % 1017,1 hPa 0,0 mm 0,0 km/h (0 Bft) N-NO 28 ° 0 min 0,000 mm 1,5 UV-I 100 W/m² 13,2 °C 21,6 °C 0,0 km/h (0 Bft)
15.08.2018 17:33 21,6 °C 61 % 1017,1 hPa 0,0 mm 2,0 km/h (1 Bft) N-NO 25 ° 0 min 0,000 mm 1,4 UV-I 98 W/m² 13,7 °C 21,6 °C 4,8 km/h (1 Bft)
15.08.2018 17:34 21,7 °C 57 % 1017,1 hPa 0,0 mm 1,9 km/h (1 Bft) N-NO 25 ° 0 min 0,000 mm 1,4 UV-I 98 W/m² 12,8 °C 21,7 °C 4,8 km/h (1 Bft)
15.08.2018 17:35 21,8 °C 57 % 1017,1 hPa 0,0 mm 6,8 km/h (2 Bft) N-NO 20 ° 0 min 0,000 mm 1,4 UV-I 98 W/m² 12,9 °C 21,8 °C 9,7 km/h (2 Bft)
15.08.2018 17:36 21,8 °C 58 % 1017,1 hPa 0,0 mm 4,6 km/h (1 Bft) N-NW 341 ° 0 min 0,000 mm 1,4 UV-I 98 W/m² 13,2 °C 21,8 °C 6,4 km/h (2 Bft)
15.08.2018 17:37 21,8 °C 58 % 1017,1 hPa 0,0 mm 2,7 km/h (1 Bft) N 355 ° 0 min 0,000 mm 1,4 UV-I 98 W/m² 13,2 °C 21,8 °C 3,2 km/h (1 Bft)
15.08.2018 17:38 21,9 °C 57 % 1017,1 hPa 0,0 mm 7,1 km/h (2 Bft) N-NW 346 ° 0 min 0,000 mm 1,4 UV-I 100 W/m² 13,0 °C 21,9 °C 12,9 km/h (3 Bft)
15.08.2018 17:39 21,9 °C 58 % 1017,1 hPa 0,0 mm 1,6 km/h (1 Bft) N-NW 347 ° 0 min 0,000 mm 1,4 UV-I 100 W/m² 13,3 °C 21,9 °C 4,8 km/h (1 Bft)
15.08.2018 17:40 21,9 °C 59 % 1017,1 hPa 0,0 mm 4,6 km/h (1 Bft) NW 320 ° 0 min 0,000 mm 1,4 UV-I 102 W/m² 13,5 °C 21,9 °C 6,4 km/h (2 Bft)
15.08.2018 17:41 21,9 °C 58 % 1017,1 hPa 0,0 mm 2,5 km/h (1 Bft) NW 321 ° 0 min 0,000 mm 1,4 UV-I 104 W/m² 13,3 °C 21,9 °C 3,2 km/h (1 Bft)
15.08.2018 17:42 21,9 °C 59 % 1017,1 hPa 0,0 mm 2,0 km/h (1 Bft) NW 319 ° 0 min 0,000 mm 1,3 UV-I 104 W/m² 13,5 °C 21,9 °C 4,8 km/h (1 Bft)
15.08.2018 17:43 21,9 °C 60 % 1017,1 hPa 0,0 mm 6,4 km/h (2 Bft) N-NW 348 ° 0 min 0,000 mm 1,3 UV-I 104 W/m² 13,8 °C 21,9 °C 9,7 km/h (2 Bft)
15.08.2018 17:44 21,9 °C 59 % 1017,1 hPa 0,0 mm 1,8 km/h (1 Bft) N-NW 344 ° 0 min 0,000 mm 1,3 UV-I 102 W/m² 13,5 °C 21,9 °C 3,2 km/h (1 Bft)
15.08.2018 17:45 21,9 °C 59 % 1017,1 hPa 0,0 mm 6,2 km/h (2 Bft) N-NW 327 ° 0 min 0,000 mm 1,3 UV-I 102 W/m² 13,5 °C 21,9 °C 11,3 km/h (2 Bft)
15.08.2018 17:46 21,9 °C 60 % 1017,1 hPa 0,0 mm 6,8 km/h (2 Bft) NW 320 ° 0 min 0,000 mm 1,3 UV-I 104 W/m² 13,8 °C 21,9 °C 9,7 km/h (2 Bft)
15.08.2018 17:47 21,8 °C 59 % 1017,1 hPa 0,0 mm 3,2 km/h (1 Bft) N-NW 346 ° 0 min 0,000 mm 1,3 UV-I 100 W/m² 13,4 °C 21,8 °C 6,4 km/h (2 Bft)
15.08.2018 17:48 21,8 °C 58 % 1017,1 hPa 0,0 mm 4,8 km/h (1 Bft) N-NW 333 ° 0 min 0,000 mm 1,3 UV-I 93 W/m² 13,2 °C 21,8 °C 6,4 km/h (2 Bft)
15.08.2018 17:49 21,8 °C 59 % 1017,1 hPa 0,0 mm 3,4 km/h (1 Bft) N-NW 329 ° 0 min 0,000 mm 1,3 UV-I 90 W/m² 13,4 °C 21,8 °C 4,8 km/h (1 Bft)
15.08.2018 17:50 21,8 °C 59 % 1017,0 hPa 0,0 mm 5,5 km/h (1 Bft) NW 319 ° 0 min 0,000 mm 1,3 UV-I 90 W/m² 13,4 °C 21,8 °C 8,0 km/h (2 Bft)
15.08.2018 17:51 21,8 °C 61 % 1017,1 hPa 0,0 mm 1,4 km/h (1 Bft) N-NW 333 ° 0 min 0,000 mm 1,2 UV-I 81 W/m² 13,9 °C 21,8 °C 4,8 km/h (1 Bft)
15.08.2018 17:52 21,8 °C 59 % 1017,1 hPa 0,0 mm 4,0 km/h (1 Bft) NW 311 ° 0 min 0,000 mm 1,2 UV-I 79 W/m² 13,4 °C 21,8 °C 6,4 km/h (2 Bft)
15.08.2018 17:53 21,7 °C 58 % 1017,0 hPa 0,0 mm 3,3 km/h (1 Bft) NW 311 ° 0 min 0,000 mm 1,2 UV-I 77 W/m² 13,1 °C 21,7 °C 4,8 km/h (1 Bft)
15.08.2018 17:54 21,7 °C 58 % 1017,0 hPa 0,0 mm 3,1 km/h (1 Bft) NW 323 ° 0 min 0,000 mm 1,2 UV-I 74 W/m² 13,1 °C 21,7 °C 6,4 km/h (2 Bft)
15.08.2018 17:55 21,6 °C 57 % 1017,0 hPa 0,0 mm 1,9 km/h (1 Bft) N-NW 333 ° 0 min 0,000 mm 1,2 UV-I 72 W/m² 12,7 °C 21,6 °C 4,8 km/h (1 Bft)
15.08.2018 17:56 21,4 °C 58 % 1017,0 hPa 0,0 mm 2,0 km/h (1 Bft) NW 306 ° 0 min 0,000 mm 1,2 UV-I 70 W/m² 12,8 °C 21,4 °C 3,2 km/h (1 Bft)
15.08.2018 17:57 21,4 °C 58 % 1017,0 hPa 0,0 mm 1,2 km/h (1 Bft) NW 306 ° 0 min 0,000 mm 1,2 UV-I 70 W/m² 12,8 °C 21,4 °C 3,2 km/h (1 Bft)
15.08.2018 17:58 21,3 °C 59 % 1017,0 hPa 0,0 mm 1,2 km/h (1 Bft) NW 306 ° 0 min 0,000 mm 1,2 UV-I 67 W/m² 13,0 °C 21,3 °C 3,2 km/h (1 Bft)
15.08.2018 17:59 21,2 °C 60 % 1017,0 hPa 0,0 mm 0,0 km/h (0 Bft) NW 306 ° 0 min 0,000 mm 1,1 UV-I 65 W/m² 13,1 °C 21,2 °C 0,0 km/h (0 Bft)
15.08.2018 18:00 21,1 °C 61 % 1016,9 hPa 0,0 mm 0,5 km/h (0 Bft) NW 306 ° 0 min 0,076 mm 1,1 UV-I 63 W/m² 13,3 °C 21,1 °C 3,2 km/h (1 Bft)
15.08.2018 18:01 21,1 °C 60 % 1017,0 hPa 0,0 mm 0,0 km/h (0 Bft) NW 306 ° 0 min 0,000 mm 1,1 UV-I 63 W/m² 13,0 °C 21,1 °C 0,0 km/h (0 Bft)
15.08.2018 18:02 20,9 °C 61 % 1017,0 hPa 0,0 mm 0,0 km/h (0 Bft) NW 306 ° 0 min 0,000 mm 1,1 UV-I 65 W/m² 13,1 °C 20,9 °C 0,0 km/h (0 Bft)
15.08.2018 18:03 20,8 °C 63 % 1017,0 hPa 0,0 mm 0,0 km/h (0 Bft) NW 306 ° 0 min 0,000 mm 1,1 UV-I 65 W/m² 13,5 °C 20,8 °C 0,0 km/h (0 Bft)
15.08.2018 18:04 20,7 °C 63 % 1017,0 hPa 0,0 mm 0,0 km/h (0 Bft) NW 306 ° 0 min 0,000 mm 1,1 UV-I 67 W/m² 13,4 °C 20,7 °C 0,0 km/h (0 Bft)
15.08.2018 18:05 20,6 °C 64 % 1017,0 hPa 0,0 mm 0,1 km/h (0 Bft) NW 306 ° 0 min 0,000 mm 1,1 UV-I 67 W/m² 13,5 °C 20,6 °C 1,6 km/h (1 Bft)
15.08.2018 18:06 20,6 °C 64 % 1017,0 hPa 0,0 mm 0,0 km/h (0 Bft) NW 306 ° 0 min 0,000 mm 1,1 UV-I 67 W/m² 13,5 °C 20,6 °C 0,0 km/h (0 Bft)
15.08.2018 18:07 20,4 °C 64 % 1016,9 hPa 0,0 mm 0,0 km/h (0 Bft) NW 306 ° 0 min 0,000 mm 1,0 UV-I 67 W/m² 13,4 °C 20,4 °C 0,0 km/h (0 Bft)
15.08.2018 18:08 20,4 °C 64 % 1017,0 hPa 0,0 mm 0,0 km/h (0 Bft) NW 306 ° 0 min 0,000 mm 1,0 UV-I 67 W/m² 13,4 °C 20,4 °C 0,0 km/h (0 Bft)
15.08.2018 18:09 20,4 °C 64 % 1017,0 hPa 0,0 mm 0,0 km/h (0 Bft) NW 306 ° 0 min 0,000 mm 1,0 UV-I 67 W/m² 13,4 °C 20,4 °C 0,0 km/h (0 Bft)
15.08.2018 18:10 20,4 °C 64 % 1017,0 hPa 0,0 mm 0,0 km/h (0 Bft) NW 306 ° 0 min 0,000 mm 1,0 UV-I 67 W/m² 13,4 °C 20,4 °C 0,0 km/h (0 Bft)
15.08.2018 18:11 20,3 °C 64 % 1017,0 hPa 0,0 mm 0,0 km/h (0 Bft) NW 306 ° 0 min 0,000 mm 1,0 UV-I 67 W/m² 13,3 °C 20,3 °C 0,0 km/h (0 Bft)
15.08.2018 18:12 20,4 °C 64 % 1016,9 hPa 0,0 mm 0,0 km/h (0 Bft) NW 306 ° 0 min 0,000 mm 1,0 UV-I 69 W/m² 13,4 °C 20,4 °C 0,0 km/h (0 Bft)
15.08.2018 18:13 20,3 °C 64 % 1017,0 hPa 0,0 mm 0,0 km/h (0 Bft) NW 306 ° 0 min 0,000 mm 1,0 UV-I 76 W/m² 13,3 °C 20,3 °C 0,0 km/h (0 Bft)
15.08.2018 18:14 20,3 °C 64 % 1017,0 hPa 0,0 mm 0,0 km/h (0 Bft) NW 306 ° 0 min 0,000 mm 1,0 UV-I 77 W/m² 13,3 °C 20,3 °C 0,0 km/h (0 Bft)
15.08.2018 18:15 20,3 °C 66 % 1017,0 hPa 0,0 mm 0,0 km/h (0 Bft) NW 306 ° 0 min 0,000 mm 1,0 UV-I 74 W/m² 13,7 °C 20,3 °C 0,0 km/h (0 Bft)
15.08.2018 18:16 20,3 °C 66 % 1016,9 hPa 0,0 mm 0,0 km/h (0 Bft) NW 306 ° 0 min 0,000 mm 0,9 UV-I 72 W/m² 13,7 °C 20,3 °C 0,0 km/h (0 Bft)
15.08.2018 18:17 20,3 °C 65 % 1016,9 hPa 0,0 mm 0,0 km/h (0 Bft) NW 306 ° 0 min 0,000 mm 0,9 UV-I 67 W/m² 13,5 °C 20,3 °C 0,0 km/h (0 Bft)
15.08.2018 18:18 20,4 °C 64 % 1016,9 hPa 0,0 mm 0,0 km/h (0 Bft) NW 306 ° 0 min 0,000 mm 0,9 UV-I 63 W/m² 13,4 °C 20,4 °C 0,0 km/h (0 Bft)
15.08.2018 18:19 20,4 °C 64 % 1016,9 hPa 0,0 mm 0,0 km/h (0 Bft) NW 306 ° 0 min 0,000 mm 0,9 UV-I 63 W/m² 13,4 °C 20,4 °C 0,0 km/h (0 Bft)
15.08.2018 18:20 20,5 °C 63 % 1016,9 hPa 0,0 mm 0,0 km/h (0 Bft) NW 306 ° 0 min 0,000 mm 0,9 UV-I 62 W/m² 13,2 °C 20,5 °C 0,0 km/h (0 Bft)
15.08.2018 18:21 20,5 °C 65 % 1016,9 hPa 0,0 mm 0,0 km/h (0 Bft) NW 306 ° 0 min 0,000 mm 0,9 UV-I 60 W/m² 13,7 °C 20,5 °C 0,0 km/h (0 Bft)
15.08.2018 18:22 20,5 °C 64 % 1016,9 hPa 0,0 mm 0,0 km/h (0 Bft) NW 306 ° 0 min 0,000 mm 0,9 UV-I 60 W/m² 13,5 °C 20,5 °C 0,0 km/h (0 Bft)
15.08.2018 18:23 20,4 °C 64 % 1016,9 hPa 0,0 mm 0,0 km/h (0 Bft) NW 305 ° 0 min 0,000 mm 0,9 UV-I 58 W/m² 13,4 °C 20,4 °C 0,0 km/h (0 Bft)
15.08.2018 18:24 20,4 °C 63 % 1016,9 hPa 0,0 mm 0,0 km/h (0 Bft) NW 306 ° 0 min 0,000 mm 0,8 UV-I 54 W/m² 13,1 °C 20,4 °C 0,0 km/h (0 Bft)
15.08.2018 18:25 20,4 °C 63 % 1016,9 hPa 0,0 mm 0,0 km/h (0 Bft) NW 306 ° 0 min 0,000 mm 0,0 UV-I 54 W/m² 13,1 °C 20,4 °C 0,0 km/h (0 Bft)
15.08.2018 18:26 20,3 °C 63 % 1016,9 hPa 0,0 mm 0,0 km/h (0 Bft) NW 306 ° 0 min 0,000 mm 0,8 UV-I 56 W/m² 13,0 °C 20,3 °C 0,0 km/h (0 Bft)
15.08.2018 18:27 20,3 °C 62 % 1016,8 hPa 0,0 mm 0,0 km/h (0 Bft) NW 306 ° 0 min 0,000 mm 0,8 UV-I 56 W/m² 12,8 °C 20,3 °C 0,0 km/h (0 Bft)
15.08.2018 18:28 20,3 °C 62 % 1016,8 hPa 0,0 mm 0,0 km/h (0 Bft) NW 306 ° 0 min 0,000 mm 0,8 UV-I 58 W/m² 12,8 °C 20,3 °C 0,0 km/h (0 Bft)
15.08.2018 18:29 20,3 °C 65 % 1016,8 hPa 0,0 mm 0,0 km/h (0 Bft) NW 306 ° 0 min 0,000 mm 0,8 UV-I 63 W/m² 13,5 °C 20,3 °C 0,0 km/h (0 Bft)
15.08.2018 18:30 20,2 °C 65 % 1016,9 hPa 0,0 mm 0,0 km/h (0 Bft) NW 306 ° 0 min 0,000 mm 0,8 UV-I 65 W/m² 13,4 °C 20,2 °C 0,0 km/h (0 Bft)
15.08.2018 18:31 20,2 °C 66 % 1016,8 hPa 0,0 mm 0,0 km/h (0 Bft) NW 306 ° 0 min 0,000 mm 0,8 UV-I 65 W/m² 13,6 °C 20,2 °C 0,0 km/h (0 Bft)
15.08.2018 18:32 20,2 °C 69 % 1016,9 hPa 0,0 mm 0,1 km/h (0 Bft) NW 306 ° 0 min 0,000 mm 0,8 UV-I 65 W/m² 14,3 °C 20,2 °C 1,6 km/h (1 Bft)
15.08.2018 18:33 20,2 °C 68 % 1016,9 hPa 0,0 mm 2,2 km/h (1 Bft) NO 51 ° 0 min 0,000 mm 0,8 UV-I 63 W/m² 14,1 °C 20,2 °C 4,8 km/h (1 Bft)
15.08.2018 18:34 20,1 °C 68 % 1016,9 hPa 0,0 mm 0,5 km/h (0 Bft) NO 51 ° 0 min 0,000 mm 0,8 UV-I 63 W/m² 14,0 °C 20,1 °C 1,6 km/h (1 Bft)
15.08.2018 18:35 20,1 °C 65 % 1016,8 hPa 0,0 mm 0,0 km/h (0 Bft) NO 51 ° 0 min 0,000 mm 0,8 UV-I 63 W/m² 13,3 °C 20,1 °C 0,0 km/h (0 Bft)
15.08.2018 18:36 20,2 °C 66 % 1016,8 hPa 0,0 mm 0,0 km/h (0 Bft) NO 51 ° 0 min 0,000 mm 0,8 UV-I 62 W/m² 13,6 °C 20,2 °C 0,0 km/h (0 Bft)
15.08.2018 18:37 20,2 °C 68 % 1016,8 hPa 0,0 mm 0,1 km/h (0 Bft) NO 51 ° 0 min 0,000 mm 0,8 UV-I 62 W/m² 14,1 °C 20,2 °C 1,6 km/h (1 Bft)
15.08.2018 18:38 20,3 °C 67 % 1016,8 hPa 0,0 mm 0,4 km/h (0 Bft) NO 51 ° 0 min 0,000 mm 0,8 UV-I 62 W/m² 14,0 °C 20,3 °C 1,6 km/h (1 Bft)
15.08.2018 18:39 20,3 °C 67 % 1016,8 hPa 0,0 mm 0,4 km/h (0 Bft) NO 51 ° 0 min 0,000 mm 0,8 UV-I 62 W/m² 14,0 °C 20,3 °C 1,6 km/h (1 Bft)
15.08.2018 18:40 20,4 °C 68 % 1016,8 hPa 0,0 mm 0,3 km/h (0 Bft) NO 51 ° 0 min 0,000 mm 0,8 UV-I 58 W/m² 14,3 °C 20,4 °C 1,6 km/h (1 Bft)
15.08.2018 18:41 20,4 °C 67 % 1016,7 hPa 0,0 mm 0,0 km/h (0 Bft) NO 51 ° 0 min 0,000 mm 0,8 UV-I 62 W/m² 14,1 °C 20,4 °C 0,0 km/h (0 Bft)
15.08.2018 18:42 20,4 °C 66 % 1016,7 hPa 0,0 mm 0,5 km/h (0 Bft) NO 51 ° 0 min 0,000 mm 0,7 UV-I 63 W/m² 13,8 °C 20,4 °C 3,2 km/h (1 Bft)
15.08.2018 18:43 20,5 °C 66 % 1016,7 hPa 0,0 mm 0,0 km/h (0 Bft) NO 51 ° 0 min 0,000 mm 0,7 UV-I 65 W/m² 13,9 °C 20,5 °C 0,0 km/h (0 Bft)
15.08.2018 18:44 20,6 °C 65 % 1016,8 hPa 0,0 mm 0,0 km/h (0 Bft) NO 51 ° 0 min 0,000 mm 0,7 UV-I 65 W/m² 13,8 °C 20,6 °C 0,0 km/h (0 Bft)
15.08.2018 18:45 20,6 °C 68 % 1016,7 hPa 0,0 mm 0,5 km/h (0 Bft) NO 51 ° 0 min 0,000 mm 0,7 UV-I 63 W/m² 14,5 °C 20,6 °C 1,6 km/h (1 Bft)
15.08.2018 18:46 20,6 °C 64 % 1016,7 hPa 0,0 mm 0,4 km/h (0 Bft) NO 51 ° 0 min 0,000 mm 0,7 UV-I 63 W/m² 13,5 °C 20,6 °C 1,6 km/h (1 Bft)
15.08.2018 18:47 20,7 °C 64 % 1016,8 hPa 0,0 mm 0,0 km/h (0 Bft) NO 51 ° 0 min 0,000 mm 0,7 UV-I 62 W/m² 13,6 °C 20,7 °C 0,0 km/h (0 Bft)
15.08.2018 18:48 20,8 °C 65 % 1016,8 hPa 0,0 mm 0,0 km/h (0 Bft) NO 51 ° 0 min 0,000 mm 0,7 UV-I 60 W/m² 14,0 °C 20,8 °C 0,0 km/h (0 Bft)
15.08.2018 18:49 20,8 °C 65 % 1016,8 hPa 0,0 mm 0,0 km/h (0 Bft) NO 51 ° 0 min 0,000 mm 0,7 UV-I 60 W/m² 14,0 °C 20,8 °C 0,0 km/h (0 Bft)
15.08.2018 18:50 20,7 °C 67 % 1016,7 hPa 0,0 mm 3,0 km/h (1 Bft) O 85 ° 0 min 0,000 mm 0,7 UV-I 60 W/m² 14,3 °C 20,7 °C 4,8 km/h (1 Bft)
15.08.2018 18:51 20,7 °C 69 % 1016,8 hPa 0,0 mm 2,6 km/h (1 Bft) O 85 ° 0 min 0,000 mm 0,7 UV-I 58 W/m² 14,8 °C 20,7 °C 4,8 km/h (1 Bft)
15.08.2018 18:52 20,7 °C 66 % 1016,8 hPa 0,0 mm 0,1 km/h (0 Bft) O 85 ° 0 min 0,000 mm 0,6 UV-I 63 W/m² 14,1 °C 20,7 °C 1,6 km/h (1 Bft)
15.08.2018 18:53 20,7 °C 64 % 1016,7 hPa 0,0 mm 0,1 km/h (0 Bft) O 85 ° 0 min 0,000 mm 0,6 UV-I 67 W/m² 13,6 °C 20,7 °C 1,6 km/h (1 Bft)
15.08.2018 18:54 20,7 °C 64 % 1016,7 hPa 0,0 mm 0,2 km/h (0 Bft) O 85 ° 0 min 0,000 mm 0,6 UV-I 83 W/m² 13,6 °C 20,7 °C 1,6 km/h (1 Bft)
15.08.2018 18:55 20,8 °C 64 % 1016,8 hPa 0,0 mm 0,1 km/h (0 Bft) O 85 ° 0 min 0,000 mm 0,6 UV-I 83 W/m² 13,7 °C 20,8 °C 1,6 km/h (1 Bft)
15.08.2018 18:56 20,8 °C 68 % 1016,7 hPa 0,0 mm 1,2 km/h (1 Bft) O 84 ° 0 min 0,000 mm 0,6 UV-I 109 W/m² 14,7 °C 20,8 °C 3,2 km/h (1 Bft)
15.08.2018 18:57 20,7 °C 67 % 1016,8 hPa 0,0 mm 0,7 km/h (0 Bft) O 84 ° 0 min 0,000 mm 0,6 UV-I 91 W/m² 14,3 °C 20,7 °C 3,2 km/h (1 Bft)
15.08.2018 18:58 20,7 °C 67 % 1016,7 hPa 0,0 mm 0,3 km/h (0 Bft) O 84 ° 0 min 0,000 mm 0,6 UV-I 81 W/m² 14,3 °C 20,7 °C 1,6 km/h (1 Bft)
15.08.2018 18:59 20,6 °C 66 % 1016,8 hPa 0,0 mm 0,0 km/h (0 Bft) O 84 ° 0 min 0,000 mm 0,6 UV-I 67 W/m² 14,0 °C 20,6 °C 0,0 km/h (0 Bft)
15.08.2018 19:00 20,6 °C 67 % 1016,8 hPa 0,0 mm 0,0 km/h (0 Bft) O 84 ° 0 min 0,000 mm 0,6 UV-I 58 W/m² 14,3 °C 20,6 °C 0,0 km/h (0 Bft)
15.08.2018 19:01 20,5 °C 66 % 1016,7 hPa 0,0 mm 0,0 km/h (0 Bft) O 84 ° 0 min 0,051 mm 0,6 UV-I 51 W/m² 13,9 °C 20,5 °C 0,0 km/h (0 Bft)
15.08.2018 19:02 20,5 °C 65 % 1016,7 hPa 0,0 mm 0,6 km/h (0 Bft) O 85 ° 0 min 0,000 mm 0,0 UV-I 53 W/m² 13,7 °C 20,5 °C 1,6 km/h (1 Bft)
15.08.2018 19:03 20,5 °C 67 % 1016,8 hPa 0,0 mm 1,6 km/h (1 Bft) O 84 ° 0 min 0,000 mm 0,0 UV-I 49 W/m² 14,2 °C 20,5 °C 3,2 km/h (1 Bft)
15.08.2018 19:04 20,5 °C 65 % 1016,7 hPa 0,0 mm 0,0 km/h (0 Bft) O 84 ° 0 min 0,000 mm 0,0 UV-I 47 W/m² 13,7 °C 20,5 °C 0,0 km/h (0 Bft)
15.08.2018 19:05 20,5 °C 67 % 1016,8 hPa 0,0 mm 0,8 km/h (0 Bft) O 84 ° 0 min 0,000 mm 0,0 UV-I 53 W/m² 14,2 °C 20,5 °C 1,6 km/h (1 Bft)
15.08.2018 19:06 20,4 °C 67 % 1016,8 hPa 0,0 mm 0,0 km/h (0 Bft) O 85 ° 0 min 0,000 mm 0,0 UV-I 54 W/m² 14,1 °C 20,4 °C 0,0 km/h (0 Bft)
15.08.2018 19:07 20,3 °C 67 % 1016,7 hPa 0,0 mm 0,0 km/h (0 Bft) O 84 ° 0 min 0,000 mm 0,0 UV-I 49 W/m² 14,0 °C 20,3 °C 0,0 km/h (0 Bft)
15.08.2018 19:08 20,3 °C 67 % 1016,7 hPa 0,0 mm 0,0 km/h (0 Bft) O 84 ° 0 min 0,000 mm 0,0 UV-I 44 W/m² 14,0 °C 20,3 °C 0,0 km/h (0 Bft)
15.08.2018 19:09 20,3 °C 67 % 1016,7 hPa 0,0 mm 0,0 km/h (0 Bft) O 84 ° 0 min 0,000 mm 0,0 UV-I 44 W/m² 14,0 °C 20,3 °C 0,0 km/h (0 Bft)
15.08.2018 19:10 20,2 °C 69 % 1016,7 hPa 0,0 mm 0,0 km/h (0 Bft) O 84 ° 0 min 0,000 mm 0,0 UV-I 46 W/m² 14,3 °C 20,2 °C 0,0 km/h (0 Bft)
15.08.2018 19:11 20,2 °C 68 % 1016,8 hPa 0,0 mm 0,0 km/h (0 Bft) O 84 ° 0 min 0,000 mm 0,0 UV-I 46 W/m² 14,1 °C 20,2 °C 0,0 km/h (0 Bft)
15.08.2018 19:12 20,2 °C 66 % 1016,8 hPa 0,0 mm 0,0 km/h (0 Bft) O 84 ° 0 min 0,000 mm 0,0 UV-I 47 W/m² 13,6 °C 20,2 °C 0,0 km/h (0 Bft)
15.08.2018 19:13 20,2 °C 67 % 1016,8 hPa 0,0 mm 0,0 km/h (0 Bft) O 84 ° 0 min 0,000 mm 0,0 UV-I 47 W/m² 13,9 °C 20,2 °C 0,0 km/h (0 Bft)
15.08.2018 19:14 20,1 °C 66 % 1016,8 hPa 0,0 mm 0,0 km/h (0 Bft) O 84 ° 0 min 0,000 mm 0,0 UV-I 46 W/m² 13,5 °C 20,1 °C 0,0 km/h (0 Bft)
15.08.2018 19:15 20,1 °C 66 % 1016,8 hPa 0,0 mm 1,1 km/h (1 Bft) O 84 ° 0 min 0,000 mm 0,0 UV-I 42 W/m² 13,5 °C 20,1 °C 3,2 km/h (1 Bft)
15.08.2018 19:16 20,1 °C 70 % 1016,7 hPa 0,0 mm 0,5 km/h (0 Bft) O 85 ° 0 min 0,000 mm 0,0 UV-I 40 W/m² 14,5 °C 20,1 °C 1,6 km/h (1 Bft)
15.08.2018 19:17 19,9 °C 68 % 1016,8 hPa 0,0 mm 0,6 km/h (0 Bft) O 85 ° 0 min 0,000 mm 0,0 UV-I 39 W/m² 13,8 °C 19,9 °C 1,6 km/h (1 Bft)
15.08.2018 19:18 19,9 °C 66 % 1016,8 hPa 0,0 mm 0,0 km/h (0 Bft) O 84 ° 0 min 0,000 mm 0,0 UV-I 37 W/m² 13,4 °C 19,9 °C 0,0 km/h (0 Bft)
15.08.2018 19:19 19,9 °C 67 % 1016,7 hPa 0,0 mm 0,0 km/h (0 Bft) O 85 ° 0 min 0,000 mm 0,0 UV-I 37 W/m² 13,6 °C 19,9 °C 0,0 km/h (0 Bft)
15.08.2018 19:20 19,9 °C 68 % 1016,8 hPa 0,0 mm 0,0 km/h (0 Bft) O 84 ° 0 min 0,000 mm 0,0 UV-I 35 W/m² 13,8 °C 19,9 °C 0,0 km/h (0 Bft)
15.08.2018 19:21 19,8 °C 68 % 1016,7 hPa 0,0 mm 0,0 km/h (0 Bft) O 84 ° 0 min 0,000 mm 0,0 UV-I 35 W/m² 13,7 °C 19,8 °C 0,0 km/h (0 Bft)
15.08.2018 19:22 19,8 °C 69 % 1016,7 hPa 0,0 mm 0,9 km/h (0 Bft) O 85 ° 0 min 0,000 mm 0,0 UV-I 35 W/m² 13,9 °C 19,8 °C 1,6 km/h (1 Bft)
15.08.2018 19:23 19,8 °C 69 % 1016,7 hPa 0,0 mm 0,3 km/h (0 Bft) O 85 ° 0 min 0,000 mm 0,0 UV-I 37 W/m² 13,9 °C 19,8 °C 1,6 km/h (1 Bft)
15.08.2018 19:24 19,7 °C 69 % 1016,8 hPa 0,0 mm 1,5 km/h (1 Bft) O 85 ° 0 min 0,000 mm 0,0 UV-I 49 W/m² 13,8 °C 19,7 °C 1,6 km/h (1 Bft)
15.08.2018 19:25 19,7 °C 70 % 1016,8 hPa 0,0 mm 1,0 km/h (0 Bft) O 85 ° 0 min 0,000 mm 0,0 UV-I 58 W/m² 14,1 °C 19,7 °C 3,2 km/h (1 Bft)
15.08.2018 19:26 19,6 °C 70 % 1016,8 hPa 0,0 mm 1,1 km/h (1 Bft) O 85 ° 0 min 0,000 mm 0,0 UV-I 47 W/m² 14,0 °C 19,6 °C 3,2 km/h (1 Bft)
15.08.2018 19:27 19,6 °C 71 % 1016,8 hPa 0,0 mm 0,5 km/h (0 Bft) O 85 ° 0 min 0,000 mm 0,0 UV-I 33 W/m² 14,2 °C 19,6 °C 1,6 km/h (1 Bft)
15.08.2018 19:28 19,5 °C 71 % 1016,8 hPa 0,0 mm 0,1 km/h (0 Bft) O 85 ° 0 min 0,000 mm 0,0 UV-I 32 W/m² 14,1 °C 19,5 °C 1,6 km/h (1 Bft)
15.08.2018 19:29 19,4 °C 70 % 1016,8 hPa 0,0 mm 0,0 km/h (0 Bft) O 85 ° 0 min 0,000 mm 0,0 UV-I 32 W/m² 13,8 °C 19,4 °C 0,0 km/h (0 Bft)
15.08.2018 19:30 19,4 °C 71 % 1016,8 hPa 0,0 mm 0,0 km/h (0 Bft) O 85 ° 0 min 0,000 mm 0,0 UV-I 32 W/m² 14,0 °C 19,4 °C 0,0 km/h (0 Bft)
15.08.2018 19:31 19,4 °C 70 % 1016,8 hPa 0,0 mm 0,0 km/h (0 Bft) O 85 ° 0 min 0,000 mm 0,0 UV-I 32 W/m² 13,8 °C 19,4 °C 0,0 km/h (0 Bft)
15.08.2018 19:32 19,4 °C 70 % 1016,8 hPa 0,0 mm 0,0 km/h (0 Bft) O 85 ° 0 min 0,000 mm 0,0 UV-I 32 W/m² 13,8 °C 19,4 °C 0,0 km/h (0 Bft)
15.08.2018 19:33 19,4 °C 72 % 1016,8 hPa 0,0 mm 0,1 km/h (0 Bft) O 85 ° 0 min 0,000 mm 0,0 UV-I 32 W/m² 14,2 °C 19,4 °C 1,6 km/h (1 Bft)
15.08.2018 19:34 19,3 °C 72 % 1016,8 hPa 0,0 mm 0,5 km/h (0 Bft) O 85 ° 0 min 0,000 mm 0,0 UV-I 35 W/m² 14,1 °C 19,3 °C 1,6 km/h (1 Bft)
15.08.2018 19:35 19,3 °C 72 % 1016,8 hPa 0,0 mm 1,1 km/h (1 Bft) O 85 ° 0 min 0,000 mm 0,0 UV-I 35 W/m² 14,1 °C 19,3 °C 3,2 km/h (1 Bft)
15.08.2018 19:36 19,3 °C 73 % 1016,8 hPa 0,0 mm 0,0 km/h (0 Bft) O 85 ° 0 min 0,000 mm 0,0 UV-I 33 W/m² 14,3 °C 19,3 °C 0,0 km/h (0 Bft)
15.08.2018 19:37 19,2 °C 73 % 1016,8 hPa 0,0 mm 0,0 km/h (0 Bft) O 85 ° 0 min 0,000 mm 0,0 UV-I 35 W/m² 14,2 °C 19,2 °C 0,0 km/h (0 Bft)
15.08.2018 19:38 19,2 °C 71 % 1016,8 hPa 0,0 mm 0,0 km/h (0 Bft) O 85 ° 0 min 0,000 mm 0,0 UV-I 39 W/m² 13,8 °C 19,2 °C 0,0 km/h (0 Bft)
15.08.2018 19:39 19,2 °C 71 % 1016,8 hPa 0,0 mm 0,2 km/h (0 Bft) O 85 ° 0 min 0,000 mm 0,0 UV-I 39 W/m² 13,8 °C 19,2 °C 1,6 km/h (1 Bft)
15.08.2018 19:40 19,2 °C 71 % 1016,8 hPa 0,0 mm 0,0 km/h (0 Bft) O 85 ° 0 min 0,000 mm 0,0 UV-I 46 W/m² 13,8 °C 19,2 °C 0,0 km/h (0 Bft)
15.08.2018 19:41 19,2 °C 72 % 1016,9 hPa 0,0 mm 0,0 km/h (0 Bft) O 85 ° 0 min 0,000 mm 0,0 UV-I 56 W/m² 14,0 °C 19,2 °C 0,0 km/h (0 Bft)
15.08.2018 19:42 19,2 °C 73 % 1016,8 hPa 0,0 mm 0,0 km/h (0 Bft) O 85 ° 0 min 0,000 mm 0,0 UV-I 60 W/m² 14,2 °C 19,2 °C 0,0 km/h (0 Bft)
15.08.2018 19:43 19,2 °C 75 % 1016,9 hPa 0,0 mm 1,0 km/h (0 Bft) O 85 ° 0 min 0,000 mm 0,0 UV-I 60 W/m² 14,7 °C 19,2 °C 3,2 km/h (1 Bft)
15.08.2018 19:44 19,1 °C 74 % 1016,9 hPa 0,0 mm 2,1 km/h (1 Bft) O 85 ° 0 min 0,000 mm 0,0 UV-I 60 W/m² 14,4 °C 19,1 °C 3,2 km/h (1 Bft)
15.08.2018 19:45 19,1 °C 76 % 1016,9 hPa 0,0 mm 1,4 km/h (1 Bft) O 85 ° 0 min 0,000 mm 0,0 UV-I 58 W/m² 14,8 °C 19,1 °C 3,2 km/h (1 Bft)
15.08.2018 19:46 19,1 °C 75 % 1016,9 hPa 0,0 mm 2,1 km/h (1 Bft) O 85 ° 0 min 0,000 mm 0,0 UV-I 44 W/m² 14,6 °C 19,1 °C 3,2 km/h (1 Bft)
15.08.2018 19:47 19,0 °C 76 % 1016,8 hPa 0,0 mm 2,5 km/h (1 Bft) O 85 ° 0 min 0,000 mm 0,0 UV-I 42 W/m² 14,7 °C 19,0 °C 3,2 km/h (1 Bft)
15.08.2018 19:48 18,9 °C 76 % 1016,9 hPa 0,0 mm 2,3 km/h (1 Bft) O 85 ° 0 min 0,000 mm 0,0 UV-I 39 W/m² 14,6 °C 18,9 °C 3,2 km/h (1 Bft)
15.08.2018 19:49 18,8 °C 76 % 1016,9 hPa 0,0 mm 2,2 km/h (1 Bft) O 85 ° 0 min 0,000 mm 0,0 UV-I 39 W/m² 14,5 °C 18,8 °C 3,2 km/h (1 Bft)
15.08.2018 19:50 18,8 °C 76 % 1016,9 hPa 0,0 mm 2,4 km/h (1 Bft) O 85 ° 0 min 0,000 mm 0,0 UV-I 35 W/m² 14,5 °C 18,8 °C 3,2 km/h (1 Bft)
15.08.2018 19:51 18,8 °C 74 % 1016,8 hPa 0,0 mm 2,9 km/h (1 Bft) O 85 ° 0 min 0,000 mm 0,0 UV-I 28 W/m² 14,1 °C 18,8 °C 3,2 km/h (1 Bft)
15.08.2018 19:52 18,8 °C 75 % 1016,9 hPa 0,0 mm 3,4 km/h (1 Bft) O 85 ° 0 min 0,000 mm 0,0 UV-I 26 W/m² 14,3 °C 18,8 °C 4,8 km/h (1 Bft)
15.08.2018 19:53 18,8 °C 77 % 1016,9 hPa 0,0 mm 3,1 km/h (1 Bft) O 85 ° 0 min 0,000 mm 0,0 UV-I 25 W/m² 14,7 °C 18,8 °C 4,8 km/h (1 Bft)
15.08.2018 19:54 18,7 °C 78 % 1016,9 hPa 0,0 mm 3,4 km/h (1 Bft) O 85 ° 0 min 0,000 mm 0,0 UV-I 23 W/m² 14,8 °C 18,7 °C 4,8 km/h (1 Bft)
15.08.2018 19:55 18,6 °C 77 % 1016,9 hPa 0,0 mm 2,5 km/h (1 Bft) O 85 ° 0 min 0,000 mm 0,0 UV-I 23 W/m² 14,5 °C 18,6 °C 3,2 km/h (1 Bft)
15.08.2018 19:56 18,5 °C 77 % 1016,9 hPa 0,0 mm 1,6 km/h (1 Bft) O 85 ° 0 min 0,000 mm 0,0 UV-I 21 W/m² 14,4 °C 18,5 °C 3,2 km/h (1 Bft)
15.08.2018 19:57 18,4 °C 78 % 1016,9 hPa 0,0 mm 2,0 km/h (1 Bft) O 85 ° 0 min 0,000 mm 0,0 UV-I 21 W/m² 14,5 °C 18,4 °C 3,2 km/h (1 Bft)
15.08.2018 19:58 18,3 °C 78 % 1016,8 hPa 0,0 mm 1,7 km/h (1 Bft) O 85 ° 0 min 0,000 mm 0,0 UV-I 19 W/m² 14,4 °C 18,3 °C 3,2 km/h (1 Bft)
15.08.2018 19:59 18,1 °C 79 % 1016,9 hPa 0,0 mm 2,8 km/h (1 Bft) O 85 ° 0 min 0,000 mm 0,0 UV-I 19 W/m² 14,4 °C 18,1 °C 3,2 km/h (1 Bft)
15.08.2018 20:00 17,9 °C 79 % 1016,9 hPa 0,0 mm 2,1 km/h (1 Bft) O 85 ° 0 min 0,025 mm 0,0 UV-I 19 W/m² 14,2 °C 17,9 °C 3,2 km/h (1 Bft)
15.08.2018 20:01 17,8 °C 80 % 1016,9 hPa 0,0 mm 1,7 km/h (1 Bft) O 85 ° 0 min 0,000 mm 0,0 UV-I 19 W/m² 14,3 °C 17,8 °C 3,2 km/h (1 Bft)
15.08.2018 20:02 17,7 °C 80 % 1016,9 hPa 0,0 mm 1,9 km/h (1 Bft) O 85 ° 0 min 0,000 mm 0,0 UV-I 18 W/m² 14,2 °C 17,7 °C 3,2 km/h (1 Bft)
15.08.2018 20:03 17,6 °C 81 % 1016,9 hPa 0,0 mm 1,8 km/h (1 Bft) O 85 ° 0 min 0,000 mm 0,0 UV-I 18 W/m² 14,3 °C 17,6 °C 3,2 km/h (1 Bft)
15.08.2018 20:04 17,5 °C 81 % 1016,9 hPa 0,0 mm 2,2 km/h (1 Bft) O 85 ° 0 min 0,000 mm 0,0 UV-I 16 W/m² 14,2 °C 17,5 °C 3,2 km/h (1 Bft)
15.08.2018 20:05 17,4 °C 81 % 1017,0 hPa 0,0 mm 2,1 km/h (1 Bft) O 85 ° 0 min 0,000 mm 0,0 UV-I 16 W/m² 14,1 °C 17,4 °C 3,2 km/h (1 Bft)
15.08.2018 20:06 17,3 °C 81 % 1016,9 hPa 0,0 mm 1,8 km/h (1 Bft) O 85 ° 0 min 0,000 mm 0,0 UV-I 16 W/m² 14,0 °C 17,3 °C 3,2 km/h (1 Bft)
15.08.2018 20:07 17,3 °C 82 % 1016,9 hPa 0,0 mm 2,3 km/h (1 Bft) O 85 ° 0 min 0,000 mm 0,0 UV-I 16 W/m² 14,2 °C 17,3 °C 3,2 km/h (1 Bft)
15.08.2018 20:08 17,2 °C 82 % 1017,0 hPa 0,0 mm 1,6 km/h (1 Bft) O 85 ° 0 min 0,000 mm 0,0 UV-I 14 W/m² 14,1 °C 17,2 °C 3,2 km/h (1 Bft)
15.08.2018 20:09 17,2 °C 82 % 1017,0 hPa 0,0 mm 1,6 km/h (1 Bft) O 85 ° 0 min 0,000 mm 0,0 UV-I 14 W/m² 14,1 °C 17,2 °C 3,2 km/h (1 Bft)
15.08.2018 20:10 17,1 °C 82 % 1016,9 hPa 0,0 mm 1,4 km/h (1 Bft) O 85 ° 0 min 0,000 mm 0,0 UV-I 12 W/m² 14,0 °C 17,1 °C 1,6 km/h (1 Bft)
15.08.2018 20:11 17,1 °C 82 % 1017,0 hPa 0,0 mm 0,1 km/h (0 Bft) O 85 ° 0 min 0,000 mm 0,0 UV-I 12 W/m² 14,0 °C 17,1 °C 1,6 km/h (1 Bft)
15.08.2018 20:12 17,1 °C 83 % 1017,0 hPa 0,0 mm 0,0 km/h (0 Bft) O 85 ° 0 min 0,000 mm 0,0 UV-I 12 W/m² 14,2 °C 17,1 °C 0,0 km/h (0 Bft)
15.08.2018 20:13 17,2 °C 82 % 1016,9 hPa 0,0 mm 0,0 km/h (0 Bft) O 85 ° 0 min 0,000 mm 0,0 UV-I 11 W/m² 14,1 °C 17,2 °C 0,0 km/h (0 Bft)
15.08.2018 20:14 17,2 °C 82 % 1017,0 hPa 0,0 mm 0,6 km/h (0 Bft) O 85 ° 0 min 0,000 mm 0,0 UV-I 11 W/m² 14,1 °C 17,2 °C 1,6 km/h (1 Bft)
15.08.2018 20:15 17,2 °C 82 % 1017,0 hPa 0,0 mm 0,9 km/h (0 Bft) O 85 ° 0 min 0,000 mm 0,0 UV-I 11 W/m² 14,1 °C 17,2 °C 1,6 km/h (1 Bft)
15.08.2018 20:16 17,2 °C 82 % 1017,0 hPa 0,0 mm 1,3 km/h (1 Bft) O 85 ° 0 min 0,000 mm 0,0 UV-I 9 W/m² 14,1 °C 17,2 °C 3,2 km/h (1 Bft)
15.08.2018 20:17 17,2 °C 82 % 1017,0 hPa 0,0 mm 2,1 km/h (1 Bft) O 85 ° 0 min 0,000 mm 0,0 UV-I 9 W/m² 14,1 °C 17,2 °C 3,2 km/h (1 Bft)
15.08.2018 20:18 17,1 °C 82 % 1017,0 hPa 0,0 mm 1,5 km/h (1 Bft) O 85 ° 0 min 0,000 mm 0,0 UV-I 9 W/m² 14,0 °C 17,1 °C 3,2 km/h (1 Bft)
15.08.2018 20:19 17,1 °C 82 % 1017,0 hPa 0,0 mm 1,7 km/h (1 Bft) O 85 ° 0 min 0,000 mm 0,0 UV-I 9 W/m² 14,0 °C 17,1 °C 3,2 km/h (1 Bft)
15.08.2018 20:20 17,0 °C 82 % 1017,0 hPa 0,0 mm 2,6 km/h (1 Bft) O 85 ° 0 min 0,000 mm 0,0 UV-I 7 W/m² 13,9 °C 17,0 °C 3,2 km/h (1 Bft)
15.08.2018 20:21 16,9 °C 82 % 1016,9 hPa 0,0 mm 2,5 km/h (1 Bft) O 85 ° 0 min 0,000 mm 0,0 UV-I 7 W/m² 13,8 °C 16,9 °C 3,2 km/h (1 Bft)
15.08.2018 20:22 16,8 °C 82 % 1016,9 hPa 0,0 mm 2,6 km/h (1 Bft) O 85 ° 0 min 0,000 mm 0,0 UV-I 7 W/m² 13,7 °C 16,8 °C 3,2 km/h (1 Bft)
15.08.2018 20:23 16,8 °C 83 % 1016,9 hPa 0,0 mm 2,5 km/h (1 Bft) O 85 ° 0 min 0,000 mm 0,0 UV-I 5 W/m² 13,9 °C 16,8 °C 4,8 km/h (1 Bft)
15.08.2018 20:24 16,8 °C 83 % 1016,9 hPa 0,0 mm 3,6 km/h (1 Bft) O 85 ° 0 min 0,000 mm 0,0 UV-I 5 W/m² 13,9 °C 16,8 °C 4,8 km/h (1 Bft)
15.08.2018 20:25 16,8 °C 83 % 1017,0 hPa 0,0 mm 4,5 km/h (1 Bft) O 85 ° 0 min 0,000 mm 0,0 UV-I 5 W/m² 13,9 °C 16,8 °C 4,8 km/h (1 Bft)
15.08.2018 20:26 16,7 °C 83 % 1017,0 hPa 0,0 mm 4,5 km/h (1 Bft) O 85 ° 0 min 0,000 mm 0,0 UV-I 5 W/m² 13,8 °C 16,7 °C 4,8 km/h (1 Bft)
15.08.2018 20:27 16,7 °C 83 % 1017,0 hPa 0,0 mm 4,2 km/h (1 Bft) O 85 ° 0 min 0,000 mm 0,0 UV-I 0 W/m² 13,8 °C 16,7 °C 4,8 km/h (1 Bft)
15.08.2018 20:28 16,6 °C 83 % 1016,9 hPa 0,0 mm 3,6 km/h (1 Bft) O 85 ° 0 min 0,000 mm 0,0 UV-I 0 W/m² 13,7 °C 16,6 °C 4,8 km/h (1 Bft)
15.08.2018 20:29 16,6 °C 83 % 1016,9 hPa 0,0 mm 4,1 km/h (1 Bft) O 85 ° 0 min 0,000 mm 0,0 UV-I 0 W/m² 13,7 °C 16,6 °C 4,8 km/h (1 Bft)
15.08.2018 20:30 16,6 °C 83 % 1016,9 hPa 0,0 mm 3,9 km/h (1 Bft) O 85 ° 0 min 0,000 mm 0,0 UV-I 0 W/m² 13,7 °C 16,6 °C 4,8 km/h (1 Bft)
15.08.2018 20:31 16,5 °C 83 % 1017,0 hPa 0,0 mm 4,4 km/h (1 Bft) O 85 ° 0 min 0,000 mm 0,0 UV-I 0 W/m² 13,6 °C 16,5 °C 4,8 km/h (1 Bft)
15.08.2018 20:33 16,4 °C 83 % 1016,9 hPa 0,0 mm 3,0 km/h (1 Bft) O 85 ° 0 min 0,000 mm 0,0 UV-I 0 W/m² 13,5 °C 16,4 °C 4,8 km/h (1 Bft)
15.08.2018 20:34 16,4 °C 83 % 1016,9 hPa 0,0 mm 2,8 km/h (1 Bft) O 85 ° 0 min 0,000 mm 0,0 UV-I 0 W/m² 13,5 °C 16,4 °C 4,8 km/h (1 Bft)
15.08.2018 20:35 16,4 °C 84 % 1016,9 hPa 0,0 mm 3,7 km/h (1 Bft) O 85 ° 0 min 0,000 mm 0,0 UV-I 0 W/m² 13,7 °C 16,4 °C 4,8 km/h (1 Bft)
15.08.2018 20:36 16,3 °C 84 % 1017,0 hPa 0,0 mm 3,7 km/h (1 Bft) O 85 ° 0 min 0,000 mm 0,0 UV-I 0 W/m² 13,6 °C 16,3 °C 4,8 km/h (1 Bft)
15.08.2018 20:37 16,3 °C 84 % 1017,0 hPa 0,0 mm 3,9 km/h (1 Bft) O 85 ° 0 min 0,000 mm 0,0 UV-I 0 W/m² 13,6 °C 16,3 °C 4,8 km/h (1 Bft)
15.08.2018 20:38 16,3 °C 84 % 1017,0 hPa 0,0 mm 2,3 km/h (1 Bft) O 85 ° 0 min 0,000 mm 0,0 UV-I 0 W/m² 13,6 °C 16,3 °C 3,2 km/h (1 Bft)
15.08.2018 20:39 16,2 °C 84 % 1016,9 hPa 0,0 mm 2,0 km/h (1 Bft) O 85 ° 0 min 0,000 mm 0,0 UV-I 0 W/m² 13,5 °C 16,2 °C 3,2 km/h (1 Bft)
15.08.2018 20:40 16,2 °C 84 % 1017,0 hPa 0,0 mm 3,2 km/h (1 Bft) O 85 ° 0 min 0,000 mm 0,0 UV-I 0 W/m² 13,5 °C 16,2 °C 4,8 km/h (1 Bft)
15.08.2018 20:41 16,2 °C 84 % 1017,0 hPa 0,0 mm 3,7 km/h (1 Bft) O 85 ° 0 min 0,000 mm 0,0 UV-I 0 W/m² 13,5 °C 16,2 °C 4,8 km/h (1 Bft)
15.08.2018 20:42 16,1 °C 84 % 1017,1 hPa 0,0 mm 3,2 km/h (1 Bft) O 85 ° 0 min 0,000 mm 0,0 UV-I 0 W/m² 13,4 °C 16,1 °C 4,8 km/h (1 Bft)
15.08.2018 20:43 16,0 °C 85 % 1017,1 hPa 0,0 mm 1,5 km/h (1 Bft) O 85 ° 0 min 0,000 mm 0,0 UV-I 0 W/m² 13,5 °C 16,0 °C 3,2 km/h (1 Bft)
15.08.2018 20:44 16,0 °C 85 % 1017,0 hPa 0,0 mm 0,0 km/h (0 Bft) O 85 ° 0 min 0,000 mm 0,0 UV-I 0 W/m² 13,5 °C 16,0 °C 0,0 km/h (0 Bft)
15.08.2018 20:45 15,9 °C 85 % 1017,0 hPa 0,0 mm 3,2 km/h (1 Bft) O 85 ° 0 min 0,000 mm 0,0 UV-I 0 W/m² 13,4 °C 15,9 °C 4,8 km/h (1 Bft)
15.08.2018 20:46 15,8 °C 85 % 1017,0 hPa 0,0 mm 3,0 km/h (1 Bft) O 85 ° 0 min 0,000 mm 0,0 UV-I 0 W/m² 13,3 °C 15,8 °C 3,2 km/h (1 Bft)
15.08.2018 20:47 15,8 °C 85 % 1017,0 hPa 0,0 mm 3,3 km/h (1 Bft) O 85 ° 0 min 0,000 mm 0,0 UV-I 0 W/m² 13,3 °C 15,8 °C 4,8 km/h (1 Bft)
15.08.2018 20:48 15,7 °C 85 % 1017,1 hPa 0,0 mm 2,1 km/h (1 Bft) O 85 ° 0 min 0,000 mm 0,0 UV-I 0 W/m² 13,2 °C 15,7 °C 3,2 km/h (1 Bft)
15.08.2018 20:49 15,7 °C 86 % 1017,0 hPa 0,0 mm 1,0 km/h (0 Bft) O 85 ° 0 min 0,000 mm 0,0 UV-I 0 W/m² 13,4 °C 15,7 °C 1,6 km/h (1 Bft)
15.08.2018 20:50 15,7 °C 86 % 1017,1 hPa 0,0 mm 0,0 km/h (0 Bft) O 85 ° 0 min 0,000 mm 0,0 UV-I 0 W/m² 13,4 °C 15,7 °C 0,0 km/h (0 Bft)
15.08.2018 20:51 15,7 °C 86 % 1017,0 hPa 0,0 mm 0,0 km/h (0 Bft) O 85 ° 0 min 0,000 mm 0,0 UV-I 0 W/m² 13,4 °C 15,7 °C 0,0 km/h (0 Bft)
15.08.2018 20:52 15,6 °C 85 % 1017,1 hPa 0,0 mm 1,4 km/h (1 Bft) O 85 ° 0 min 0,000 mm 0,0 UV-I 0 W/m² 13,1 °C 15,6 °C 3,2 km/h (1 Bft)
15.08.2018 20:53 15,6 °C 85 % 1017,1 hPa 0,0 mm 0,2 km/h (0 Bft) O 85 ° 0 min 0,000 mm 0,0 UV-I 0 W/m² 13,1 °C 15,6 °C 1,6 km/h (1 Bft)
15.08.2018 20:54 15,6 °C 86 % 1017,1 hPa 0,0 mm 0,6 km/h (0 Bft) O 85 ° 0 min 0,000 mm 0,0 UV-I 0 W/m² 13,3 °C 15,6 °C 3,2 km/h (1 Bft)
15.08.2018 20:55 15,5 °C 86 % 1017,1 hPa 0,0 mm 0,6 km/h (0 Bft) O 85 ° 0 min 0,000 mm 0,0 UV-I 0 W/m² 13,2 °C 15,5 °C 3,2 km/h (1 Bft)
15.08.2018 20:56 15,4 °C 86 % 1017,1 hPa 0,0 mm 0,3 km/h (0 Bft) O 85 ° 0 min 0,000 mm 0,0 UV-I 0 W/m² 13,1 °C 15,4 °C 1,6 km/h (1 Bft)
15.08.2018 20:57 15,4 °C 86 % 1017,1 hPa 0,0 mm 0,0 km/h (0 Bft) O 85 ° 0 min 0,000 mm 0,0 UV-I 0 W/m² 13,1 °C 15,4 °C 0,0 km/h (0 Bft)
15.08.2018 20:58 15,4 °C 86 % 1017,1 hPa 0,0 mm 0,8 km/h (0 Bft) O 85 ° 0 min 0,000 mm 0,0 UV-I 0 W/m² 13,1 °C 15,4 °C 3,2 km/h (1 Bft)
15.08.2018 20:59 15,3 °C 86 % 1017,1 hPa 0,0 mm 1,1 km/h (1 Bft) O 85 ° 0 min 0,000 mm 0,0 UV-I 0 W/m² 13,0 °C 15,3 °C 3,2 km/h (1 Bft)
15.08.2018 21:00 15,3 °C 86 % 1017,1 hPa 0,0 mm 0,0 km/h (0 Bft) O 85 ° 0 min 0,000 mm 0,0 UV-I 0 W/m² 13,0 °C 15,3 °C 0,0 km/h (0 Bft)
15.08.2018 21:01 15,3 °C 86 % 1017,1 hPa 0,0 mm 0,0 km/h (0 Bft) O 85 ° 0 min 0,000 mm 0,0 UV-I 0 W/m² 13,0 °C 15,3 °C 0,0 km/h (0 Bft)
15.08.2018 21:03 15,3 °C 86 % 1017,2 hPa 0,0 mm 0,0 km/h (0 Bft) O 85 ° 0 min 0,000 mm 0,0 UV-I 0 W/m² 13,0 °C 15,3 °C 0,0 km/h (0 Bft)
15.08.2018 21:04 15,3 °C 86 % 1017,2 hPa 0,0 mm 0,0 km/h (0 Bft) O 85 ° 0 min 0,000 mm 0,0 UV-I 0 W/m² 13,0 °C 15,3 °C 0,0 km/h (0 Bft)
15.08.2018 21:05 15,3 °C 86 % 1017,2 hPa 0,0 mm 0,0 km/h (0 Bft) O 85 ° 0 min 0,000 mm 0,0 UV-I 0 W/m² 13,0 °C 15,3 °C 0,0 km/h (0 Bft)
15.08.2018 21:06 15,3 °C 86 % 1017,2 hPa 0,0 mm 0,0 km/h (0 Bft) O 85 ° 0 min 0,000 mm 0,0 UV-I 0 W/m² 13,0 °C 15,3 °C 0,0 km/h (0 Bft)
15.08.2018 21:07 15,3 °C 86 % 1017,2 hPa 0,0 mm 0,0 km/h (0 Bft) O 85 ° 0 min 0,000 mm 0,0 UV-I 0 W/m² 13,0 °C 15,3 °C 0,0 km/h (0 Bft)
15.08.2018 21:08 15,4 °C 86 % 1017,2 hPa 0,0 mm 0,0 km/h (0 Bft) O 85 ° 0 min 0,000 mm 0,0 UV-I 0 W/m² 13,1 °C 15,4 °C 0,0 km/h (0 Bft)
15.08.2018 21:09 15,4 °C 86 % 1017,2 hPa 0,0 mm 0,0 km/h (0 Bft) O 85 ° 0 min 0,000 mm 0,0 UV-I 0 W/m² 13,1 °C 15,4 °C 0,0 km/h (0 Bft)
15.08.2018 21:10 15,4 °C 85 % 1017,2 hPa 0,0 mm 0,0 km/h (0 Bft) O 85 ° 0 min 0,000 mm 0,0 UV-I 0 W/m² 12,9 °C 15,4 °C 0,0 km/h (0 Bft)
15.08.2018 21:11 15,4 °C 85 % 1017,2 hPa 0,0 mm 0,0 km/h (0 Bft) O 85 ° 0 min 0,000 mm 0,0 UV-I 0 W/m² 12,9 °C 15,4 °C 0,0 km/h (0 Bft)
15.08.2018 21:12 15,3 °C 85 % 1017,2 hPa 0,0 mm 0,0 km/h (0 Bft) O 85 ° 0 min 0,000 mm 0,0 UV-I 0 W/m² 12,8 °C 15,3 °C 0,0 km/h (0 Bft)
15.08.2018 21:13 15,3 °C 85 % 1017,2 hPa 0,0 mm 0,0 km/h (0 Bft) O 85 ° 0 min 0,000 mm 0,0 UV-I 0 W/m² 12,8 °C 15,3 °C 0,0 km/h (0 Bft)
15.08.2018 21:14 15,3 °C 85 % 1017,2 hPa 0,0 mm 0,0 km/h (0 Bft) O 85 ° 0 min 0,000 mm 0,0 UV-I 0 W/m² 12,8 °C 15,3 °C 0,0 km/h (0 Bft)
15.08.2018 21:15 15,3 °C 85 % 1017,2 hPa 0,0 mm 0,0 km/h (0 Bft) O 85 ° 0 min 0,000 mm 0,0 UV-I 0 W/m² 12,8 °C 15,3 °C 0,0 km/h (0 Bft)
15.08.2018 21:16 15,3 °C 85 % 1017,3 hPa 0,0 mm 0,0 km/h (0 Bft) O 85 ° 0 min 0,000 mm 0,0 UV-I 0 W/m² 12,8 °C 15,3 °C 0,0 km/h (0 Bft)
15.08.2018 21:17 15,3 °C 85 % 1017,3 hPa 0,0 mm 0,0 km/h (0 Bft) O 85 ° 0 min 0,000 mm 0,0 UV-I 0 W/m² 12,8 °C 15,3 °C 0,0 km/h (0 Bft)
15.08.2018 21:18 15,3 °C 85 % 1017,3 hPa 0,0 mm 0,0 km/h (0 Bft) O 85 ° 0 min 0,000 mm 0,0 UV-I 0 W/m² 12,8 °C 15,3 °C 0,0 km/h (0 Bft)
15.08.2018 21:19 15,3 °C 85 % 1017,3 hPa 0,0 mm 0,0 km/h (0 Bft) O 85 ° 0 min 0,000 mm 0,0 UV-I 0 W/m² 12,8 °C 15,3 °C 0,0 km/h (0 Bft)
15.08.2018 21:20 15,4 °C 85 % 1017,3 hPa 0,0 mm 0,0 km/h (0 Bft) O 85 ° 0 min 0,000 mm 0,0 UV-I 0 W/m² 12,9 °C 15,4 °C 0,0 km/h (0 Bft)
15.08.2018 21:21 15,3 °C 85 % 1017,3 hPa 0,0 mm 0,0 km/h (0 Bft) O 85 ° 0 min 0,000 mm 0,0 UV-I 0 W/m² 12,8 °C 15,3 °C 0,0 km/h (0 Bft)
15.08.2018 21:22 15,4 °C 85 % 1017,3 hPa 0,0 mm 0,0 km/h (0 Bft) O 85 ° 0 min 0,000 mm 0,0 UV-I 0 W/m² 12,9 °C 15,4 °C 0,0 km/h (0 Bft)
15.08.2018 21:23 15,4 °C 84 % 1017,3 hPa 0,0 mm 0,0 km/h (0 Bft) O 85 ° 0 min 0,000 mm 0,0 UV-I 0 W/m² 12,7 °C 15,4 °C 0,0 km/h (0 Bft)
15.08.2018 21:24 15,4 °C 84 % 1017,4 hPa 0,0 mm 0,0 km/h (0 Bft) O 85 ° 0 min 0,000 mm 0,0 UV-I 0 W/m² 12,7 °C 15,4 °C 0,0 km/h (0 Bft)
15.08.2018 21:25 15,4 °C 84 % 1017,4 hPa 0,0 mm 0,0 km/h (0 Bft) O 85 ° 0 min 0,000 mm 0,0 UV-I 0 W/m² 12,7 °C 15,4 °C 0,0 km/h (0 Bft)
15.08.2018 21:26 15,4 °C 84 % 1017,4 hPa 0,0 mm 0,0 km/h (0 Bft) O 85 ° 0 min 0,000 mm 0,0 UV-I 0 W/m² 12,7 °C 15,4 °C 0,0 km/h (0 Bft)
15.08.2018 21:27 15,4 °C 84 % 1017,4 hPa 0,0 mm 0,0 km/h (0 Bft) O 85 ° 0 min 0,000 mm 0,0 UV-I 0 W/m² 12,7 °C 15,4 °C 0,0 km/h (0 Bft)
15.08.2018 21:28 15,4 °C 84 % 1017,4 hPa 0,0 mm 0,0 km/h (0 Bft) O 85 ° 0 min 0,000 mm 0,0 UV-I 0 W/m² 12,7 °C 15,4 °C 0,0 km/h (0 Bft)
15.08.2018 21:29 15,3 °C 84 % 1017,4 hPa 0,0 mm 0,0 km/h (0 Bft) O 85 ° 0 min 0,000 mm 0,0 UV-I 0 W/m² 12,6 °C 15,3 °C 0,0 km/h (0 Bft)
15.08.2018 21:30 15,3 °C 84 % 1017,4 hPa 0,0 mm 0,0 km/h (0 Bft) O 85 ° 0 min 0,000 mm 0,0 UV-I 0 W/m² 12,6 °C 15,3 °C 0,0 km/h (0 Bft)
15.08.2018 21:31 15,3 °C 85 % 1017,4 hPa 0,0 mm 0,0 km/h (0 Bft) O 85 ° 0 min 0,000 mm 0,0 UV-I 0 W/m² 12,8 °C 15,3 °C 0,0 km/h (0 Bft)
15.08.2018 21:32 15,3 °C 85 % 1017,4 hPa 0,0 mm 0,0 km/h (0 Bft) O 85 ° 0 min 0,000 mm 0,0 UV-I 0 W/m² 12,8 °C 15,3 °C 0,0 km/h (0 Bft)
15.08.2018 21:33 15,2 °C 85 % 1017,5 hPa 0,0 mm 0,0 km/h (0 Bft) O 85 ° 0 min 0,000 mm 0,0 UV-I 0 W/m² 12,7 °C 15,2 °C 0,0 km/h (0 Bft)
15.08.2018 21:34 15,2 °C 85 % 1017,5 hPa 0,0 mm 0,0 km/h (0 Bft) O 85 ° 0 min 0,000 mm 0,0 UV-I 0 W/m² 12,7 °C 15,2 °C 0,0 km/h (0 Bft)
15.08.2018 21:35 15,2 °C 85 % 1017,5 hPa 0,0 mm 0,0 km/h (0 Bft) O 85 ° 0 min 0,000 mm 0,0 UV-I 0 W/m² 12,7 °C 15,2 °C 0,0 km/h (0 Bft)
15.08.2018 21:36 15,3 °C 85 % 1017,5 hPa 0,0 mm 0,0 km/h (0 Bft) O 85 ° 0 min 0,000 mm 0,0 UV-I 0 W/m² 12,8 °C 15,3 °C 0,0 km/h (0 Bft)
15.08.2018 21:37 15,3 °C 85 % 1017,5 hPa 0,0 mm 0,0 km/h (0 Bft) O 85 ° 0 min 0,000 mm 0,0 UV-I 0 W/m² 12,8 °C 15,3 °C 0,0 km/h (0 Bft)
15.08.2018 21:38 15,3 °C 85 % 1017,5 hPa 0,0 mm 0,0 km/h (0 Bft) O 85 ° 0 min 0,000 mm 0,0 UV-I 0 W/m² 12,8 °C 15,3 °C 0,0 km/h (0 Bft)
15.08.2018 21:39 15,3 °C 85 % 1017,5 hPa 0,0 mm 0,0 km/h (0 Bft) O 85 ° 0 min 0,000 mm 0,0 UV-I 0 W/m² 12,8 °C 15,3 °C 0,0 km/h (0 Bft)
15.08.2018 21:40 15,2 °C 85 % 1017,5 hPa 0,0 mm 0,0 km/h (0 Bft) O 85 ° 0 min 0,000 mm 0,0 UV-I 0 W/m² 12,7 °C 15,2 °C 0,0 km/h (0 Bft)
15.08.2018 21:41 15,1 °C 85 % 1017,5 hPa 0,0 mm 0,0 km/h (0 Bft) O 85 ° 0 min 0,000 mm 0,0 UV-I 0 W/m² 12,6 °C 15,1 °C 0,0 km/h (0 Bft)
15.08.2018 21:42 15,1 °C 85 % 1017,5 hPa 0,0 mm 0,0 km/h (0 Bft) O 85 ° 0 min 0,000 mm 0,0 UV-I 0 W/m² 12,6 °C 15,1 °C 0,0 km/h (0 Bft)
15.08.2018 21:43 15,1 °C 85 % 1017,5 hPa 0,0 mm 0,0 km/h (0 Bft) O 85 ° 0 min 0,000 mm 0,0 UV-I 0 W/m² 12,6 °C 15,1 °C 0,0 km/h (0 Bft)
15.08.2018 21:44 15,1 °C 85 % 1017,5 hPa 0,0 mm 0,0 km/h (0 Bft) O 85 ° 0 min 0,000 mm 0,0 UV-I 0 W/m² 12,6 °C 15,1 °C 0,0 km/h (0 Bft)
15.08.2018 21:45 15,0 °C 85 % 1017,5 hPa 0,0 mm 0,0 km/h (0 Bft) O 85 ° 0 min 0,000 mm 0,0 UV-I 0 W/m² 12,5 °C 15,0 °C 0,0 km/h (0 Bft)
15.08.2018 21:46 15,0 °C 86 % 1017,5 hPa 0,0 mm 0,0 km/h (0 Bft) O 85 ° 0 min 0,000 mm 0,0 UV-I 0 W/m² 12,7 °C 15,0 °C 0,0 km/h (0 Bft)
15.08.2018 21:47 15,0 °C 86 % 1017,5 hPa 0,0 mm 0,0 km/h (0 Bft) O 85 ° 0 min 0,000 mm 0,0 UV-I 0 W/m² 12,7 °C 15,0 °C 0,0 km/h (0 Bft)
15.08.2018 21:48 14,9 °C 86 % 1017,5 hPa 0,0 mm 0,0 km/h (0 Bft) O 85 ° 0 min 0,000 mm 0,0 UV-I 0 W/m² 12,6 °C 14,9 °C 0,0 km/h (0 Bft)
15.08.2018 21:49 14,9 °C 86 % 1017,5 hPa 0,0 mm 0,0 km/h (0 Bft) O 85 ° 0 min 0,000 mm 0,0 UV-I 0 W/m² 12,6 °C 14,9 °C 0,0 km/h (0 Bft)
15.08.2018 21:50 14,9 °C 86 % 1017,5 hPa 0,0 mm 0,0 km/h (0 Bft) O 85 ° 0 min 0,000 mm 0,0 UV-I 0 W/m² 12,6 °C 14,9 °C 0,0 km/h (0 Bft)
15.08.2018 21:51 14,9 °C 86 % 1017,5 hPa 0,0 mm 0,0 km/h (0 Bft) O 85 ° 0 min 0,000 mm 0,0 UV-I 0 W/m² 12,6 °C 14,9 °C 0,0 km/h (0 Bft)
15.08.2018 21:52 14,9 °C 86 % 1017,5 hPa 0,0 mm 0,0 km/h (0 Bft) O 85 ° 0 min 0,000 mm 0,0 UV-I 0 W/m² 12,6 °C 14,9 °C 0,0 km/h (0 Bft)
15.08.2018 21:53 14,9 °C 86 % 1017,5 hPa 0,0 mm 0,0 km/h (0 Bft) O 85 ° 0 min 0,000 mm 0,0 UV-I 0 W/m² 12,6 °C 14,9 °C 0,0 km/h (0 Bft)
15.08.2018 21:54 14,9 °C 86 % 1017,5 hPa 0,0 mm 0,0 km/h (0 Bft) O 85 ° 0 min 0,000 mm 0,0 UV-I 0 W/m² 12,6 °C 14,9 °C 0,0 km/h (0 Bft)
15.08.2018 21:55 14,9 °C 86 % 1017,5 hPa 0,0 mm 0,0 km/h (0 Bft) O 85 ° 0 min 0,000 mm 0,0 UV-I 0 W/m² 12,6 °C 14,9 °C 0,0 km/h (0 Bft)
15.08.2018 21:56 14,8 °C 86 % 1017,5 hPa 0,0 mm 0,0 km/h (0 Bft) O 85 ° 0 min 0,000 mm 0,0 UV-I 0 W/m² 12,5 °C 14,8 °C 0,0 km/h (0 Bft)
15.08.2018 21:57 14,8 °C 86 % 1017,5 hPa 0,0 mm 0,0 km/h (0 Bft) O 85 ° 0 min 0,000 mm 0,0 UV-I 0 W/m² 12,5 °C 14,8 °C 0,0 km/h (0 Bft)
15.08.2018 21:58 14,8 °C 86 % 1017,5 hPa 0,0 mm 0,0 km/h (0 Bft) O 85 ° 0 min 0,000 mm 0,0 UV-I 0 W/m² 12,5 °C 14,8 °C 0,0 km/h (0 Bft)
15.08.2018 21:59 14,8 °C 86 % 1017,5 hPa 0,0 mm 0,0 km/h (0 Bft) O 85 ° 0 min 0,000 mm 0,0 UV-I 0 W/m² 12,5 °C 14,8 °C 0,0 km/h (0 Bft)
15.08.2018 22:00 14,8 °C 86 % 1017,5 hPa 0,0 mm 0,0 km/h (0 Bft) O 85 ° 0 min 0,000 mm 0,0 UV-I 0 W/m² 12,5 °C 14,8 °C 0,0 km/h (0 Bft)
15.08.2018 22:01 14,8 °C 86 % 1017,5 hPa 0,0 mm 0,0 km/h (0 Bft) O 85 ° 0 min 0,000 mm 0,0 UV-I 0 W/m² 12,5 °C 14,8 °C 0,0 km/h (0 Bft)
15.08.2018 22:02 14,8 °C 86 % 1017,5 hPa 0,0 mm 0,0 km/h (0 Bft) O 85 ° 0 min 0,000 mm 0,0 UV-I 0 W/m² 12,5 °C 14,8 °C 0,0 km/h (0 Bft)
15.08.2018 22:03 14,8 °C 86 % 1017,5 hPa 0,0 mm 0,0 km/h (0 Bft) O 85 ° 0 min 0,000 mm 0,0 UV-I 0 W/m² 12,5 °C 14,8 °C 0,0 km/h (0 Bft)
15.08.2018 22:04 14,8 °C 86 % 1017,5 hPa 0,0 mm 0,0 km/h (0 Bft) O 85 ° 0 min 0,000 mm 0,0 UV-I 0 W/m² 12,5 °C 14,8 °C 0,0 km/h (0 Bft)
15.08.2018 22:05 14,8 °C 86 % 1017,5 hPa 0,0 mm 0,0 km/h (0 Bft) O 85 ° 0 min 0,000 mm 0,0 UV-I 0 W/m² 12,5 °C 14,8 °C 0,0 km/h (0 Bft)
15.08.2018 22:06 14,8 °C 86 % 1017,5 hPa 0,0 mm 0,0 km/h (0 Bft) O 85 ° 0 min 0,000 mm 0,0 UV-I 0 W/m² 12,5 °C 14,8 °C 0,0 km/h (0 Bft)
15.08.2018 22:07 14,8 °C 86 % 1017,5 hPa 0,0 mm 0,0 km/h (0 Bft) O 85 ° 0 min 0,000 mm 0,0 UV-I 0 W/m² 12,5 °C 14,8 °C 0,0 km/h (0 Bft)
15.08.2018 22:08 14,8 °C 86 % 1017,5 hPa 0,0 mm 0,0 km/h (0 Bft) O 85 ° 0 min 0,000 mm 0,0 UV-I 0 W/m² 12,5 °C 14,8 °C 0,0 km/h (0 Bft)
15.08.2018 22:09 14,7 °C 86 % 1017,5 hPa 0,0 mm 0,0 km/h (0 Bft) O 85 ° 0 min 0,000 mm 0,0 UV-I 0 W/m² 12,4 °C 14,7 °C 0,0 km/h (0 Bft)
15.08.2018 22:10 14,7 °C 87 % 1017,6 hPa 0,0 mm 0,0 km/h (0 Bft) O 85 ° 0 min 0,000 mm 0,0 UV-I 0 W/m² 12,6 °C 14,7 °C 0,0 km/h (0 Bft)
15.08.2018 22:11 14,7 °C 87 % 1017,5 hPa 0,0 mm 0,0 km/h (0 Bft) O 85 ° 0 min 0,000 mm 0,0 UV-I 0 W/m² 12,6 °C 14,7 °C 0,0 km/h (0 Bft)
15.08.2018 22:12 14,7 °C 87 % 1017,5 hPa 0,0 mm 0,0 km/h (0 Bft) O 85 ° 0 min 0,000 mm 0,0 UV-I 0 W/m² 12,6 °C 14,7 °C 0,0 km/h (0 Bft)
15.08.2018 22:13 14,7 °C 87 % 1017,5 hPa 0,0 mm 0,0 km/h (0 Bft) O 85 ° 0 min 0,000 mm 0,0 UV-I 0 W/m² 12,6 °C 14,7 °C 0,0 km/h (0 Bft)
15.08.2018 22:14 14,7 °C 87 % 1017,6 hPa 0,0 mm 0,0 km/h (0 Bft) O 85 ° 0 min 0,000 mm 0,0 UV-I 0 W/m² 12,6 °C 14,7 °C 0,0 km/h (0 Bft)
15.08.2018 22:15 14,7 °C 87 % 1017,5 hPa 0,0 mm 0,0 km/h (0 Bft) O 85 ° 0 min 0,000 mm 0,0 UV-I 0 W/m² 12,6 °C 14,7 °C 0,0 km/h (0 Bft)
15.08.2018 22:16 14,6 °C 87 % 1017,6 hPa 0,0 mm 0,0 km/h (0 Bft) O 85 ° 0 min 0,000 mm 0,0 UV-I 0 W/m² 12,5 °C 14,6 °C 0,0 km/h (0 Bft)
15.08.2018 22:17 14,6 °C 87 % 1017,6 hPa 0,0 mm 0,0 km/h (0 Bft) O 85 ° 0 min 0,000 mm 0,0 UV-I 0 W/m² 12,5 °C 14,6 °C 0,0 km/h (0 Bft)
15.08.2018 22:18 14,6 °C 87 % 1017,6 hPa 0,0 mm 0,0 km/h (0 Bft) O 85 ° 0 min 0,000 mm 0,0 UV-I 0 W/m² 12,5 °C 14,6 °C 0,0 km/h (0 Bft)
15.08.2018 22:19 14,6 °C 87 % 1017,6 hPa 0,0 mm 0,0 km/h (0 Bft) O 85 ° 0 min 0,000 mm 0,0 UV-I 0 W/m² 12,5 °C 14,6 °C 0,0 km/h (0 Bft)
15.08.2018 22:20 14,6 °C 87 % 1017,5 hPa 0,0 mm 0,0 km/h (0 Bft) O 85 ° 0 min 0,000 mm 0,0 UV-I 0 W/m² 12,5 °C 14,6 °C 0,0 km/h (0 Bft)
15.08.2018 22:21 14,5 °C 87 % 1017,6 hPa 0,0 mm 0,0 km/h (0 Bft) O 85 ° 0 min 0,000 mm 0,0 UV-I 0 W/m² 12,4 °C 14,5 °C 0,0 km/h (0 Bft)
15.08.2018 22:22 14,5 °C 88 % 1017,5 hPa 0,0 mm 0,0 km/h (0 Bft) O 85 ° 0 min 0,000 mm 0,0 UV-I 0 W/m² 12,5 °C 14,5 °C 0,0 km/h (0 Bft)
15.08.2018 22:23 14,4 °C 87 % 1017,6 hPa 0,0 mm 0,0 km/h (0 Bft) O 85 ° 0 min 0,000 mm 0,0 UV-I 0 W/m² 12,3 °C 14,4 °C 0,0 km/h (0 Bft)
15.08.2018 22:24 14,4 °C 88 % 1017,6 hPa 0,0 mm 0,0 km/h (0 Bft) O 85 ° 0 min 0,000 mm 0,0 UV-I 0 W/m² 12,4 °C 14,4 °C 0,0 km/h (0 Bft)
15.08.2018 22:25 14,4 °C 88 % 1017,5 hPa 0,0 mm 0,0 km/h (0 Bft) O 85 ° 0 min 0,000 mm 0,0 UV-I 0 W/m² 12,4 °C 14,4 °C 0,0 km/h (0 Bft)
15.08.2018 22:26 14,3 °C 88 % 1017,5 hPa 0,0 mm 0,0 km/h (0 Bft) O 85 ° 0 min 0,000 mm 0,0 UV-I 0 W/m² 12,3 °C 14,3 °C 0,0 km/h (0 Bft)
15.08.2018 22:27 14,4 °C 88 % 1017,5 hPa 0,0 mm 0,0 km/h (0 Bft) O 85 ° 0 min 0,000 mm 0,0 UV-I 0 W/m² 12,4 °C 14,4 °C 0,0 km/h (0 Bft)
15.08.2018 22:28 14,4 °C 88 % 1017,5 hPa 0,0 mm 0,0 km/h (0 Bft) O 85 ° 0 min 0,000 mm 0,0 UV-I 0 W/m² 12,4 °C 14,4 °C 0,0 km/h (0 Bft)
15.08.2018 22:29 14,4 °C 88 % 1017,5 hPa 0,0 mm 0,0 km/h (0 Bft) O 85 ° 0 min 0,000 mm 0,0 UV-I 0 W/m² 12,4 °C 14,4 °C 0,0 km/h (0 Bft)
15.08.2018 22:30 14,4 °C 88 % 1017,4 hPa 0,0 mm 0,0 km/h (0 Bft) O 85 ° 0 min 0,000 mm 0,0 UV-I 0 W/m² 12,4 °C 14,4 °C 0,0 km/h (0 Bft)
15.08.2018 22:31 14,4 °C 88 % 1017,5 hPa 0,0 mm 0,0 km/h (0 Bft) O 85 ° 0 min 0,000 mm 0,0 UV-I 0 W/m² 12,4 °C 14,4 °C 0,0 km/h (0 Bft)
15.08.2018 22:32 14,3 °C 88 % 1017,5 hPa 0,0 mm 0,0 km/h (0 Bft) O 85 ° 0 min 0,000 mm 0,0 UV-I 0 W/m² 12,3 °C 14,3 °C 0,0 km/h (0 Bft)
15.08.2018 22:33 14,3 °C 88 % 1017,5 hPa 0,0 mm 0,0 km/h (0 Bft) O 85 ° 0 min 0,000 mm 0,0 UV-I 0 W/m² 12,3 °C 14,3 °C 0,0 km/h (0 Bft)
15.08.2018 22:34 14,3 °C 88 % 1017,4 hPa 0,0 mm 0,0 km/h (0 Bft) O 85 ° 0 min 0,000 mm 0,0 UV-I 0 W/m² 12,3 °C 14,3 °C 0,0 km/h (0 Bft)
15.08.2018 22:35 14,3 °C 88 % 1017,4 hPa 0,0 mm 0,0 km/h (0 Bft) O 85 ° 0 min 0,000 mm 0,0 UV-I 0 W/m² 12,3 °C 14,3 °C 0,0 km/h (0 Bft)
15.08.2018 22:36 14,2 °C 88 % 1017,5 hPa 0,0 mm 0,0 km/h (0 Bft) O 85 ° 0 min 0,000 mm 0,0 UV-I 0 W/m² 12,2 °C 14,2 °C 0,0 km/h (0 Bft)
15.08.2018 22:37 14,2 °C 88 % 1017,5 hPa 0,0 mm 0,0 km/h (0 Bft) O 85 ° 0 min 0,000 mm 0,0 UV-I 0 W/m² 12,2 °C 14,2 °C 0,0 km/h (0 Bft)
15.08.2018 22:38 14,2 °C 88 % 1017,5 hPa 0,0 mm 0,0 km/h (0 Bft) O 85 ° 0 min 0,000 mm 0,0 UV-I 0 W/m² 12,2 °C 14,2 °C 0,0 km/h (0 Bft)
15.08.2018 22:39 14,2 °C 88 % 1017,5 hPa 0,0 mm 0,0 km/h (0 Bft) O 85 ° 0 min 0,000 mm 0,0 UV-I 0 W/m² 12,2 °C 14,2 °C 0,0 km/h (0 Bft)
15.08.2018 22:40 14,2 °C 88 % 1017,5 hPa 0,0 mm 0,0 km/h (0 Bft) O 85 ° 0 min 0,000 mm 0,0 UV-I 0 W/m² 12,2 °C 14,2 °C 0,0 km/h (0 Bft)
15.08.2018 22:41 14,3 °C 88 % 1017,5 hPa 0,0 mm 0,0 km/h (0 Bft) O 85 ° 0 min 0,000 mm 0,0 UV-I 0 W/m² 12,3 °C 14,3 °C 0,0 km/h (0 Bft)
15.08.2018 22:42 14,3 °C 88 % 1017,5 hPa 0,0 mm 0,0 km/h (0 Bft) O 85 ° 0 min 0,000 mm 0,0 UV-I 0 W/m² 12,3 °C 14,3 °C 0,0 km/h (0 Bft)
15.08.2018 22:43 14,3 °C 88 % 1017,5 hPa 0,0 mm 0,0 km/h (0 Bft) O 85 ° 0 min 0,000 mm 0,0 UV-I 0 W/m² 12,3 °C 14,3 °C 0,0 km/h (0 Bft)
15.08.2018 22:44 14,3 °C 88 % 1017,5 hPa 0,0 mm 0,0 km/h (0 Bft) O 85 ° 0 min 0,000 mm 0,0 UV-I 0 W/m² 12,3 °C 14,3 °C 0,0 km/h (0 Bft)
15.08.2018 22:45 14,3 °C 88 % 1017,5 hPa 0,0 mm 0,0 km/h (0 Bft) O 85 ° 0 min 0,000 mm 0,0 UV-I 0 W/m² 12,3 °C 14,3 °C 0,0 km/h (0 Bft)
15.08.2018 22:46 14,3 °C 88 % 1017,5 hPa 0,0 mm 0,0 km/h (0 Bft) O 85 ° 0 min 0,000 mm 0,0 UV-I 0 W/m² 12,3 °C 14,3 °C 0,0 km/h (0 Bft)
15.08.2018 22:47 14,3 °C 88 % 1017,5 hPa 0,0 mm 0,0 km/h (0 Bft) O 85 ° 0 min 0,000 mm 0,0 UV-I 0 W/m² 12,3 °C 14,3 °C 0,0 km/h (0 Bft)
15.08.2018 22:48 14,3 °C 88 % 1017,5 hPa 0,0 mm 0,0 km/h (0 Bft) O 85 ° 0 min 0,000 mm 0,0 UV-I 0 W/m² 12,3 °C 14,3 °C 0,0 km/h (0 Bft)
15.08.2018 22:49 14,3 °C 88 % 1017,5 hPa 0,0 mm 0,0 km/h (0 Bft) O 85 ° 0 min 0,000 mm 0,0 UV-I 0 W/m² 12,3 °C 14,3 °C 0,0 km/h (0 Bft)
15.08.2018 22:50 14,3 °C 88 % 1017,5 hPa 0,0 mm 0,0 km/h (0 Bft) O 85 ° 0 min 0,000 mm 0,0 UV-I 0 W/m² 12,3 °C 14,3 °C 0,0 km/h (0 Bft)
15.08.2018 22:51 14,3 °C 88 % 1017,5 hPa 0,0 mm 0,0 km/h (0 Bft) O 85 ° 0 min 0,000 mm 0,0 UV-I 0 W/m² 12,3 °C 14,3 °C 0,0 km/h (0 Bft)
15.08.2018 22:52 14,3 °C 88 % 1017,5 hPa 0,0 mm 0,0 km/h (0 Bft) O 85 ° 0 min 0,000 mm 0,0 UV-I 0 W/m² 12,3 °C 14,3 °C 0,0 km/h (0 Bft)
15.08.2018 22:53 14,2 °C 88 % 1017,5 hPa 0,0 mm 0,0 km/h (0 Bft) O 85 ° 0 min 0,000 mm 0,0 UV-I 0 W/m² 12,2 °C 14,2 °C 0,0 km/h (0 Bft)
15.08.2018 22:54 14,2 °C 88 % 1017,5 hPa 0,0 mm 0,0 km/h (0 Bft) O 85 ° 0 min 0,000 mm 0,0 UV-I 0 W/m² 12,2 °C 14,2 °C 0,0 km/h (0 Bft)
15.08.2018 22:55 14,2 °C 88 % 1017,5 hPa 0,0 mm 0,0 km/h (0 Bft) O 85 ° 0 min 0,000 mm 0,0 UV-I 0 W/m² 12,2 °C 14,2 °C 0,0 km/h (0 Bft)
15.08.2018 22:56 14,2 °C 88 % 1017,5 hPa 0,0 mm 0,0 km/h (0 Bft) O 85 ° 0 min 0,000 mm 0,0 UV-I 0 W/m² 12,2 °C 14,2 °C 0,0 km/h (0 Bft)
15.08.2018 22:57 14,2 °C 88 % 1017,5 hPa 0,0 mm 0,0 km/h (0 Bft) O 85 ° 0 min 0,000 mm 0,0 UV-I 0 W/m² 12,2 °C 14,2 °C 0,0 km/h (0 Bft)
15.08.2018 22:58 14,2 °C 88 % 1017,5 hPa 0,0 mm 0,0 km/h (0 Bft) O 85 ° 0 min 0,000 mm 0,0 UV-I 0 W/m² 12,2 °C 14,2 °C 0,0 km/h (0 Bft)
15.08.2018 22:59 14,2 °C 88 % 1017,5 hPa 0,0 mm 0,0 km/h (0 Bft) O 85 ° 0 min 0,000 mm 0,0 UV-I 0 W/m² 12,2 °C 14,2 °C 0,0 km/h (0 Bft)
15.08.2018 23:00 14,2 °C 88 % 1017,5 hPa 0,0 mm 0,0 km/h (0 Bft) O 85 ° 0 min 0,000 mm 0,0 UV-I 0 W/m² 12,2 °C 14,2 °C 0,0 km/h (0 Bft)
15.08.2018 23:01 14,2 °C 88 % 1017,5 hPa 0,0 mm 0,0 km/h (0 Bft) O 85 ° 0 min 0,000 mm 0,0 UV-I 0 W/m² 12,2 °C 14,2 °C 0,0 km/h (0 Bft)
15.08.2018 23:02 14,2 °C 88 % 1017,4 hPa 0,0 mm 0,0 km/h (0 Bft) O 85 ° 0 min 0,000 mm 0,0 UV-I 0 W/m² 12,2 °C 14,2 °C 0,0 km/h (0 Bft)
15.08.2018 23:03 14,2 °C 87 % 1017,5 hPa 0,0 mm 0,0 km/h (0 Bft) O 85 ° 0 min 0,000 mm 0,0 UV-I 0 W/m² 12,1 °C 14,2 °C 0,0 km/h (0 Bft)
15.08.2018 23:04 14,3 °C 87 % 1017,5 hPa 0,0 mm 0,0 km/h (0 Bft) O 85 ° 0 min 0,000 mm 0,0 UV-I 0 W/m² 12,2 °C 14,3 °C 0,0 km/h (0 Bft)
15.08.2018 23:05 14,3 °C 87 % 1017,5 hPa 0,0 mm 0,0 km/h (0 Bft) O 85 ° 0 min 0,000 mm 0,0 UV-I 0 W/m² 12,2 °C 14,3 °C 0,0 km/h (0 Bft)
15.08.2018 23:06 14,3 °C 87 % 1017,5 hPa 0,0 mm 0,0 km/h (0 Bft) O 85 ° 0 min 0,000 mm 0,0 UV-I 0 W/m² 12,2 °C 14,3 °C 0,0 km/h (0 Bft)
15.08.2018 23:07 14,3 °C 87 % 1017,5 hPa 0,0 mm 0,0 km/h (0 Bft) O 85 ° 0 min 0,000 mm 0,0 UV-I 0 W/m² 12,2 °C 14,3 °C 0,0 km/h (0 Bft)
15.08.2018 23:08 14,3 °C 87 % 1017,5 hPa 0,0 mm 0,0 km/h (0 Bft) O 85 ° 0 min 0,000 mm 0,0 UV-I 0 W/m² 12,2 °C 14,3 °C 0,0 km/h (0 Bft)
15.08.2018 23:09 14,2 °C 87 % 1017,5 hPa 0,0 mm 0,0 km/h (0 Bft) O 85 ° 0 min 0,000 mm 0,0 UV-I 0 W/m² 12,1 °C 14,2 °C 0,0 km/h (0 Bft)
15.08.2018 23:10 14,2 °C 87 % 1017,5 hPa 0,0 mm 0,0 km/h (0 Bft) O 85 ° 0 min 0,000 mm 0,0 UV-I 0 W/m² 12,1 °C 14,2 °C 0,0 km/h (0 Bft)
15.08.2018 23:11 14,2 °C 87 % 1017,5 hPa 0,0 mm 0,0 km/h (0 Bft) O 85 ° 0 min 0,000 mm 0,0 UV-I 0 W/m² 12,1 °C 14,2 °C 0,0 km/h (0 Bft)
15.08.2018 23:12 14,2 °C 87 % 1017,5 hPa 0,0 mm 0,0 km/h (0 Bft) O 85 ° 0 min 0,000 mm 0,0 UV-I 0 W/m² 12,1 °C 14,2 °C 0,0 km/h (0 Bft)
15.08.2018 23:13 14,2 °C 87 % 1017,5 hPa 0,0 mm 0,0 km/h (0 Bft) O 85 ° 0 min 0,000 mm 0,0 UV-I 0 W/m² 12,1 °C 14,2 °C 0,0 km/h (0 Bft)
15.08.2018 23:14 14,2 °C 87 % 1017,6 hPa 0,0 mm 0,0 km/h (0 Bft) O 85 ° 0 min 0,000 mm 0,0 UV-I 0 W/m² 12,1 °C 14,2 °C 0,0 km/h (0 Bft)
15.08.2018 23:15 14,1 °C 88 % 1017,5 hPa 0,0 mm 0,0 km/h (0 Bft) O 85 ° 0 min 0,000 mm 0,0 UV-I 0 W/m² 12,1 °C 14,1 °C 0,0 km/h (0 Bft)
15.08.2018 23:16 14,1 °C 88 % 1017,5 hPa 0,0 mm 0,0 km/h (0 Bft) O 85 ° 0 min 0,000 mm 0,0 UV-I 0 W/m² 12,1 °C 14,1 °C 0,0 km/h (0 Bft)
15.08.2018 23:17 14,1 °C 88 % 1017,5 hPa 0,0 mm 0,0 km/h (0 Bft) O 85 ° 0 min 0,000 mm 0,0 UV-I 0 W/m² 12,1 °C 14,1 °C 0,0 km/h (0 Bft)
15.08.2018 23:18 14,1 °C 88 % 1017,5 hPa 0,0 mm 0,0 km/h (0 Bft) O 85 ° 0 min 0,000 mm 0,0 UV-I 0 W/m² 12,1 °C 14,1 °C 0,0 km/h (0 Bft)
15.08.2018 23:19 14,1 °C 88 % 1017,5 hPa 0,0 mm 0,0 km/h (0 Bft) O 85 ° 0 min 0,000 mm 0,0 UV-I 0 W/m² 12,1 °C 14,1 °C 0,0 km/h (0 Bft)
15.08.2018 23:20 14,1 °C 88 % 1017,5 hPa 0,0 mm 0,0 km/h (0 Bft) O 85 ° 0 min 0,000 mm 0,0 UV-I 0 W/m² 12,1 °C 14,1 °C 0,0 km/h (0 Bft)
15.08.2018 23:21 14,1 °C 88 % 1017,5 hPa 0,0 mm 0,0 km/h (0 Bft) O 85 ° 0 min 0,000 mm 0,0 UV-I 0 W/m² 12,1 °C 14,1 °C 0,0 km/h (0 Bft)
15.08.2018 23:22 14,1 °C 88 % 1017,5 hPa 0,0 mm 0,0 km/h (0 Bft) O 85 ° 0 min 0,000 mm 0,0 UV-I 0 W/m² 12,1 °C 14,1 °C 0,0 km/h (0 Bft)
15.08.2018 23:23 14,1 °C 88 % 1017,4 hPa 0,0 mm 0,0 km/h (0 Bft) O 85 ° 0 min 0,000 mm 0,0 UV-I 0 W/m² 12,1 °C 14,1 °C 0,0 km/h (0 Bft)
15.08.2018 23:24 14,1 °C 88 % 1017,5 hPa 0,0 mm 0,0 km/h (0 Bft) O 85 ° 0 min 0,000 mm 0,0 UV-I 0 W/m² 12,1 °C 14,1 °C 0,0 km/h (0 Bft)
15.08.2018 23:25 14,1 °C 88 % 1017,4 hPa 0,0 mm 0,0 km/h (0 Bft) O 85 ° 0 min 0,000 mm 0,0 UV-I 0 W/m² 12,1 °C 14,1 °C 0,0 km/h (0 Bft)
15.08.2018 23:26 14,0 °C 88 % 1017,5 hPa 0,0 mm 0,0 km/h (0 Bft) O 85 ° 0 min 0,000 mm 0,0 UV-I 0 W/m² 12,0 °C 14,0 °C 0,0 km/h (0 Bft)
15.08.2018 23:27 14,0 °C 88 % 1017,5 hPa 0,0 mm 0,0 km/h (0 Bft) O 85 ° 0 min 0,000 mm 0,0 UV-I 0 W/m² 12,0 °C 14,0 °C 0,0 km/h (0 Bft)
15.08.2018 23:28 14,0 °C 88 % 1017,5 hPa 0,0 mm 0,0 km/h (0 Bft) O 85 ° 0 min 0,000 mm 0,0 UV-I 0 W/m² 12,0 °C 14,0 °C 0,0 km/h (0 Bft)
15.08.2018 23:29 14,0 °C 88 % 1017,5 hPa 0,0 mm 0,0 km/h (0 Bft) O 85 ° 0 min 0,000 mm 0,0 UV-I 0 W/m² 12,0 °C 14,0 °C 0,0 km/h (0 Bft)
15.08.2018 23:30 14,0 °C 88 % 1017,6 hPa 0,0 mm 0,0 km/h (0 Bft) O 85 ° 0 min 0,000 mm 0,0 UV-I 0 W/m² 12,0 °C 14,0 °C 0,0 km/h (0 Bft)
15.08.2018 23:31 13,9 °C 88 % 1017,5 hPa 0,0 mm 0,4 km/h (0 Bft) O 85 ° 0 min 0,000 mm 0,0 UV-I 0 W/m² 11,9 °C 13,9 °C 1,6 km/h (1 Bft)
15.08.2018 23:32 13,9 °C 88 % 1017,5 hPa 0,0 mm 0,0 km/h (0 Bft) O 85 ° 0 min 0,000 mm 0,0 UV-I 0 W/m² 11,9 °C 13,9 °C 0,0 km/h (0 Bft)
15.08.2018 23:33 13,9 °C 88 % 1017,5 hPa 0,0 mm 0,0 km/h (0 Bft) O 85 ° 0 min 0,000 mm 0,0 UV-I 0 W/m² 11,9 °C 13,9 °C 0,0 km/h (0 Bft)
15.08.2018 23:34 13,9 °C 88 % 1017,6 hPa 0,0 mm 0,0 km/h (0 Bft) O 85 ° 0 min 0,000 mm 0,0 UV-I 0 W/m² 11,9 °C 13,9 °C 0,0 km/h (0 Bft)
15.08.2018 23:35 13,9 °C 88 % 1017,6 hPa 0,0 mm 0,0 km/h (0 Bft) O 85 ° 0 min 0,000 mm 0,0 UV-I 0 W/m² 11,9 °C 13,9 °C 0,0 km/h (0 Bft)
15.08.2018 23:36 13,9 °C 88 % 1017,5 hPa 0,0 mm 0,0 km/h (0 Bft) O 85 ° 0 min 0,000 mm 0,0 UV-I 0 W/m² 11,9 °C 13,9 °C 0,0 km/h (0 Bft)
15.08.2018 23:37 13,9 °C 88 % 1017,6 hPa 0,0 mm 0,0 km/h (0 Bft) O 85 ° 0 min 0,000 mm 0,0 UV-I 0 W/m² 11,9 °C 13,9 °C 0,0 km/h (0 Bft)
15.08.2018 23:38 13,9 °C 88 % 1017,6 hPa 0,0 mm 0,0 km/h (0 Bft) O 85 ° 0 min 0,000 mm 0,0 UV-I 0 W/m² 11,9 °C 13,9 °C 0,0 km/h (0 Bft)
15.08.2018 23:39 13,9 °C 88 % 1017,6 hPa 0,0 mm 0,1 km/h (0 Bft) O 85 ° 0 min 0,000 mm 0,0 UV-I 0 W/m² 11,9 °C 13,9 °C 1,6 km/h (1 Bft)
15.08.2018 23:40 13,9 °C 88 % 1017,5 hPa 0,0 mm 0,0 km/h (0 Bft) O 85 ° 0 min 0,000 mm 0,0 UV-I 0 W/m² 11,9 °C 13,9 °C 0,0 km/h (0 Bft)
15.08.2018 23:41 14,0 °C 88 % 1017,5 hPa 0,0 mm 0,0 km/h (0 Bft) O 85 ° 0 min 0,000 mm 0,0 UV-I 0 W/m² 12,0 °C 14,0 °C 0,0 km/h (0 Bft)
15.08.2018 23:42 14,1 °C 88 % 1017,5 hPa 0,0 mm 0,0 km/h (0 Bft) O 85 ° 0 min 0,000 mm 0,0 UV-I 0 W/m² 12,1 °C 14,1 °C 0,0 km/h (0 Bft)
15.08.2018 23:43 14,1 °C 88 % 1017,5 hPa 0,0 mm 0,0 km/h (0 Bft) O 85 ° 0 min 0,000 mm 0,0 UV-I 0 W/m² 12,1 °C 14,1 °C 0,0 km/h (0 Bft)
15.08.2018 23:44 14,1 °C 87 % 1017,5 hPa 0,0 mm 0,0 km/h (0 Bft) O 85 ° 0 min 0,000 mm 0,0 UV-I 0 W/m² 12,0 °C 14,1 °C 0,0 km/h (0 Bft)
15.08.2018 23:45 14,1 °C 87 % 1017,5 hPa 0,0 mm 0,0 km/h (0 Bft) O 85 ° 0 min 0,000 mm 0,0 UV-I 0 W/m² 12,0 °C 14,1 °C 0,0 km/h (0 Bft)
15.08.2018 23:46 14,1 °C 87 % 1017,5 hPa 0,0 mm 0,1 km/h (0 Bft) O 85 ° 0 min 0,000 mm 0,0 UV-I 0 W/m² 12,0 °C 14,1 °C 1,6 km/h (1 Bft)
15.08.2018 23:47 14,2 °C 87 % 1017,5 hPa 0,0 mm 0,0 km/h (0 Bft) O 85 ° 0 min 0,000 mm 0,0 UV-I 0 W/m² 12,1 °C 14,2 °C 0,0 km/h (0 Bft)
15.08.2018 23:48 14,1 °C 87 % 1017,4 hPa 0,0 mm 0,0 km/h (0 Bft) O 85 ° 0 min 0,000 mm 0,0 UV-I 0 W/m² 12,0 °C 14,1 °C 0,0 km/h (0 Bft)
15.08.2018 23:49 14,0 °C 87 % 1017,5 hPa 0,0 mm 0,0 km/h (0 Bft) O 85 ° 0 min 0,000 mm 0,0 UV-I 0 W/m² 11,9 °C 14,0 °C 0,0 km/h (0 Bft)
15.08.2018 23:50 14,0 °C 87 % 1017,4 hPa 0,0 mm 0,0 km/h (0 Bft) O 85 ° 0 min 0,000 mm 0,0 UV-I 0 W/m² 11,9 °C 14,0 °C 0,0 km/h (0 Bft)
15.08.2018 23:51 13,9 °C 87 % 1017,4 hPa 0,0 mm 0,0 km/h (0 Bft) O 85 ° 0 min 0,000 mm 0,0 UV-I 0 W/m² 11,8 °C 13,9 °C 0,0 km/h (0 Bft)
15.08.2018 23:52 13,8 °C 87 % 1017,5 hPa 0,0 mm 0,0 km/h (0 Bft) O 85 ° 0 min 0,000 mm 0,0 UV-I 0 W/m² 11,7 °C 13,8 °C 0,0 km/h (0 Bft)
15.08.2018 23:53 13,8 °C 87 % 1017,5 hPa 0,0 mm 0,0 km/h (0 Bft) O 85 ° 0 min 0,000 mm 0,0 UV-I 0 W/m² 11,7 °C 13,8 °C 0,0 km/h (0 Bft)
15.08.2018 23:54 13,7 °C 87 % 1017,5 hPa 0,0 mm 0,0 km/h (0 Bft) O 85 ° 0 min 0,000 mm 0,0 UV-I 0 W/m² 11,6 °C 13,7 °C 0,0 km/h (0 Bft)
15.08.2018 23:55 13,7 °C 87 % 1017,5 hPa 0,0 mm 0,0 km/h (0 Bft) O 85 ° 0 min 0,000 mm 0,0 UV-I 0 W/m² 11,6 °C 13,7 °C 0,0 km/h (0 Bft)
15.08.2018 23:56 13,6 °C 87 % 1017,5 hPa 0,0 mm 0,3 km/h (0 Bft) O 85 ° 0 min 0,000 mm 0,0 UV-I 0 W/m² 11,5 °C 13,6 °C 1,6 km/h (1 Bft)
15.08.2018 23:57 13,5 °C 87 % 1017,5 hPa 0,0 mm 0,1 km/h (0 Bft) O 85 ° 0 min 0,000 mm 0,0 UV-I 0 W/m² 11,4 °C 13,5 °C 1,6 km/h (1 Bft)
15.08.2018 23:58 13,5 °C 87 % 1017,5 hPa 0,0 mm 0,1 km/h (0 Bft) O 85 ° 0 min 0,000 mm 0,0 UV-I 0 W/m² 11,4 °C 13,5 °C 1,6 km/h (1 Bft)
15.08.2018 23:59 13,4 °C 87 % 1017,5 hPa 0,0 mm 0,0 km/h (0 Bft) O 85 ° 0 min 0,000 mm 0,0 UV-I 0 W/m² 11,3 °C 13,4 °C 0,0 km/h (0 Bft)
_ Min-Zeit 06:52 15:08 19:23 - 23:59 - - - - - - 23:59 06:52 23:59
Minimum _ 12,7 °C 54 % 1016,7 hPa - 0,0 km/h (0 Bft) - - - - - - 11,3 °C 12,7 °C 0,0 km/h (0 Bft)
_ Max-Zeit 16:24 07:14 11:01 00:27 14:31 - - 16:11 14:01 12:56 12:58 12:40 16:24 12:09
Maximum _ 22,2 °C 93 % 1018,7 hPa 0,2 mm 9,9 km/h
W-NW (2 Bft)
- - 1 min 0,407 mm 7,2 UV-I 1030 W/m² 15,8 °C 22,2 °C 16,1 km/h
NW (3 Bft)
Durchschnitt _ 17,0 °C 79 % 1017,7 hPa #0,2 mm 1,5 km/h (1 Bft) NW - #3:40 h #2,794 mm 3,1 UV-I 196 W/m² 13,2 °C 17,0 °C 2,6 km/h (1 Bft)